Date StartTime U_cm/s V_cm/s W_cm/s Ustd_cm/s Vstd_cm/s Wstd_cm/s Uvar_(cm/s)^2 Vvar_(cm/s)^2 Wvar_(cm/s)^2 KE_(m/s)^2 TurbulentKE_(m/s)^2 HorizWindSpeed_cm/s FrictionSpeec_cm/s DragCoef SpeedOfSound_m/s SonicTemperature_C Pressure_mb 
09/17/2014  00:00:00       31.982      141.316       -5.093       61.208       80.875       46.568     3746.414     6540.755     2168.569        1.673        0.623      144.890       46.484        0.103      346.030       23.983      858.656
09/17/2014  00:01:00       18.871      295.469      -35.692       70.631       82.681       50.873     4988.762     6836.182     2588.056        5.167        0.721      296.071       44.547        0.023      345.987       23.907      858.650
09/17/2014  00:02:00       51.348      159.493       -6.865       62.802       97.164       49.203     3944.139     9440.796     2420.907        2.196        0.790      167.554       49.908        0.089      345.884       23.731      858.633
09/17/2014  00:03:00       67.001      149.176       -2.586       70.357      121.541       70.451     4950.149    14772.231     4963.278        2.571        1.234      163.532       74.793        0.209      345.860       23.692      858.634
09/17/2014  00:04:00       31.279      137.121       10.628       80.906      102.534       72.101     6545.798    10513.297     5198.620        2.107        1.113      140.644       70.775        0.253      345.848       23.670      858.628
09/17/2014  00:05:00       55.476      211.540      -20.784       73.595       82.951       56.655     5416.180     6880.949     3209.741        3.188        0.775      218.694       44.935        0.042      345.855       23.682      858.620
09/17/2014  00:06:00      -13.425      289.598      -37.811       52.733       99.405       45.124     2780.732     9881.341     2036.195        5.008        0.735      289.909       46.641        0.026      345.918       23.789      858.634
09/17/2014  00:07:00      -22.736      192.830      -15.195       56.267       94.257       46.342     3165.979     8884.291     2147.612        2.606        0.710      194.165       54.598        0.079      345.939       23.825      858.655
09/17/2014  00:08:00       11.030      183.547      -19.962       57.008       63.045       35.326     3249.872     3974.692     1247.936        2.134        0.424      183.879       31.424        0.029      345.945       23.837      858.658
09/17/2014  00:09:00       40.694      107.918        7.958       64.735       83.433       61.318     4190.663     6961.141     3759.920        1.414        0.746      115.336       51.167        0.197      345.945       23.838      858.644
09/17/2014  00:10:00       43.008      120.269       -0.651       57.366       70.791       47.560     3290.827     5011.317     2261.988        1.344        0.528      127.727       44.162        0.120      345.955       23.856      858.636
09/17/2014  00:11:00       37.033      181.889       -4.715       99.344      116.817       62.043     9869.276    13646.097     3849.350        3.092        1.368      185.621       63.246        0.116      346.034       23.989      858.631
09/17/2014  00:12:00       57.703       58.556        7.886       50.445       55.699       36.907     2544.740     3102.434     1362.118        0.691        0.350       82.210       24.231        0.087      345.974       23.888      858.644
09/17/2014  00:13:00       42.109       90.694       -8.857       50.045       66.054       35.978     2504.465     4363.167     1294.442        0.912        0.408       99.993       40.086        0.161      346.004       23.939      858.691
09/17/2014  00:14:00       69.532       99.823       15.078       68.970       64.500       64.038     4756.852     4160.283     4100.818        1.402        0.651      121.652       43.573        0.128      345.976       23.892      858.713
09/17/2014  00:15:00      120.587      100.142       25.082       68.253       40.319       53.045     4658.474     1625.646     2813.783        1.715        0.455      156.747       35.161        0.050      345.940       23.829      858.711
09/17/2014  00:16:00       63.486      144.722      -17.454       68.364       89.141       56.599     4673.575     7946.176     3203.460        2.055        0.791      158.034       58.420        0.137      345.962       23.865      858.700
09/17/2014  00:17:00       92.482      105.512        2.639       69.736       67.214       51.770     4863.127     4517.690     2680.089        1.587        0.603      140.306       43.855        0.098      345.945       23.838      858.676
09/17/2014  00:18:00       78.204      144.193        2.640       74.009       89.581       66.590     5477.366     8024.728     4434.187        2.242        0.897      164.035       58.061        0.125      345.950       23.844      858.657
09/17/2014  00:19:00       54.734      115.460       -9.286       63.030       75.185       56.535     3972.806     5652.728     3196.163        1.461        0.641      127.777       41.815        0.107      345.921       23.796      858.646
09/17/2014  00:20:00       73.014      156.246       -1.599       67.030       94.121       67.920     4493.009     8858.849     4613.185        2.385        0.898      172.464       66.584        0.149      345.980       23.897      858.645
09/17/2014  00:21:00       31.655      133.399      -13.987       54.137       62.157       49.227     2930.816     3863.475     2423.341        1.410        0.461      137.104       46.614        0.116      345.906       23.771      858.640
09/17/2014  00:22:00       26.455      224.105      -22.724       48.284       84.152       43.742     2331.353     7081.524     1913.389        3.138        0.566      225.661       46.945        0.043      345.951       23.845      858.636
09/17/2014  00:23:00       20.166      211.975      -27.003       43.256       63.583       37.352     1871.053     4042.774     1395.162        2.669        0.365      212.932       35.956        0.029      345.958       23.857      858.641
09/17/2014  00:24:00       22.892      202.211      -28.197       43.512       50.642       31.659     1893.334     2564.638     1002.278        2.383        0.273      203.503       23.682        0.014      346.027       23.978      858.654
09/17/2014  00:25:00        1.101      192.520      -28.486       40.872       45.926       26.527     1670.543     2109.216      703.677        2.118        0.224      192.523       23.471        0.015      346.015       23.956      858.672
09/17/2014  00:26:00       -6.917      214.201      -23.182       49.444       56.735       31.609     2444.728     3218.878      999.101        2.656        0.333      214.313       28.819        0.018      346.072       24.054      858.695
09/17/2014  00:27:00      -15.808      162.106      -21.534       43.101       58.974       30.950     1857.713     3477.929      957.894        1.664        0.315      162.875       26.858        0.027      346.080       24.069      858.723
09/17/2014  00:28:00      -10.046      173.762      -18.529       44.986       78.799       35.065     2023.759     6209.348     1229.531        2.005        0.473      174.052       39.168        0.051      346.076       24.061      858.744
09/17/2014  00:29:00       29.634      189.318      -25.385       35.900       51.334       33.526     1288.802     2635.138     1124.003        2.120        0.252      191.623       28.854        0.023      346.118       24.132      858.766
09/17/2014  00:30:00       40.304       86.413        0.411       50.257       52.197       39.634     2525.760     2724.576     1570.846        0.796        0.341       95.350       32.972        0.120      346.066       24.046      858.768
09/17/2014  00:31:00       55.519      114.594       -1.590       65.276       76.151       58.112     4260.912     5798.929     3377.000        1.482        0.672      127.335       53.308        0.175      346.112       24.124      858.761
09/17/2014  00:32:00       61.149       89.479       11.395       62.466       61.161       49.992     3902.042     3740.638     2499.243        1.101        0.507      108.378       36.728        0.115      346.129       24.152      858.747
09/17/2014  00:33:00      109.995       95.471        4.815       60.301       49.157       50.020     3636.195     2416.423     2501.971        1.489        0.428      145.649       39.408        0.073      346.095       24.096      858.734
09/17/2014  00:34:00       86.963       96.903       12.902       72.690       46.577       45.838     5283.885     2169.409     2101.163        1.333        0.478      130.203       29.316        0.051      346.083       24.075      858.722
09/17/2014  00:35:00       58.787      115.293        4.468       63.373       83.954       61.518     4016.194     7048.223     3784.526        1.581        0.742      129.415       54.588        0.178      346.114       24.127      858.695
09/17/2014  00:36:00       84.653      104.413       12.092       94.360       64.425       57.752     8903.788     4150.643     3335.321        1.730        0.819      134.418       47.971        0.127      346.115       24.129      858.697
09/17/2014  00:37:00       38.516      110.294       -6.240       59.418       77.945       58.242     3530.477     6075.395     3392.093        1.334        0.650      116.825       53.176        0.207      346.140       24.173      858.690
09/17/2014  00:38:00       40.927      126.441       -4.040       51.502       89.122       50.709     2652.412     7942.776     2571.387        1.542        0.658      132.900       55.119        0.172      346.111       24.123      858.683
09/17/2014  00:39:00       29.303      185.427      -17.741       37.170       57.360       35.779     1381.644     3290.151     1280.114        2.075        0.298      187.729       34.453        0.034      346.136       24.165      858.679
09/17/2014  00:40:00       27.423      141.847      -11.647       53.881       68.830       41.942     2903.144     4737.609     1759.146        1.520        0.470      144.474       41.765        0.084      346.125       24.146      858.683
09/17/2014  00:41:00       45.845       80.992        9.092       42.279       52.590       41.470     1787.515     2765.661     1719.771        0.751        0.314       93.067       30.227        0.105      346.090       24.087      858.692
09/17/2014  00:42:00       72.654       88.867        0.197       45.479       44.108       39.986     2068.365     1945.503     1598.868        0.939        0.281      114.786       27.641        0.058      346.098       24.100      858.701
09/17/2014  00:43:00       50.403      100.626       -0.171       45.549       54.429       43.612     2074.712     2962.531     1902.030        0.980        0.347      112.543       38.275        0.116      346.039       24.000      858.718
09/17/2014  00:44:00       33.960      103.687        0.084       40.736       53.596       45.340     1659.424     2872.567     2055.681        0.924        0.329      109.107       39.133        0.129      346.018       23.964      858.721
09/17/2014  00:45:00       11.583       69.761       -1.699       35.816       72.974       37.333     1282.780     5325.181     1393.766        0.650        0.400       70.716       42.144        0.355      345.989       23.913      858.720
09/17/2014  00:46:00        4.655      184.971      -19.266       37.830       85.589       30.316     1431.105     7325.450      919.082        2.214        0.484      185.029       41.889        0.051      346.033       23.986      858.727
09/17/2014  00:47:00      -10.055      175.331      -22.443       46.810       51.119       32.575     2191.145     2613.159     1061.152        1.860        0.293      175.619       32.979        0.035      346.056       24.028      858.724
09/17/2014  00:48:00       -1.107      174.191      -23.128       37.001       56.637       29.083     1369.087     3207.744      845.841        1.815        0.271      174.195       28.725        0.027      346.048       24.014      858.745
09/17/2014  00:49:00       -4.507      150.233      -16.319       35.669       57.874       28.571     1272.287     3349.451      816.281        1.415        0.272      150.300       28.271        0.035      346.032       23.986      858.764
09/17/2014  00:50:00      -16.602      109.471      -13.457       25.553       43.170       16.441      652.945     1863.621      270.313        0.761        0.139      110.723       13.163        0.014      346.017       23.962      858.789
09/17/2014  00:51:00      -21.178       98.349      -10.921       42.071       37.434       24.397     1769.951     1401.291      595.196        0.700        0.188      100.604       21.668        0.046      346.039       24.000      858.812
09/17/2014  00:52:00      -36.437       97.614      -11.645       32.628       54.416       23.710     1064.564     2961.068      562.187        0.779        0.229      104.193       26.929        0.067      345.992       23.919      858.819
09/17/2014  00:53:00      -54.032       96.481      -17.365       21.948       30.544       19.503      481.728      932.958      380.352        0.716        0.090      110.580        9.428        0.007      346.017       23.963      858.800
09/17/2014  00:54:00      -84.565       76.078      -18.408       29.095       36.747       21.651      846.535     1350.359      468.756        0.797        0.133      113.750       16.307        0.021      345.985       23.906      858.778
09/17/2014  00:55:00     -110.117      131.895      -38.704       40.065       38.082       19.578     1605.231     1450.245      383.279        1.723        0.172      171.820       19.364        0.013      346.002       23.937      858.771
09/17/2014  00:56:00     -139.119      126.094      -36.646       32.504       50.867       25.369     1056.516     2587.467      643.569        2.044        0.214      187.760       26.625        0.020      346.059       24.033      858.770
09/17/2014  00:57:00     -105.888      127.783      -28.516       51.157       56.674       39.062     2616.995     3211.995     1525.876        1.785        0.368      165.955       39.383        0.056      346.024       23.974      858.772
09/17/2014  00:58:00     -136.641      125.481      -34.662       41.733       38.612       27.860     1741.644     1490.912      776.168        1.981        0.200      185.516       23.138        0.016      346.064       24.041      858.759
09/17/2014  00:59:00     -107.573      127.684      -24.082       38.778       50.228       27.181     1503.747     2522.900      738.797        1.661        0.238      166.958       19.740        0.014      346.022       23.969      858.742
09/17/2014  01:00:00     -154.022      148.491      -39.024       59.675       61.820       36.821     3561.151     3821.740     1355.765        2.802        0.437      213.945       38.690        0.033      346.181       24.239      858.710
09/17/2014  01:01:00     -149.019      157.276      -42.568       45.052       49.767       30.510     2029.650     2476.750      930.844        2.709        0.272      216.662       31.355        0.021      346.188       24.251      858.692
09/17/2014  01:02:00     -134.405      203.750      -36.531       40.939       56.806       32.736     1675.986     3226.921     1071.652        3.344        0.299      244.088       25.471        0.011      346.168       24.218      858.682
09/17/2014  01:03:00      -66.038      147.827      -25.968       35.847       69.768       28.854     1284.980     4867.624      832.581        1.694        0.349      161.907       25.488        0.025      346.070       24.052      858.678
09/17/2014  01:04:00      -72.575      165.454      -25.527       47.834       50.043       34.265     2288.112     2504.324     1174.093        1.963        0.298      180.671       35.302        0.038      346.119       24.136      858.663
09/17/2014  01:05:00      -52.490      141.317      -20.785       41.432       64.409       25.127     1716.587     4148.515      631.369        1.483        0.325      150.750       26.738        0.031      346.121       24.139      858.649
09/17/2014  01:06:00      -50.902      171.024      -31.549       34.329       76.492       22.512     1178.508     5850.988      506.804        2.018        0.377      178.439       13.344        0.006      346.250       24.360      858.645
09/17/2014  01:07:00      -27.171      127.025      -21.489       43.993       46.284       18.997     1935.382     2142.212      360.901        1.089        0.222      129.898       15.870        0.015      346.116       24.132      858.634
09/17/2014  01:08:00      -10.599      150.889      -16.659       24.807       35.640       14.425      615.399     1270.220      208.090        1.263        0.105      151.261       10.290        0.005      346.136       24.166      858.620
09/17/2014  01:09:00        6.736      147.013      -16.160       24.367       35.036       17.034      593.748     1227.504      290.149        1.201        0.106      147.167       15.450        0.011      346.091       24.088      858.617
09/17/2014  01:10:00       22.941      135.519      -16.181       28.282       46.772       25.295      799.896     2187.667      639.855        1.139        0.181      137.447       22.944        0.028      346.059       24.033      858.615
09/17/2014  01:11:00       25.103       84.552       -4.492       30.704       42.634       23.970      942.741     1817.648      574.561        0.557        0.167       88.200       20.863        0.056      345.985       23.907      858.613
09/17/2014  01:12:00       60.468       35.964       13.430       27.788       23.808       23.668      772.157      566.808      560.189        0.351        0.095       70.354       13.075        0.035      345.871       23.712      858.623
09/17/2014  01:13:00       57.783       50.840       17.242       38.806       38.381       30.407     1505.924     1473.112      924.596        0.506        0.195       76.965       23.971        0.097      345.944       23.836      858.634
09/17/2014  01:14:00       27.308       42.604       -5.334       35.074       25.592       17.181     1230.212      654.926      295.171        0.238        0.109       50.605       18.525        0.134      345.940       23.832      858.654
09/17/2014  01:15:00      -20.571       94.481      -18.100       22.215       17.189       13.282      493.518      295.461      176.414        0.532        0.048       96.694        8.258        0.007      346.031       23.986      858.664
09/17/2014  01:16:00       -7.601       55.936       -9.345       14.760       22.593        9.479      217.852      510.453       89.845        0.205        0.041       56.450        4.459        0.006      345.955       23.856      858.663
09/17/2014  01:17:00      -32.727       62.365      -10.339       28.110       32.333       19.384      790.177     1045.414      375.751        0.364        0.111       70.430       14.519        0.042      345.914       23.785      858.658
09/17/2014  01:18:00      -80.419      107.958      -15.711       32.533       30.057       11.982     1058.399      903.430      143.577        1.024        0.105      134.619       14.322        0.011      345.986       23.908      858.652
09/17/2014  01:19:00      -65.502      139.245      -20.439       27.109       30.110       16.631      734.901      906.621      276.578        1.301        0.096      153.882       14.762        0.009      345.967       23.875      858.652
09/17/2014  01:20:00      -40.180      113.751      -18.930       23.181       38.139       13.419      537.375     1454.554      180.077        0.854        0.109      120.639       15.216        0.016      346.015       23.958      858.639
09/17/2014  01:21:00      -18.042      130.508      -22.955       19.327       17.425       12.620      373.523      303.616      159.258        0.936        0.042      131.749        6.673        0.003      346.064       24.042      858.632
09/17/2014  01:22:00      -26.339      135.620      -19.240       16.350       16.131       10.766      267.336      260.219      115.905        1.005        0.032      138.154        6.642        0.002      346.112       24.125      858.628
09/17/2014  01:23:00      -25.139      139.041      -20.954       31.059       26.671       15.869      964.667      711.329      251.832        1.117        0.096      141.295       11.028        0.006      346.075       24.061      858.635
09/17/2014  01:24:00      -40.535       78.452      -17.049       22.056       27.729       14.161      486.478      768.872      200.536        0.477        0.073       88.305       13.457        0.023      346.017       23.962      858.649
09/17/2014  01:25:00      -56.966       45.801      -14.756       36.366       38.843       19.243     1322.520     1508.756      370.309        0.438        0.160       73.095       12.963        0.031      345.970       23.882      858.676
09/17/2014  01:26:00      -60.703       17.864      -14.351       22.776       15.384       11.992      518.736      236.663      143.799        0.255        0.045       63.277        8.254        0.017      345.824       23.630      858.699
09/17/2014  01:27:00      -91.954       -6.461       -9.009       32.377       23.522       15.158     1048.247      553.268      229.756        0.520        0.092       92.180        5.991        0.004      345.710       23.434      858.699
09/17/2014  01:28:00      -70.179       17.446      -10.875       20.448       18.134       10.203      418.141      328.843      104.110        0.310        0.043       72.315        7.795        0.012      345.618       23.276      858.687
09/17/2014  01:29:00      -73.699       14.049      -12.326       17.726       15.901        8.724      314.208      252.831       76.101        0.321        0.032       75.026        4.447        0.004      345.606       23.256      858.663
09/17/2014  01:30:00      -69.780       27.733       -9.579       18.667       24.019       12.809      348.448      576.923      164.066        0.341        0.054       75.089        7.537        0.010      345.715       23.443      858.647
09/17/2014  01:31:00      -66.650        8.860       -8.421       27.486       31.605       15.168      755.458      998.898      230.062        0.329        0.099       67.236       12.112        0.032      345.718       23.448      858.644
09/17/2014  01:32:00      -70.543      -12.041       -8.257       18.847       21.270       15.060      355.198      452.397      226.798        0.311        0.052       71.563       10.989        0.024      345.586       23.221      858.660
09/17/2014  01:33:00      -97.910       12.610      -14.130       28.643       32.993       14.801      820.442     1088.559      219.068        0.604        0.106       98.719        7.245        0.005      345.508       23.087      858.663
09/17/2014  01:34:00     -146.392        9.527      -13.144       30.697       28.721       17.702      942.297      824.896      313.357        1.189        0.104      146.701       14.610        0.010      345.538       23.141      858.669
09/17/2014  01:35:00     -127.366       -1.221      -13.082       35.166       38.314       19.699     1236.639     1467.953      388.070        0.974        0.155      127.371       15.737        0.015      345.533       23.131      858.676
09/17/2014  01:36:00     -155.638       62.152      -13.990       51.333       43.012       24.110     2635.127     1850.029      581.273        1.667        0.253      167.589       20.510        0.015      345.498       23.069      858.683
09/17/2014  01:37:00     -136.668       17.516      -16.238       49.163       49.696       33.665     2417.024     2469.693     1133.339        1.263        0.301      137.786       28.465        0.043      345.566       23.188      858.688
09/17/2014  01:38:00      -95.077       59.877      -15.794       35.220       39.705       25.336     1240.473     1576.449      641.897        0.817        0.173      112.360       15.537        0.019      345.533       23.131      858.687
09/17/2014  01:39:00     -129.528       92.965      -29.151       38.952       47.613       26.106     1517.232     2266.950      681.533        1.537        0.223      159.437       21.869        0.019      345.708       23.431      858.689
09/17/2014  01:40:00     -134.663       99.029      -32.088       43.822       55.448       26.773     1920.350     3074.504      716.817        1.734        0.286      167.155       31.903        0.036      345.732       23.471      858.694
09/17/2014  01:41:00     -140.886      102.569      -21.536       74.474       59.090       38.139     5546.394     3491.651     1454.607        2.066        0.525      174.268       44.465        0.065      345.723       23.456      858.698
09/17/2014  01:42:00      -91.979       95.578      -19.761       45.925       52.514       25.783     2109.116     2757.681      664.741        1.176        0.277      132.647       27.352        0.043      345.704       23.426      858.706
09/17/2014  01:43:00      -81.152      110.970      -18.874       49.238       52.760       30.336     2424.388     2783.626      920.277        1.269        0.306      137.478       35.646        0.067      345.853       23.681      858.698
09/17/2014  01:44:00      -71.533      121.061      -17.549       33.246       30.323       23.289     1105.309      919.514      542.369        1.132        0.128      140.616       21.067        0.022      345.873       23.716      858.696
09/17/2014  01:45:00      -89.365      144.309      -26.721       44.740       36.552       29.152     2001.710     1336.053      849.832        1.686        0.209      169.738       24.471        0.021      345.846       23.667      858.696
09/17/2014  01:46:00      -62.258       69.238      -14.018       30.804       29.107       20.031      948.913      847.224      401.247        0.553        0.110       93.113       17.615        0.036      345.817       23.619      858.686
09/17/2014  01:47:00     -114.793       79.692      -15.486       42.520       39.347       23.848     1807.919     1548.184      568.743        1.185        0.196      139.744       16.470        0.014      345.842       23.662      858.683
09/17/2014  01:48:00     -123.699       97.178      -20.045       46.304       38.972       27.683     2144.086     1518.804      766.370        1.479        0.221      157.305       22.171        0.020      345.843       23.663      858.691
09/17/2014  01:49:00     -113.694      119.552      -30.972       46.253       59.616       27.144     2139.325     3554.127      736.815        1.730        0.322      164.982       29.521        0.032      345.858       23.690      858.697
09/17/2014  01:50:00     -163.186      200.587      -35.759       64.068       65.807       38.657     4104.730     4330.518     1494.343        3.903        0.496      258.582       42.109        0.027      346.021       23.965      858.693
09/17/2014  01:51:00      -78.903      143.347      -24.834       50.716       49.971       30.743     2572.136     2497.130      945.149        1.670        0.301      163.628       28.561        0.030      345.995       23.924      858.706
09/17/2014  01:52:00     -107.048      195.100      -31.959       68.643       61.938       32.853     4711.896     3836.257     1079.347        3.008        0.481      222.538       34.487        0.024      346.079       24.067      858.710
09/17/2014  01:53:00      -38.609      246.590      -24.998       51.107       94.338       37.796     2611.894     8899.699     1428.567        3.793        0.647      249.594       41.686        0.028      346.104       24.108      858.709
09/17/2014  01:54:00     -116.411      130.752      -24.985       43.022       67.478       33.808     1850.858     4553.221     1142.958        1.941        0.377      175.065       28.494        0.026      346.158       24.203      858.706
09/17/2014  01:55:00      -35.751      142.506       -5.074       43.674       61.597       37.253     1907.416     3794.201     1387.804        1.435        0.354      146.922       39.101        0.071      346.098       24.100      858.702
09/17/2014  01:56:00      -31.206      222.424      -28.716       34.522       61.040       23.586     1191.740     3725.928      556.294        2.837        0.274      224.602       24.430        0.012      346.162       24.207      858.705
09/17/2014  01:57:00      -62.385      197.430      -34.975       63.525       48.171       27.214     4035.432     2320.490      740.605        2.559        0.355      207.052       16.913        0.007      346.173       24.226      858.704
09/17/2014  01:58:00      -58.417      110.149      -16.653       41.335       30.602       24.565     1708.556      936.498      603.430        0.953        0.162      124.681       22.842        0.034      346.027       23.979      858.698
09/17/2014  01:59:00      -96.043      114.357      -30.970       24.253       31.560       17.113      588.216      996.021      292.870        1.257        0.094      149.338       14.863        0.010      346.047       24.013      858.702
09/17/2014  02:00:00      -67.783      123.319      -27.096       31.252       34.671       20.702      976.693     1202.058      428.582        1.157        0.130      140.720       19.468        0.019      346.066       24.046      858.714
09/17/2014  02:01:00      -76.041       76.259      -14.784       38.943       33.272       20.947     1516.543     1107.023      438.757        0.744        0.153      107.692       20.090        0.035      346.031       23.986      858.728
09/17/2014  02:02:00      -94.238       37.251       -8.720       27.632       21.640       16.309      763.533      468.300      265.974        0.592        0.075      101.334       10.581        0.011      345.969       23.880      858.733
09/17/2014  02:03:00     -101.510       50.767      -20.915       42.243       35.632       25.394     1784.509     1269.626      644.853        0.851        0.185      113.497       23.432        0.043      346.039       23.999      858.730
09/17/2014  02:04:00     -122.890       36.269      -11.474       46.523       28.573       24.465     2164.376      816.394      598.539        1.006        0.179      128.131       15.513        0.015      346.081       24.073      858.714
09/17/2014  02:05:00     -126.345       67.533      -16.997       43.660       33.694       23.805     1906.155     1135.281      566.670        1.221        0.180      143.261       19.123        0.018      346.086       24.081      858.702
09/17/2014  02:06:00      -80.353       44.308       -5.402       32.030       19.142       18.436     1025.916      366.433      339.873        0.509        0.087       91.759       14.892        0.026      345.943       23.835      858.687
09/17/2014  02:07:00      -84.279       56.997      -23.483       32.416       35.635       19.394     1050.784     1269.871      376.143        0.680        0.135      101.743       19.439        0.037      345.934       23.818      858.686
09/17/2014  02:08:00      -86.811       55.901      -16.137       30.577       25.482       17.066      934.940      649.343      291.243        0.640        0.094      103.252       14.109        0.019      345.901       23.763      858.686
09/17/2014  02:09:00     -133.953       58.811      -18.437       42.112       36.839       25.270     1773.426     1357.148      638.561        1.275        0.188      146.295       21.053        0.021      345.895       23.753      858.689
09/17/2014  02:10:00     -125.059       46.067      -14.500       37.890       32.241       23.434     1435.684     1039.477      549.148        1.050        0.151      133.274       18.007        0.018      345.987       23.910      858.705
09/17/2014  02:11:00     -104.711       35.233      -10.414       32.266       23.876       21.032     1041.082      570.068      442.364        0.718        0.103      110.480       15.997        0.021      346.107       24.118      858.726
09/17/2014  02:12:00      -40.602       27.840        7.004       42.867       21.999       20.502     1837.605      483.972      420.327        0.261        0.137       49.230       19.275        0.153      346.082       24.073      858.743
09/17/2014  02:13:00       26.769       44.549        9.895       25.719       36.616       19.786      661.478     1340.722      391.479        0.260        0.120       51.973       21.232        0.167      346.041       24.004      858.756
09/17/2014  02:14:00      -13.422      182.005      -23.234       24.188       36.479       19.122      585.043     1330.753      365.660        1.806        0.114      182.499       16.535        0.008      346.443       24.694      858.766
09/17/2014  02:15:00       13.948      141.231      -23.064       18.710       22.784       12.622      350.051      519.128      159.323        1.085        0.051      141.918       11.119        0.006      346.344       24.522      858.782
09/17/2014  02:16:00      -23.767       94.875      -16.688       36.438       42.452       11.240     1327.738     1802.144      126.342        0.655        0.163       97.806       12.347        0.016      346.249       24.361      858.792
09/17/2014  02:17:00      -98.170       -0.765       -9.015       34.459       25.051       19.104     1187.402      627.575      364.964        0.595        0.109       98.172       20.428        0.043      346.087       24.082      858.802
09/17/2014  02:18:00      -93.443       74.907      -28.919       43.406       36.258       18.770     1884.059     1314.666      352.328        0.936        0.178      119.761       13.313        0.012      346.080       24.068      858.802
09/17/2014  02:19:00      -90.806       60.356      -16.215       24.731       27.200       19.863      611.639      739.847      394.532        0.695        0.087      109.035       14.958        0.019      346.089       24.086      858.804
09/17/2014  02:20:00      -92.454       54.632      -15.189       26.522       22.010       20.785      703.410      484.454      432.031        0.669        0.081      107.389       13.248        0.015      346.133       24.160      858.781
09/17/2014  02:21:00      -54.636       86.802      -17.422       30.281       26.346       16.689      916.913      694.137      278.532        0.636        0.094      102.565       15.462        0.023      346.219       24.309      858.786
09/17/2014  02:22:00      -41.763       67.830      -13.149       21.084       24.678       14.220      444.555      609.001      202.196        0.389        0.063       79.656       12.074        0.023      346.063       24.040      858.786
09/17/2014  02:23:00      -81.135       56.523      -14.196       19.948       43.267       16.964      397.913     1872.024      287.776        0.627        0.128       98.882       20.840        0.044      346.134       24.162      858.788
09/17/2014  02:24:00      -24.166       57.099        0.795       19.053       29.518       16.533      363.004      871.293      273.326        0.268        0.075       62.002       14.624        0.056      346.093       24.093      858.788
09/17/2014  02:25:00      -36.761       95.432      -13.298       26.924       44.919       15.920      724.912     2017.720      253.438        0.682        0.150      102.268       12.502        0.015      345.999       23.930      858.796
09/17/2014  02:26:00      -34.186       76.475       -6.690       28.095       29.453       18.521      789.326      867.484      343.015        0.453        0.100       83.768       18.840        0.051      345.886       23.737      858.811
09/17/2014  02:27:00      -11.281      122.414      -21.464       25.684       58.302       12.501      659.680     3399.088      156.277        0.989        0.211      122.933       18.955        0.024      345.926       23.806      858.812
09/17/2014  02:28:00       31.104      137.106      -13.275       35.759       42.810       34.434     1278.741     1832.668     1185.717        1.212        0.215      140.590       30.943        0.048      345.824       23.631      858.802
09/17/2014  02:29:00       49.940       62.747        1.479       57.702       41.215       26.877     3329.531     1698.689      722.389        0.609        0.288       80.195       23.207        0.084      345.645       23.323      858.787
09/17/2014  02:30:00      110.608       60.789        8.982       40.448       43.288       30.273     1636.080     1873.856      916.482        1.022        0.221      126.212       19.872        0.025      345.577       23.207      858.785
09/17/2014  02:31:00      149.259       94.240        6.202       42.472       32.086       30.268     1803.871     1029.523      916.158        1.747        0.187      176.520       22.492        0.016      345.566       23.187      858.774
09/17/2014  02:32:00      135.251       76.975        3.090       46.705       45.229       29.497     2181.389     2045.645      870.067        1.466        0.255      155.622       23.809        0.023      345.509       23.089      858.750
09/17/2014  02:33:00      134.764       94.039        8.000       61.970       34.989       36.802     3840.288     1224.256     1354.359        1.674        0.321      164.331       31.585        0.037      345.593       23.232      858.721
09/17/2014  02:34:00      131.149       89.599       24.286       57.336       37.900       34.184     3287.423     1436.402     1168.537        1.585        0.295      158.833       34.466        0.047      345.717       23.445      858.706
09/17/2014  02:35:00      107.689       73.511        5.089       51.924       44.877       31.670     2696.051     2013.920     1002.967        1.137        0.286      130.387       26.676        0.042      345.774       23.544      858.705
09/17/2014  02:36:00       55.758       15.923        9.681       32.382       29.658       20.874     1048.562      879.619      435.706        0.291        0.118       57.987       18.001        0.096      345.563       23.181      858.717
09/17/2014  02:37:00        0.284      -47.049       -0.248       36.805       38.992       17.163     1354.598     1520.337      294.579        0.269        0.158       47.049        7.601        0.026      345.582       23.214      858.735
09/17/2014  02:38:00       -6.195      -49.155       -6.337       21.357       19.555       14.856      456.143      382.408      220.688        0.178        0.053       49.543       12.934        0.068      345.518       23.104      858.739
09/17/2014  02:39:00       -8.431      -55.621        5.691       40.742       39.597       21.106     1659.930     1567.948      445.459        0.343        0.184       56.257       22.087        0.154      345.555       23.171      858.723
09/17/2014  02:40:00     -101.387      -96.430       -7.951       27.160       43.276       17.964      737.671     1872.794      322.690        1.129        0.147      139.921       14.393        0.011      345.784       23.563      858.705
09/17/2014  02:41:00      -88.916      -49.444       -5.651       46.478       26.155       18.626     2160.197      684.065      346.921        0.679        0.160      101.739       17.749        0.030      345.693       23.405      858.708
09/17/2014  02:42:00      -64.673      -51.525        1.067       23.784       28.033       11.925      565.666      785.849      142.211        0.417        0.075       82.689        6.064        0.005      345.911       23.780      858.726
09/17/2014  02:43:00      -73.773      -37.786        2.764       27.915       19.172       16.313      779.229      367.563      266.119        0.415        0.071       82.887       13.872        0.028      345.762       23.525      858.736
09/17/2014  02:44:00      -70.642      -34.612       -3.099       19.710       20.672        9.954      388.501      427.329       99.082        0.356        0.046       78.665        9.657        0.015      345.806       23.601      858.746
09/17/2014  02:45:00      -75.741      -12.287       -0.607       22.961       26.773       15.093      527.198      716.774      227.809        0.368        0.074       76.732       12.062        0.025      345.620       23.281      858.749
09/17/2014  02:46:00      -96.926      -22.825        0.511       46.131       25.768       18.218     2128.036      663.975      331.901        0.652        0.156       99.577       13.567        0.019      345.757       23.515      858.753
09/17/2014  02:47:00      -17.571      -74.988       10.894       27.676       30.411       16.846      765.939      924.856      283.793        0.401        0.099       77.019       13.670        0.032      346.050       24.018      858.759
09/17/2014  02:48:00       26.397      -18.380       10.453       30.505       45.802       34.599      930.531     2097.841     1197.113        0.268        0.211       32.165       32.963        1.050      345.635       23.306      858.749
09/17/2014  02:49:00       47.931       49.320       36.615       23.065       23.737       29.549      532.012      563.468      873.166        0.402        0.098       68.774        9.084        0.017      345.625       23.288      858.742
09/17/2014  02:50:00       20.128        7.956       14.566       39.274       21.841       24.313     1542.463      477.011      591.105        0.165        0.131       21.644       18.928        0.765      345.709       23.434      858.731
09/17/2014  02:51:00      -10.758        3.352       10.781       12.161       15.229       12.279      147.882      231.933      150.782        0.039        0.027       11.268        7.137        0.401      345.842       23.661      858.725
09/17/2014  02:52:00      -78.750       11.591       -1.426       21.650       19.768       10.946      468.741      390.770      119.807        0.366        0.049       79.599        8.782        0.012      345.625       23.289      858.715
09/17/2014  02:53:00     -112.033       38.067      -11.684       22.593       14.396       12.542      510.436      207.256      157.291        0.751        0.044      118.324        9.635        0.007      345.650       23.332      858.704
09/17/2014  02:54:00      -76.489       59.950      -10.559       27.963       29.841       18.626      781.920      890.487      346.915        0.579        0.101       97.183       14.819        0.023      346.008       23.947      858.697
09/17/2014  02:55:00      -92.330       46.139       -6.965       49.102       36.079       27.523     2411.054     1301.718      757.536        0.759        0.224      103.216       23.279        0.051      345.714       23.441      858.710
09/17/2014  02:56:00      -91.886       65.467      -16.792       28.680       33.609       21.188      822.554     1129.536      448.934        0.771        0.120      112.823       14.475        0.016      346.372       24.571      858.719
09/17/2014  02:57:00      -81.511       67.508      -11.264       34.415       44.242       17.309     1184.383     1957.386      299.602        0.738        0.172      105.837       15.310        0.021      346.152       24.196      858.704
09/17/2014  02:58:00      -71.937       66.413      -17.202       37.632       23.551       19.728     1416.204      554.631      389.174        0.612        0.118       97.906       15.138        0.024      346.107       24.117      858.684
09/17/2014  02:59:00       10.529      -20.223       16.889       18.868       31.422       16.950      356.001      987.317      287.318        0.122        0.082       22.799       11.011        0.233      345.876       23.721      858.690
09/17/2014  03:00:00      -99.357       26.438       -9.182       50.312       51.154       23.222     2531.306     2616.698      539.273        0.817        0.284      102.814       21.673        0.044      346.062       24.039      858.686
09/17/2014  03:01:00      -88.488      -80.743        8.775       68.835       79.321       38.646     4738.232     6291.805     1493.529        1.347        0.626      119.790       44.231        0.136      346.245       24.352      858.699
09/17/2014  03:02:00     -214.957     -117.378        1.669      124.705       78.941       48.283    15551.233     6231.756     2331.287        4.205        1.206      244.916       49.670        0.041      346.165       24.211      858.711
09/17/2014  03:03:00      -87.535      -50.918        7.586       75.115       66.982       39.274     5642.317     4486.650     1542.456        1.099        0.584      101.267       39.094        0.149      346.244       24.351      858.705
09/17/2014  03:04:00     -242.568      -76.724      -14.633       83.677       67.400       41.710     7001.878     4542.745     1739.701        3.911        0.664      254.412       42.317        0.028      346.168       24.218      858.672
09/17/2014  03:05:00     -225.126      -66.067      -13.968      109.482       70.515       43.944    11986.219     4972.302     1931.117        3.706        0.944      234.620       49.936        0.045      346.143       24.177      858.664
09/17/2014  03:06:00     -147.776      -50.321       -5.452       65.013       59.168       31.005     4226.663     3500.813      961.309        1.654        0.434      156.109       31.250        0.040      345.930       23.810      858.662
09/17/2014  03:07:00     -119.187      -37.594        0.492       57.161       72.016       38.038     3267.416     5186.345     1446.912        1.276        0.495      124.976       34.969        0.078      345.872       23.712      858.651
09/17/2014  03:08:00     -180.922      -54.917        0.313       64.134       58.377       36.805     4113.147     3407.831     1354.635        2.231        0.444      189.073       31.577        0.028      345.953       23.850      858.649
09/17/2014  03:09:00     -156.663      -46.585       -4.565       74.805       56.892       29.804     5595.714     3236.738      888.259        1.823        0.486      163.443       25.416        0.024      346.122       24.140      858.627
09/17/2014  03:10:00     -178.477        7.168      -15.455       47.528       41.597       26.383     2258.879     1730.292      696.072        1.841        0.234      178.621       22.585        0.016      346.177       24.234      858.596
09/17/2014  03:11:00     -134.934       17.783       -6.618       35.023       38.865       22.479     1226.636     1510.480      505.312        1.090        0.162      136.101       17.033        0.016      346.058       24.032      858.584
09/17/2014  03:12:00      -89.295       52.928      -11.463       32.125       37.675       19.137     1032.009     1419.380      366.237        0.686        0.141      103.803       15.355        0.022      346.002       23.938      858.587
09/17/2014  03:13:00      -71.468       55.460      -16.177       28.328       25.221       13.229      802.465      636.094      175.019        0.503        0.081       90.463       14.486        0.026      346.195       24.266      858.593
09/17/2014  03:14:00      -77.223       -7.595       -8.205       45.576       32.432       15.620     2077.138     1051.866      243.971        0.473        0.169       77.596       17.982        0.054      346.049       24.018      858.597
09/17/2014  03:15:00     -204.337      -68.568       -8.393       77.080       72.901       38.763     5941.267     5314.620     1502.536        2.964        0.638      215.534       36.099        0.028      345.901       23.760      858.590
09/17/2014  03:16:00     -235.217       -3.334      -25.440       70.863       63.565       34.481     5021.586     4040.495     1188.910        3.312        0.513      235.241       33.183        0.020      346.083       24.072      858.574
09/17/2014  03:17:00     -138.634       44.438       -9.976       55.508       47.521       28.861     3081.180     2258.277      832.944        1.373        0.309      145.582       26.949        0.034      346.049       24.017      858.554
09/17/2014  03:18:00     -135.885       20.724       -8.303       52.192       71.114       33.314     2724.039     5057.227     1109.851        1.393        0.445      137.456       25.109        0.033      346.176       24.233      858.532
09/17/2014  03:19:00      -75.890       50.670       -8.690       43.556       31.454       22.272     1897.083      989.343      496.047        0.589        0.169       91.251       19.612        0.046      345.921       23.798      858.540
09/17/2014  03:20:00      -72.993       -1.818        3.119       30.214       32.273       14.468      912.856     1041.539      209.327        0.375        0.108       73.015       16.787        0.053      345.956       23.858      858.550
09/17/2014  03:21:00      -44.251      -46.694        8.572       38.821       43.317       24.978     1507.091     1876.326      623.908        0.411        0.200       64.331       23.177        0.130      345.861       23.693      858.559
09/17/2014  03:22:00      -87.218      -38.241        0.659       39.201       36.076       23.443     1536.748     1301.495      549.556        0.623        0.169       95.234       21.830        0.053      345.883       23.731      858.556
09/17/2014  03:23:00     -101.302      -72.744       -7.596       22.599       34.272       21.549      510.728     1174.589      464.342        0.888        0.107      124.714       14.146        0.013      345.887       23.739      858.547
09/17/2014  03:24:00      -71.010      -44.915       -0.589       45.590       30.947       17.034     2078.494      957.696      290.144        0.519        0.166       84.023       21.548        0.066      345.895       23.752      858.546
09/17/2014  03:25:00        2.960      -65.303        0.212       41.809       32.240       31.249     1747.973     1039.409      976.511        0.402        0.188       65.370       25.170        0.148      345.906       23.771      858.534
09/17/2014  03:26:00      -46.864      -47.220      -10.219       59.195       33.663       14.681     3504.006     1133.193      215.536        0.469        0.243       66.528       16.514        0.062      345.915       23.785      858.511
09/17/2014  03:27:00       22.443       24.115       21.318       33.045       47.758       26.044     1091.999     2280.846      678.284        0.279        0.203       32.943       29.298        0.791      345.657       23.344      858.492
09/17/2014  03:28:00       -6.632       10.626        3.504       24.730       16.337       13.101      611.593      266.912      171.631        0.061        0.053       12.526       13.277        1.124      345.501       23.077      858.497
09/17/2014  03:29:00      -45.731       -1.107       -5.475       10.302        8.373        8.065      106.140       70.105       65.052        0.118        0.012       45.744        5.404        0.014      345.675       23.377      858.527
09/17/2014  03:30:00      -15.379      -11.061      -10.694       24.419       15.410        6.453      596.291      237.483       41.645        0.067        0.044       18.944        8.568        0.205      345.508       23.088      858.553
09/17/2014  03:31:00       19.131       28.462       14.516       20.468       10.803       14.689      418.943      116.697      215.768        0.107        0.038       34.294        4.667        0.019      345.470       23.021      858.539
09/17/2014  03:32:00        3.130       42.223       52.437       23.070       28.470       18.221      532.214      810.516      331.994        0.311        0.084       42.339       15.289        0.130      345.246       22.638      858.518
09/17/2014  03:33:00       28.755       68.531       66.704       29.654       36.918       14.173      879.365     1362.906      200.880        0.621        0.122       74.320       15.914        0.046      345.214       22.585      858.479
09/17/2014  03:34:00       15.213      -17.399       25.086       24.915       32.733       22.422      620.746     1071.447      502.768        0.168        0.110       23.112       12.951        0.314      345.182       22.531      858.474
09/17/2014  03:35:00      -19.745      -74.988       -9.296       21.385       23.694       17.388      457.336      561.408      302.332        0.371        0.066       77.544       13.258        0.029      345.274       22.688      858.484
09/17/2014  03:36:00      -54.089      -53.345        0.932       42.745       24.989       18.578     1827.098      624.434      345.158        0.428        0.140       75.969       18.553        0.060      345.433       22.959      858.488
09/17/2014  03:37:00      -80.363      -61.512       -1.542       31.525       32.163       16.761      993.856     1034.439      280.914        0.628        0.115      101.203       16.036        0.025      345.563       23.184      858.510
09/17/2014  03:38:00      -12.448      -68.996        3.870       12.033       15.721       10.822      144.804      247.159      117.122        0.272        0.025       70.110        7.194        0.011      345.679       23.382      858.523
09/17/2014  03:39:00       14.258        4.157       12.534       18.249       33.257       13.166      333.043     1106.011      173.333        0.099        0.081       14.852       17.059        1.319      345.307       22.746      858.508
09/17/2014  03:40:00       55.929       40.655        9.719       17.181       12.828       14.214      295.184      164.548      202.049        0.277        0.033       69.144        5.038        0.005      345.282       22.700      858.485
09/17/2014  03:41:00       51.896       37.690       33.574       37.432       22.538       27.210     1401.123      507.973      740.374        0.394        0.132       64.138       26.891        0.176      345.313       22.754      858.466
09/17/2014  03:42:00       -0.582       53.425       84.021       21.507       37.661       16.864      462.568     1418.330      284.393        0.604        0.108       53.428       19.329        0.131      345.273       22.685      858.471
09/17/2014  03:43:00       48.411      -47.202        0.564       43.826       63.860       48.425     1920.674     4078.139     2344.948        0.646        0.417       67.614       40.679        0.362      345.215       22.585      858.517
09/17/2014  03:44:00       57.123      -56.911       -6.598       46.057       40.852       26.803     2121.221     1668.896      718.393        0.553        0.225       80.634       29.973        0.138      345.339       22.798      858.548
09/17/2014  03:45:00        1.205        3.598        8.193       23.698       15.539       13.059      561.600      241.447      170.533        0.053        0.049        3.794       10.955        8.338      345.151       22.477      858.539
09/17/2014  03:46:00      -46.819        0.914       -4.593        9.302        8.441        8.387       86.527       71.246       70.345        0.122        0.011       46.828        3.853        0.007      345.259       22.662      858.533
09/17/2014  03:47:00      -32.080        1.413       -0.689       10.878        9.731        6.664      118.327       94.689       44.408        0.064        0.013       32.111        5.090        0.025      345.319       22.766      858.523
09/17/2014  03:48:00      -25.442       16.767       -0.722       12.888        8.083        6.549      166.111       65.337       42.888        0.060        0.014       30.471        5.057        0.028      345.229       22.610      858.511
09/17/2014  03:49:00       23.349        8.139        3.526       22.081        9.660        5.941      487.556       93.307       35.296        0.062        0.031       24.727        7.929        0.103      345.229       22.611      858.493
09/17/2014  03:50:00       25.208       52.437       41.145       38.316       28.864       21.696     1468.134      833.126      470.700        0.392        0.139       58.181       22.553        0.150      345.171       22.509      858.475
09/17/2014  03:51:00      -10.375       -8.148       27.995       19.189       21.488       23.684      368.236      461.724      560.953        0.117        0.070       13.192       15.420        1.366      344.957       22.145      858.514
09/17/2014  03:52:00       17.507      -30.521      -12.669       27.151       14.120       11.734      737.201      199.387      137.694        0.124        0.054       35.185       10.655        0.092      345.141       22.460      858.564
09/17/2014  03:53:00       16.448      -16.721       -2.883       26.850       19.455       15.678      720.900      378.493      245.814        0.095        0.067       23.455        9.841        0.176      345.174       22.518      858.577
09/17/2014  03:54:00       -1.390       -6.336       11.838       13.859       22.846       12.339      192.073      521.918      152.241        0.052        0.043        6.487       11.580        3.187      345.253       22.649      858.580
09/17/2014  03:55:00      -11.840       14.284        0.582       15.370       10.586        9.143      236.230      112.067       83.597        0.039        0.022       18.553        8.409        0.205      345.069       22.336      858.590
09/17/2014  03:56:00      -40.426      -30.218       -5.924       14.835       21.905        6.644      220.078      479.814       44.146        0.166        0.037       50.472        2.991        0.004      344.889       22.028      858.610
09/17/2014  03:57:00      -60.140      -25.044       -5.115       18.476       20.135        7.487      341.378      405.431       56.054        0.254        0.040       65.146        8.163        0.016      344.834       21.932      858.618
09/17/2014  03:58:00      -71.337      -44.502       -4.334       28.708       18.417       11.711      824.139      339.185      137.139        0.419        0.065       84.080       12.958        0.024      344.776       21.835      858.645
09/17/2014  03:59:00     -105.773      -43.552       -8.739       30.212       28.204       16.934      912.778      795.459      286.775        0.758        0.100      114.388       15.425        0.018      344.866       21.988      858.670
09/17/2014  04:00:00      -26.038      -11.112       17.697       25.913       31.079       14.816      671.462      965.917      219.499        0.149        0.093       28.310       14.647        0.268      344.673       21.659      858.676
09/17/2014  04:01:00      -82.092      -43.922        5.038       49.213       31.580       20.290     2421.932      997.276      411.698        0.626        0.192       93.103       15.528        0.028      344.797       21.870      858.690
09/17/2014  04:02:00     -107.082      -33.387        1.781       33.469       33.716       21.234     1120.202     1136.791      450.900        0.765        0.135      112.166       20.467        0.033      344.994       22.207      858.687
09/17/2014  04:03:00      -71.369      -19.146        3.499       29.739       23.273       12.883      884.383      541.643      165.965        0.353        0.080       73.893       11.869        0.026      345.183       22.532      858.659
09/17/2014  04:04:00      -34.659       10.108       -1.385        7.413       11.070        4.613       54.950      122.555       21.279        0.075        0.010       36.103        3.673        0.010      345.321       22.768      858.621
09/17/2014  04:05:00       -4.232        2.108       -0.550       10.312        5.900        4.430      106.347       34.816       19.628        0.009        0.008        4.728        2.709        0.328      345.227       22.605      858.598
09/17/2014  04:06:00       13.911       -2.732       -4.352        9.789        9.871        7.444       95.819       97.440       55.407        0.023        0.012       14.176        6.684        0.222      345.279       22.696      858.613
09/17/2014  04:07:00       -5.741        6.513       16.523       10.084       20.592       12.949      101.690      424.010      167.673        0.052        0.035        8.682       11.050        1.620      344.718       21.735      858.641
09/17/2014  04:08:00      -42.110      -40.165       -9.051       33.748       18.475       10.278     1138.923      341.324      105.632        0.253        0.079       58.194       11.134        0.037      344.944       22.124      858.679
09/17/2014  04:09:00     -120.448      -49.901       -2.429       28.451       29.485       15.741      809.449      869.353      247.780        0.946        0.096      130.376       14.260        0.012      344.623       21.573      858.700
09/17/2014  04:10:00      -31.672      -48.935        6.322       32.210       22.364       17.564     1037.469      500.164      308.481        0.264        0.092       58.290       15.465        0.070      344.615       21.559      858.713
09/17/2014  04:11:00      -30.663      -45.620        2.879       17.801       14.463        8.400      316.862      209.181       70.566        0.181        0.030       54.967        6.485        0.014      344.933       22.104      858.698
09/17/2014  04:12:00      -27.020      -30.269       -1.021       16.231       17.446        6.041      263.436      304.365       36.490        0.113        0.030       40.574        6.065        0.022      345.327       22.778      858.670
09/17/2014  04:13:00        4.323       28.262      -10.711       10.771       17.939        8.181      116.018      321.819       66.935        0.072        0.025       28.591        9.262        0.105      345.435       22.963      858.645
09/17/2014  04:14:00        7.659       10.159       -1.077       10.640       17.927       10.274      113.205      321.375      105.546        0.035        0.027       12.723        4.570        0.129      345.507       23.086      858.628
09/17/2014  04:15:00       40.476       38.664       32.614       35.901       38.782       26.705     1288.892     1504.037      713.152        0.385        0.175       55.975       24.951        0.199      344.903       22.052      858.624
09/17/2014  04:16:00       74.247       30.838       19.632       45.436       31.125       25.750     2064.402      968.765      663.037        0.527        0.185       80.396       15.974        0.039      344.446       21.272      858.628
09/17/2014  04:17:00      111.782       57.959        9.917       41.851       30.677       24.301     1751.465      941.108      590.526        0.962        0.164      125.914        7.990        0.004      344.497       21.357      858.618
09/17/2014  04:18:00       93.153       75.897        3.617       35.020       26.592       18.950     1226.368      707.145      359.085        0.837        0.115      120.157       11.150        0.009      344.610       21.551      858.624
09/17/2014  04:19:00       96.323       62.999        3.348       39.356       28.323       27.549     1548.881      802.172      758.967        0.818        0.156      115.095       19.526        0.029      344.705       21.714      858.611
09/17/2014  04:20:00      123.568       63.830       11.575       39.133       24.418       22.688     1531.357      596.250      514.743        1.106        0.132      139.081        8.289        0.004      344.816       21.903      858.583
09/17/2014  04:21:00       78.837       74.148       41.546       36.474       24.495       30.130     1330.334      599.989      907.809        0.814        0.142      108.228       24.097        0.050      344.844       21.951      858.562
09/17/2014  04:22:00       44.179       93.605       66.986       39.771       25.205       32.920     1581.763      635.310     1083.708        0.925        0.165      103.507       33.463        0.105      344.593       21.521      858.539
09/17/2014  04:23:00       66.203       42.784       -6.278       27.725       20.127       19.909      768.701      405.100      396.371        0.391        0.079       78.824       14.983        0.036      344.386       21.170      858.548
09/17/2014  04:24:00       54.344       38.579        7.002       31.612       25.181       16.340      999.295      634.067      266.996        0.320        0.095       66.646       12.646        0.036      344.548       21.446      858.549
09/17/2014  04:25:00      111.004       44.853       22.421       36.556       26.417       22.605     1336.315      697.847      511.001        0.869        0.127      119.723       18.935        0.025      344.749       21.789      858.513
09/17/2014  04:26:00       40.596       34.558       35.427       54.493       27.258       22.474     2969.465      743.020      505.075        0.416        0.211       53.314       25.947        0.237      344.733       21.761      858.502
09/17/2014  04:27:00       -0.121       28.169       31.582       17.896       24.063       18.678      320.261      579.048      348.850        0.152        0.062       28.169       16.423        0.340      344.791       21.862      858.522
09/17/2014  04:28:00      -82.880        0.335       -4.526       46.909       48.234       26.138     2200.479     2326.504      683.212        0.605        0.261       82.881       15.771        0.036      344.364       21.129      858.547
09/17/2014  04:29:00      -80.263      -25.446        1.358       44.725       39.487       16.664     2000.335     1559.206      277.677        0.546        0.192       84.200       15.740        0.035      344.225       20.894      858.557
09/17/2014  04:30:00       30.287       32.547        6.444       26.593       19.415       15.197      707.175      376.957      230.940        0.167        0.066       44.459        9.241        0.043      344.782       21.845      858.529
09/17/2014  04:31:00      -35.517        0.534       -5.286       26.967       34.182       15.819      727.227     1168.378      250.237        0.172        0.107       35.521       13.282        0.140      344.657       21.632      858.506
09/17/2014  04:32:00       -1.259      -35.043        6.871       14.722       20.926       12.864      216.737      437.881      165.481        0.105        0.041       35.066       10.125        0.083      344.651       21.621      858.474
09/17/2014  04:33:00        7.431      -50.648        5.188       14.668       18.665       15.760      215.153      348.381      248.367        0.173        0.041       51.190       14.179        0.077      344.831       21.931      858.443
09/17/2014  04:34:00       12.504       -8.457        1.990       10.019       19.897        8.331      100.380      395.882       69.400        0.040        0.028       15.095        7.127        0.223      344.669       21.651      858.457
09/17/2014  04:35:00       30.617        8.585       12.602       17.745       19.759       25.998      314.889      390.431      675.884        0.128        0.069       31.798       22.108        0.483      344.644       21.609      858.482
09/17/2014  04:36:00       46.435       45.550       50.459       38.981       32.156       30.968     1519.497     1034.037      959.022        0.514        0.176       65.046       24.377        0.140      344.857       21.973      858.491
09/17/2014  04:37:00       67.419       52.091       -0.861       20.868       26.874       19.859      435.491      722.238      394.393        0.441        0.078       85.198       12.878        0.023      345.094       22.379      858.503
09/17/2014  04:38:00      108.654       55.929       -3.712       24.301       13.378       11.796      590.548      178.958      139.145        0.793        0.045      122.204        8.579        0.005      345.207       22.571      858.513
09/17/2014  04:39:00       78.493       40.503       20.369       38.493       32.354       34.801     1481.702     1046.795     1211.099        0.598        0.187       88.327       30.546        0.120      345.011       22.239      858.528
09/17/2014  04:40:00       40.892       24.980       17.469       37.925       21.050       15.992     1438.329      443.118      255.755        0.237        0.107       47.918       11.823        0.061      344.794       21.865      858.537
09/17/2014  04:41:00       -5.930      -10.988       -4.956       18.167       23.808       12.510      330.044      566.829      156.512        0.062        0.053       12.486       12.753        1.043      344.857       21.974      858.539
09/17/2014  04:42:00      -15.193       -5.090        4.894       21.287       17.984       14.056      453.145      323.418      197.565        0.063        0.049       16.023        9.637        0.362      344.654       21.626      858.529
09/17/2014  04:43:00       -8.631      -31.785       -3.235       11.447       11.483       11.568      131.031      131.858      133.811        0.075        0.020       32.936        5.399        0.027      344.687       21.682      858.513
09/17/2014  04:44:00       -8.578        2.096        6.719       14.493       11.959        9.362      210.033      143.012       87.648        0.028        0.022        8.830        7.830        0.786      344.611       21.552      858.507
09/17/2014  04:45:00      -21.316        0.527       -8.883        9.295       11.427        7.032       86.389      130.581       49.446        0.040        0.013       21.323        4.573        0.046      344.600       21.534      858.513
09/17/2014  04:46:00      -15.669       -8.837       -1.144        8.318        4.726        6.001       69.192       22.339       36.014        0.023        0.006       17.989        5.126        0.081      344.626       21.580      858.526
09/17/2014  04:47:00      -39.533      -14.708       -2.163       15.239        8.309        6.688      232.239       69.032       44.726        0.106        0.017       42.180        4.166        0.010      344.640       21.602      858.547
09/17/2014  04:48:00      -69.809       -4.833       -8.857       18.229       12.300        9.895      332.297      151.279       97.902        0.278        0.029       69.976        5.669        0.007      344.514       21.387      858.559
09/17/2014  04:49:00      -99.521      -14.750       -6.359       38.099       25.384       20.504     1451.505      644.347      420.432        0.634        0.126      100.609       21.772        0.047      344.338       21.086      858.542
09/17/2014  04:50:00     -146.269      -27.591        2.846       53.421       37.610       26.705     2853.826     1414.490      713.176        1.357        0.249      148.848       27.876        0.035      344.257       20.947      858.513
09/17/2014  04:51:00     -142.791      -54.015       -3.984       38.224       41.257       21.811     1461.099     1702.140      475.734        1.348        0.182      152.666       17.937        0.014      344.370       21.140      858.495
09/17/2014  04:52:00      -75.574      -24.112        3.227       35.022       36.279       19.241     1226.546     1316.154      370.197        0.461        0.146       79.327       17.173        0.047      344.323       21.060      858.505
09/17/2014  04:53:00      -16.038      -71.667       -0.075       18.813       18.002       10.233      353.924      324.082      104.720        0.309        0.039       73.440        9.614        0.017      344.449       21.276      858.512
09/17/2014  04:54:00      -38.155      -95.918        7.027       19.872       19.268       18.679      394.893      371.260      348.904        0.591        0.056      103.228       13.944        0.018      344.566       21.477      858.528
09/17/2014  04:55:00      -10.181      -70.613        9.565       25.760       31.291       26.102      663.580      979.138      681.295        0.375        0.116       71.343       15.724        0.049      344.556       21.458      858.543
09/17/2014  04:56:00       12.943      -19.267        6.671       35.103       23.998       26.018     1232.208      575.913      676.923        0.153        0.124       23.211       21.080        0.825      344.365       21.134      858.553
09/17/2014  04:57:00       58.327      -53.838      -10.775       44.747       43.407       36.685     2002.280     1884.155     1345.791        0.582        0.262       79.376       37.752        0.226      344.239       20.916      858.551
09/17/2014  04:58:00      106.808     -122.473      -26.356       31.784       46.272       16.927     1010.207     2141.063      286.535        1.527        0.172      162.504        9.823        0.004      344.511       21.382      858.536
09/17/2014  04:59:00       20.541       16.005       41.250       26.287       31.069       29.428      691.019      965.273      865.998        0.245        0.126       26.041       19.693        0.572      344.254       20.943      858.507
09/17/2014  05:00:00       45.849        6.109       44.317       38.207       40.202       28.697     1459.769     1616.170      823.523        0.400        0.195       46.254       20.873        0.204      344.274       20.976      858.477
09/17/2014  05:01:00        7.926        4.921       52.264       28.580       53.240       35.069      816.828     2834.468     1229.841        0.385        0.244        9.329       24.687        7.003      344.473       21.318      858.472
09/17/2014  05:02:00       23.174        5.396       59.521       45.026       55.333       37.126     2027.324     3061.747     1378.307        0.529        0.323       23.794       29.511        1.538      344.576       21.493      858.483
09/17/2014  05:03:00       26.391       10.667       66.307       43.532       68.949       42.068     1895.021     4753.955     1769.731        0.681        0.421       28.466       36.266        1.623      344.632       21.589      858.483
09/17/2014  05:04:00       41.242       47.833       83.065       46.034       44.044       31.135     2119.159     1939.910      969.409        0.796        0.251       63.157       24.771        0.154      344.535       21.424      858.488
09/17/2014  05:05:00       13.818       53.751       79.582       39.200       47.770       27.000     1536.621     2281.984      728.980        0.698        0.227       55.499       28.265        0.259      344.574       21.491      858.501
09/17/2014  05:06:00       22.966       -1.886       35.000       42.308       42.930       27.782     1789.987     1843.022      771.858        0.308        0.220       23.043       27.084        1.381      344.546       21.441      858.487
09/17/2014  05:07:00       29.832      -19.636       19.507       38.298       22.299       15.359     1466.735      497.256      235.908        0.193        0.110       35.714        6.627        0.034      344.619       21.567      858.457
09/17/2014  05:08:00       68.554       41.282       13.736       26.687       27.017       18.995      712.191      729.920      360.819        0.420        0.090       80.024       16.208        0.041      344.603       21.540      858.453
09/17/2014  05:09:00       56.749       41.182        8.040       27.048       21.636       21.157      731.582      468.107      447.619        0.331        0.082       70.117       16.335        0.054      344.644       21.609      858.465
09/17/2014  05:10:00       21.102       23.839        3.249       22.623       26.057       11.724      511.800      678.965      137.453        0.118        0.066       31.837        9.484        0.089      344.639       21.600      858.493
09/17/2014  05:11:00      -15.795       40.738       -9.906       34.698       28.922        8.662     1203.965      836.494       75.026        0.206        0.106       43.693       12.852        0.087      344.506       21.373      858.503
09/17/2014  05:12:00       -7.302       41.389       -4.301       15.149       19.769        8.439      229.478      390.819       71.209        0.124        0.035       42.028        5.745        0.019      344.559       21.465      858.502
09/17/2014  05:13:00       -5.034       42.891       -5.796       15.416       21.285        6.466      237.657      453.060       41.806        0.132        0.037       43.185        6.276        0.021      344.671       21.655      858.504
09/17/2014  05:14:00      -11.148       60.449       -7.933       12.916       17.379        7.955      166.828      302.013       63.286        0.219        0.027       61.469        5.600        0.008      344.557       21.459      858.510
09/17/2014  05:15:00      -22.400       56.973       -5.383       16.691       22.034       12.561      278.580      485.498      157.786        0.235        0.046       61.218       11.976        0.038      344.445       21.268      858.531
09/17/2014  05:16:00      -42.881       23.677       -6.819       16.750       10.405        7.568      280.570      108.268       57.276        0.145        0.022       48.984        6.748        0.019      344.278       20.983      858.547
09/17/2014  05:17:00      -48.296        4.108       -6.390       10.293       15.679        6.243      105.946      245.824       38.972        0.139        0.020       48.470        6.432        0.018      344.301       21.023      858.553
09/17/2014  05:18:00      -66.126      -26.820      -12.260        7.978        7.112        5.717       63.654       50.584       32.685        0.269        0.007       71.358        3.380        0.002      344.144       20.755      858.566
09/17/2014  05:19:00      -65.506      -38.994       -5.459       19.447       12.470       12.744      378.182      155.502      162.421        0.327        0.035       76.234        8.706        0.013      344.052       20.596      858.572
09/17/2014  05:20:00      -15.481      -22.660        2.573       13.861        8.647       12.793      192.134       74.765      163.658        0.060        0.022       27.443        4.338        0.025      344.014       20.531      858.597
09/17/2014  05:21:00      -39.297      -37.934       -4.937       14.883       15.235       11.952      221.500      232.112      142.858        0.180        0.030       54.619        8.369        0.023      344.156       20.775      858.596
09/17/2014  05:22:00      -80.309      -45.886      -11.242       10.463        8.975        7.597      109.477       80.551       57.711        0.446        0.012       92.494        3.522        0.001      344.265       20.960      858.604
09/17/2014  05:23:00      -76.818      -34.516      -10.885        7.588        7.086        6.833       57.584       50.211       46.691        0.368        0.008       84.216        4.095        0.002      344.341       21.091      858.595
09/17/2014  05:24:00      -71.085       -5.485      -10.810        7.177       15.774        5.492       51.510      248.830       30.158        0.277        0.017       71.296        7.675        0.012      344.311       21.042      858.584
09/17/2014  05:25:00      -46.299       10.409       -9.239        7.224        7.357        5.921       52.191       54.127       35.061        0.124        0.007       47.455        3.944        0.007      344.284       20.994      858.581
09/17/2014  05:26:00      -36.018       22.812       -8.751       10.822       11.423        9.292      117.106      130.486       86.334        0.111        0.017       42.634        5.950        0.019      344.336       21.083      858.574
09/17/2014  05:27:00        1.569       35.869       -5.737       13.561       11.333        7.050      183.912      128.429       49.700        0.084        0.018       35.904        4.862        0.018      344.549       21.447      858.582
09/17/2014  05:28:00      -13.040       51.560        2.099       18.576       21.282       14.252      345.056      452.920      203.114        0.192        0.050       53.183       11.676        0.048      344.613       21.556      858.587
09/17/2014  05:29:00        6.181       21.768        6.675       15.487       11.207       13.479      239.862      125.594      181.696        0.055        0.027       22.629       10.270        0.206      344.524       21.405      858.595
09/17/2014  05:30:00      -20.673        9.243       -2.106       29.935       18.887        8.162      896.099      356.718       66.624        0.092        0.066       22.645        7.129        0.099      344.470       21.310      858.589
09/17/2014  05:31:00      -67.713      -12.588      -13.293        5.586        9.625        6.037       31.206       92.639       36.443        0.254        0.008       68.873        2.295        0.001      343.971       20.461      858.587
09/17/2014  05:32:00     -114.907      -27.535      -12.478       32.675       19.030       10.983     1067.629      362.130      120.630        0.783        0.078      118.160        8.580        0.005      343.760       20.099      858.578
09/17/2014  05:33:00     -118.202      -70.300       -9.008       45.303       28.054       21.294     2052.388      787.010      453.421        1.114        0.165      137.527       18.275        0.018      343.712       20.016      858.573
09/17/2014  05:34:00     -134.218      -71.732       -3.401       59.078       36.871       19.058     3490.179     1359.496      363.223        1.419        0.261      152.184       17.289        0.013      343.665       19.935      858.581
09/17/2014  05:35:00     -181.319      -49.798       -5.027       60.616       35.498       24.773     3674.250     1260.118      613.718        2.046        0.277      188.033       25.669        0.019      343.844       20.239      858.593
09/17/2014  05:36:00     -127.517      -32.699       -2.110       44.577       37.148       27.680     1987.151     1379.999      766.173        1.073        0.207      131.642       26.838        0.042      343.816       20.195      858.611
09/17/2014  05:37:00     -126.834       18.924       -6.342       43.368       33.988       17.411     1880.770     1155.217      303.145        0.991        0.167      128.238       14.008        0.012      343.857       20.265      858.615
09/17/2014  05:38:00     -130.317       50.573       -6.578       43.949       25.452       24.289     1931.536      647.796      589.954        1.138        0.158      139.786       15.449        0.012      343.929       20.388      858.611
09/17/2014  05:39:00     -115.441       52.766      -12.266       42.818       18.691       20.424     1833.414      349.353      417.148        0.943        0.130      126.929        9.768        0.006      344.085       20.656      858.613
09/17/2014  05:40:00      -81.210       57.719      -17.279       27.202       37.829       19.442      739.938     1431.002      377.985        0.639        0.127       99.632       21.662        0.047      344.116       20.707      858.623
09/17/2014  05:41:00      -71.259       54.606      -14.343       24.223       26.216       19.065      586.763      687.281      363.470        0.495        0.082       89.775       15.926        0.031      344.238       20.917      858.610
09/17/2014  05:42:00      -39.220       90.861      -12.678       24.425       24.016       12.166      596.574      576.753      148.001        0.564        0.066       98.964       12.775        0.017      344.247       20.930      858.594
09/17/2014  05:43:00      -21.134       96.428      -11.621       16.621       17.534       13.967      276.257      307.443      195.080        0.533        0.039       98.716       13.644        0.019      344.341       21.091      858.578
09/17/2014  05:44:00      -18.063       85.840      -15.520       20.556       15.370       13.205      422.535      236.229      174.383        0.438        0.042       87.720        9.735        0.012      344.283       20.994      858.570
09/17/2014  05:45:00      -31.605       66.691      -17.023       18.796       17.479       10.664      353.285      305.500      113.728        0.325        0.039       73.801        7.331        0.010      344.417       21.221      858.567
09/17/2014  05:46:00      -12.943       75.258      -10.508       12.070       27.363        8.800      145.685      748.735       77.447        0.346        0.049       76.363       11.267        0.022      344.638       21.599      858.564
09/17/2014  05:47:00       10.337       73.800       -5.209       15.669       26.136       17.099      245.504      683.100      292.365        0.340        0.061       74.520       11.874        0.025      344.665       21.645      858.576
09/17/2014  05:48:00       33.240       22.454       -0.066       26.415       22.443       17.797      697.742      503.710      316.720        0.156        0.076       40.114       10.593        0.070      344.437       21.255      858.595
09/17/2014  05:49:00       17.023       17.118        1.036       12.913        9.411       10.985      166.752       88.564      120.660        0.048        0.019       24.141        5.374        0.050      344.100       20.680      858.609
09/17/2014  05:50:00      -24.440       48.140       -4.936       21.873       29.092       12.414      478.426      846.338      154.097        0.221        0.074       53.989       10.747        0.040      344.288       20.999      858.608
09/17/2014  05:51:00      -67.100        1.669       -9.493       15.616       13.399        7.334      243.845      179.546       53.794        0.254        0.024       67.121        4.455        0.004      343.966       20.452      858.602
09/17/2014  05:52:00     -104.023       -2.852      -13.365       34.427       27.005       18.274     1185.210      729.273      333.932        0.663        0.112      104.063       14.767        0.020      343.665       19.935      858.608
09/17/2014  05:53:00     -104.821       -5.859      -10.129       52.517       34.957       23.981     2758.019     1222.024      575.072        0.784        0.228      104.985       27.394        0.068      343.536       19.717      858.618
09/17/2014  05:54:00     -100.293       -9.270       -5.437       40.332       21.478       18.522     1626.704      461.306      343.075        0.630        0.122      100.720       20.518        0.041      343.632       19.879      858.619
09/17/2014  05:55:00      -80.535      -22.361       -1.020       26.710       19.052       14.979      713.401      362.996      224.363        0.414        0.065       83.582       15.421        0.034      343.668       19.943      858.627
09/17/2014  05:56:00      -57.065      -25.948       -3.925       17.584       13.371        6.455      309.197      178.780       41.669        0.224        0.026       62.688        4.687        0.006      343.718       20.028      858.624
09/17/2014  05:57:00      -21.117       -4.698       -4.120       13.007       11.306        8.308      169.194      127.833       69.029        0.043        0.018       21.633        3.348        0.024      343.843       20.240      858.628
09/17/2014  05:58:00      -20.408      -18.035        1.452       11.417       14.548       11.466      130.353      211.648      131.463        0.061        0.024       27.235       11.012        0.163      343.940       20.406      858.628
09/17/2014  05:59:00      -44.323        4.530      -14.118        6.684       10.130        7.714       44.679      102.622       59.513        0.120        0.010       44.554        5.274        0.014      344.124       20.720      858.621
09/17/2014  06:00:00      -46.416        2.234       -9.074        8.175        6.656        6.534       66.838       44.304       42.691        0.120        0.008       46.469        3.864        0.007      344.090       20.662      858.610
09/17/2014  06:01:00      -30.550        0.246       -6.819        7.744        5.769        6.709       59.964       33.282       45.007        0.056        0.007       30.551        3.327        0.012      344.050       20.592      858.600
09/17/2014  06:02:00      -26.471        5.389       -6.630       12.064       10.971        9.961      145.534      120.357       99.230        0.057        0.018       27.014        7.108        0.069      344.176       20.809      858.595
09/17/2014  06:03:00       -9.929       -1.718        0.614       11.774       10.679        8.174      138.619      114.047       66.815        0.021        0.016       10.077        4.312        0.183      344.105       20.687      858.592
09/17/2014  06:04:00      -18.722        2.031       -4.709       22.480       14.287       10.960      505.372      204.117      120.112        0.060        0.041       18.832       11.180        0.352      344.210       20.867      858.589
09/17/2014  06:05:00      -28.648       -4.139       -2.775       13.319       14.137        9.822      177.391      199.866       96.467        0.066        0.024       28.945       10.038        0.120      344.144       20.756      858.589
09/17/2014  06:06:00      -23.418        3.687       -4.714       17.594       19.969       11.100      309.532      398.756      123.215        0.071        0.042       23.707        8.415        0.126      344.198       20.847      858.588
09/17/2014  06:07:00      -25.998       39.110       -7.374       20.799       36.517       13.682      432.609     1333.502      187.207        0.211        0.098       46.963        9.605        0.042      344.356       21.115      858.584
09/17/2014  06:08:00      -30.038       -3.510       -9.469        9.821        5.884        6.191       96.447       34.618       38.329        0.059        0.008       30.242        1.151        0.001      343.749       20.079      858.589
09/17/2014  06:09:00      -12.121       -8.644       -1.997       10.072        7.938        6.711      101.443       63.016       45.037        0.022        0.010       14.887        6.389        0.184      343.854       20.258      858.611
09/17/2014  06:10:00      -11.839       29.446       -5.879       18.557       21.537       10.522      344.372      463.827      110.702        0.098        0.046       31.737        3.974        0.016      344.344       21.096      858.630
09/17/2014  06:11:00      -11.313       12.412       -0.699       15.551       17.358       14.927      241.828      301.296      222.830        0.052        0.038       16.794       11.122        0.439      344.256       20.946      858.643
09/17/2014  06:12:00      -41.060       -0.067      -11.305       11.121       16.776        9.390      123.685      281.432       88.163        0.115        0.025       41.060        9.896        0.058      344.118       20.710      858.658
09/17/2014  06:13:00      -40.636       -6.974       -6.281       10.459        9.168        5.900      109.384       84.048       34.812        0.098        0.011       41.230        5.228        0.016      344.058       20.610      858.674
09/17/2014  06:14:00      -16.933       25.896      -10.808       12.999       24.119        8.764      168.962      581.736       76.814        0.095        0.041       30.941       12.818        0.172      344.283       20.991      858.684
09/17/2014  06:15:00       -7.663       24.135       -5.692       10.206       22.812        9.444      104.159      520.395       89.191        0.069        0.036       25.322       12.782        0.255      344.316       21.047      858.688
09/17/2014  06:16:00        4.569       22.484       -3.578        9.972       14.833        7.553       99.442      220.017       57.053        0.046        0.019       22.944        4.946        0.046      344.419       21.225      858.686
09/17/2014  06:17:00      -26.372        3.174       -6.802       36.564       23.065       12.518     1336.917      531.974      156.689        0.139        0.101       26.562       13.343        0.252      344.193       20.839      858.681
09/17/2014  06:18:00      -76.915      -21.422      -14.238       15.978       16.915        8.318      255.283      286.115       69.182        0.359        0.031       79.843        4.736        0.004      343.724       20.036      858.686
09/17/2014  06:19:00      -71.503       -1.373      -10.466       13.456       16.199        9.139      181.057      262.404       83.528        0.288        0.026       71.516        9.106        0.016      343.782       20.135      858.693
09/17/2014  06:20:00      -64.665       -0.559      -11.543       10.541       12.638        8.328      111.112      159.726       69.350        0.233        0.017       64.667        3.343        0.003      343.958       20.437      858.697
09/17/2014  06:21:00      -40.673       -1.923       -8.963       16.373       11.183        6.338      268.074      125.063       40.176        0.109        0.022       40.718        6.186        0.023      344.066       20.620      858.701
09/17/2014  06:22:00       -7.829       10.452        0.995       13.732       14.989       11.043      188.575      224.671      121.954        0.035        0.027       13.059       10.665        0.667      344.335       21.081      858.708
09/17/2014  06:23:00        4.939       41.114       -6.981       11.174       16.758        7.158      124.857      280.839       51.238        0.111        0.023       41.409        7.502        0.033      344.364       21.131      858.713
09/17/2014  06:24:00       28.602       48.710        4.271       11.464       10.260        8.535      131.434      105.258       72.853        0.176        0.015       56.486        6.786        0.014      344.443       21.266      858.702
09/17/2014  06:25:00       53.781       47.663       10.453       14.543       10.793       11.249      211.489      116.494      126.543        0.286        0.023       71.863        8.384        0.014      344.389       21.175      858.695
09/17/2014  06:26:00       57.097       39.911        8.754       12.363       12.911       10.508      152.841      166.692      110.419        0.268        0.021       69.663        8.610        0.015      344.413       21.214      858.709
09/17/2014  06:27:00       29.712       23.406        3.973       19.817        9.077        8.355      392.718       82.389       69.812        0.100        0.027       37.824        2.030        0.003      344.404       21.201      858.720
09/17/2014  06:28:00      -31.237        3.681       -0.317       27.829       13.268       12.706      774.450      176.044      161.439        0.105        0.056       31.453       16.854        0.287      344.123       20.718      858.729
09/17/2014  06:29:00      -85.645      -10.259      -19.967       13.866       10.080        4.405      192.270      101.604       19.402        0.408        0.016       86.258        3.020        0.001      343.641       19.897      858.725
09/17/2014  06:30:00     -100.955       -2.141      -17.311       34.135       17.993       16.465     1165.173      323.755      271.081        0.613        0.088      100.977       17.756        0.031      343.442       19.557      858.712
09/17/2014  06:31:00      -86.553       -7.723      -12.710       36.833       23.984       16.346     1356.706      575.229      267.175        0.496        0.110       86.897       13.104        0.023      343.338       19.379      858.703
09/17/2014  06:32:00      -85.436        3.739       -9.736       58.343       30.652       23.144     3403.907      939.550      535.666        0.614        0.244       85.518       14.743        0.030      343.486       19.632      858.692
09/17/2014  06:33:00     -103.855        5.369      -10.394       44.107       32.844       23.604     1945.445     1078.713      557.140        0.725        0.179      103.993       16.531        0.025      343.661       19.929      858.691
09/17/2014  06:34:00     -106.005      -26.223      -10.725       29.841       33.016       20.904      890.504     1090.046      436.965        0.723        0.121      109.200       16.312        0.022      343.651       19.913      858.709
09/17/2014  06:35:00      -98.518      -17.384       -8.960       37.871       30.599       19.513     1434.193      936.304      380.742        0.642        0.138      100.040       18.699        0.035      343.595       19.817      858.731
09/17/2014  06:36:00     -138.167      -18.309      -10.363       42.490       41.370       27.256     1805.382     1711.443      742.887        1.190        0.213      139.375       25.307        0.033      343.545       19.731      858.739
09/17/2014  06:37:00     -151.592        7.988      -21.765       59.752       47.464       25.093     3570.281     2252.795      629.673        1.498        0.323      151.802       22.479        0.022      343.550       19.740      858.744
09/17/2014  06:38:00     -200.081       43.905      -13.727       34.530       26.562       18.923     1192.291      705.518      358.080        2.220        0.113      204.841       12.017        0.003      343.829       20.215      858.744
09/17/2014  06:39:00     -162.175       35.244       -8.986       32.815       26.998       22.725     1076.845      728.899      516.422        1.497        0.116      165.961       17.916        0.012      343.754       20.088      858.731
09/17/2014  06:40:00     -168.477       23.332       -9.018       31.641       27.933       16.007     1001.137      780.239      256.228        1.552        0.102      170.085       11.640        0.005      343.773       20.121      858.740
09/17/2014  06:41:00     -157.014       26.607      -11.826       32.434       18.265       18.281     1051.965      333.600      334.199        1.361        0.086      159.253       18.018        0.013      343.732       20.050      858.739
09/17/2014  06:42:00     -125.634       -4.885      -14.559       31.348       39.117       16.716      982.703     1530.175      279.424        0.941        0.140      125.729       13.304        0.011      343.758       20.095      858.729
09/17/2014  06:43:00     -118.482        4.270      -13.375       45.228       33.075       22.670     2045.611     1093.935      513.924        0.894        0.183      118.559       22.358        0.036      343.816       20.194      858.705
09/17/2014  06:44:00     -113.302       57.337      -17.219       25.908       31.312       18.375      671.209      980.471      337.645        0.920        0.099      126.984       12.581        0.010      344.132       20.734      858.693
09/17/2014  06:45:00     -109.225       36.018      -13.419       33.040       39.284       18.000     1091.622     1543.214      323.996        0.818        0.148      115.010        9.449        0.007      344.055       20.601      858.679
09/17/2014  06:46:00     -145.047       37.689      -16.101       42.092       31.745       23.589     1771.730     1007.745      556.437        1.303        0.167      149.864       22.755        0.023      344.068       20.624      858.690
09/17/2014  06:47:00     -107.405       28.039      -10.044       29.522       28.471       20.455      871.532      810.603      418.415        0.726        0.105      111.005       14.855        0.018      344.028       20.555      858.710
09/17/2014  06:48:00      -96.945       14.441       -8.362       54.675       29.427       22.425     2989.378      865.958      502.875        0.702        0.218       98.015       18.365        0.035      343.973       20.463      858.721
09/17/2014  06:49:00     -124.425        7.733      -10.232       29.190       27.022       16.966      852.058      730.178      287.857        0.876        0.094      124.665       14.545        0.014      343.920       20.372      858.725
09/17/2014  06:50:00     -120.329       33.492      -10.654       35.993       31.654       21.396     1295.509     1001.998      457.791        0.923        0.138      124.903        8.169        0.004      343.950       20.422      858.730
09/17/2014  06:51:00     -104.103        3.489       -8.196       25.146       24.868       17.852      632.303      618.430      318.708        0.624        0.078      104.162       11.224        0.012      343.859       20.268      858.739
09/17/2014  06:52:00      -89.413        7.801       -6.043       25.499       29.230       14.302      650.221      854.386      204.534        0.490        0.085       89.752        8.074        0.008      343.769       20.114      858.753
09/17/2014  06:53:00      -68.255        7.523       -7.430       30.719       31.570       18.077      943.659      996.685      326.775        0.352        0.113       68.668       17.298        0.063      343.796       20.159      858.778
09/17/2014  06:54:00      -74.951       24.425       -4.503       37.558       28.672       18.526     1410.566      822.111      343.194        0.440        0.129       78.831       17.252        0.048      343.996       20.500      858.787
09/17/2014  06:55:00      -49.377       43.179       -6.658       23.400       24.382       15.188      547.581      594.497      230.687        0.286        0.069       65.593       12.407        0.036      344.033       20.566      858.783
09/17/2014  06:56:00      -43.478       84.016       -6.259       29.408       29.697       14.204      864.847      881.893      201.740        0.547        0.097       94.599       12.915        0.019      344.308       21.035      858.789
09/17/2014  06:57:00      -34.020       64.308       -9.381       14.496       14.452       12.226      210.145      208.861      149.476        0.297        0.028       72.752        8.385        0.013      344.392       21.177      858.807
09/17/2014  06:58:00       -8.565       21.906       11.816       19.185       14.489       10.456      368.057      209.944      109.327        0.069        0.034       23.521       11.773        0.251      344.281       20.990      858.834
09/17/2014  06:59:00        2.965        0.762       18.225       10.907       11.188        7.038      118.952      125.166       49.540        0.032        0.015        3.061        5.524        3.256      344.173       20.804      858.860
09/17/2014  07:00:00       21.289      -43.751       -2.005       20.880       33.483       17.432      435.987     1121.115      303.891        0.212        0.093       48.656       22.999        0.223      344.023       20.546      858.887
09/17/2014  07:01:00       19.302      -53.632       -8.247       17.194       24.631       22.730      295.646      606.699      516.645        0.237        0.071       57.000       17.722        0.097      344.024       20.550      858.897
09/17/2014  07:02:00       -9.984      -39.421       16.058       21.672       24.741       23.888      469.688      612.115      570.629        0.178        0.083       40.666       10.213        0.063      344.064       20.616      858.901
09/17/2014  07:03:00       25.372       24.636       17.198       22.909       28.835       15.311      524.843      831.467      234.440        0.157        0.080       35.365       14.383        0.165      344.011       20.526      858.910
09/17/2014  07:04:00        7.275        5.203       17.957       20.403       11.136       12.181      416.268      124.003      148.367        0.055        0.034        8.944        3.681        0.169      344.151       20.767      858.910
09/17/2014  07:05:00       13.070       15.967       30.129       18.729       14.512       10.443      350.773      210.585      109.055        0.100        0.034       20.635       11.428        0.307      344.155       20.774      858.916
09/17/2014  07:06:00       10.497       34.042       34.078       12.889       14.311        7.058      166.118      204.813       49.818        0.143        0.021       35.623        5.463        0.024      344.047       20.588      858.926
09/17/2014  07:07:00       -0.005       43.131       48.160       11.264       18.415        9.903      126.882      339.116       98.079        0.237        0.028       43.131        9.372        0.047      343.989       20.487      858.940
09/17/2014  07:08:00        8.592       26.355       33.457       21.565       17.086       12.900      465.034      291.932      166.407        0.141        0.046       27.720       12.998        0.220      344.079       20.644      858.952
09/17/2014  07:09:00       12.819        8.595       21.266       18.220        9.234       11.330      331.963       85.260      128.378        0.062        0.027       15.434        8.525        0.305      344.267       20.966      858.957
09/17/2014  07:10:00       -0.815       -5.921        9.299       15.261       11.645        7.587      232.911      135.610       57.565        0.027        0.021        5.977        6.574        1.210      344.221       20.888      858.955
09/17/2014  07:11:00      -32.350      -12.429        1.787        9.230       13.262        9.405       85.184      175.881       88.461        0.078        0.017       34.656        8.823        0.065      344.002       20.513      858.955
09/17/2014  07:12:00      -39.492        6.456       -1.986        7.727        4.976        5.450       59.706       24.757       29.700        0.086        0.006       40.016        2.867        0.005      343.907       20.348      858.959
09/17/2014  07:13:00      -45.526       14.674       -0.889        6.321        6.270        8.067       39.960       39.317       65.081        0.122        0.007       47.833        3.712        0.006      343.975       20.466      858.956
09/17/2014  07:14:00      -61.194       10.372       -6.556        6.212        7.229        5.802       38.594       52.257       33.662        0.201        0.006       62.067        4.901        0.006      343.987       20.485      858.950
09/17/2014  07:15:00      -30.076       -2.590        1.361       17.275        7.641       10.297      298.437       58.385      106.027        0.069        0.023       30.187       10.821        0.128      344.085       20.653      858.952
09/17/2014  07:16:00       -1.741        8.962       13.646        9.327       10.911        8.559       86.994      119.043       73.254        0.027        0.014        9.129        3.829        0.176      344.438       21.257      858.959
09/17/2014  07:17:00       36.275       32.676        0.175       13.309        9.214        6.829      177.137       84.891       46.638        0.135        0.015       48.822        5.342        0.012      344.124       20.719      858.951
09/17/2014  07:18:00       54.751       39.766        8.518       17.765       16.588       15.027      315.581      275.163      225.817        0.273        0.041       67.669        8.787        0.017      344.247       20.931      858.961
09/17/2014  07:19:00       59.332       43.467        3.406       22.610       19.290       18.955      511.225      372.096      359.284        0.333        0.062       73.550       12.859        0.031      344.314       21.044      858.959
09/17/2014  07:20:00       44.712       10.338       13.979       29.962       25.059       13.083      897.717      627.975      171.173        0.200        0.085       45.892       12.449        0.074      344.485       21.338      858.980
09/17/2014  07:21:00        2.217       -6.776       13.028        9.603       16.877       10.809       92.216      284.829      116.830        0.036        0.025        7.130        8.066        1.280      344.731       21.759      859.000
09/17/2014  07:22:00      -17.095       -3.709        7.542       17.777        8.096       10.035      316.016       65.551      100.711        0.042        0.024       17.493       10.467        0.358      344.296       21.015      859.018
09/17/2014  07:23:00      -19.694       -6.156        0.018       13.716       14.820       10.397      188.139      219.630      108.095        0.047        0.026       20.634       10.584        0.263      344.147       20.760      859.032
09/17/2014  07:24:00      -19.849        1.898        4.372       10.128        7.217        8.293      102.579       52.086       68.774        0.032        0.011       19.940        6.413        0.103      344.256       20.946      859.021
09/17/2014  07:25:00       -8.227       12.906        8.458       14.925       11.331       11.296      222.747      128.391      127.608        0.039        0.024       15.305        8.487        0.308      344.584       21.505      859.027
09/17/2014  07:26:00       40.974       34.732       15.211       17.113       15.945       14.463      292.872      254.235      209.170        0.194        0.038       53.714       12.714        0.056      344.508       21.377      859.025
09/17/2014  07:27:00       67.204       47.318        8.727       22.324       21.389       15.050      498.365      457.502      226.506        0.401        0.059       82.191        8.667        0.011      344.487       21.342      859.031
09/17/2014  07:28:00       78.047       51.693       14.214       15.633       13.255       11.641      244.378      175.686      135.511        0.476        0.028       93.613        7.674        0.007      344.508       21.375      859.026
09/17/2014  07:29:00       88.222       50.169       19.064       18.374       10.757       22.572      337.618      115.715      509.481        0.581        0.048      101.490       14.588        0.021      344.516       21.390      859.038
09/17/2014  07:30:00       58.663       39.525       -2.498       30.600       21.575       17.832      936.368      465.497      317.984        0.336        0.086       70.736       15.450        0.048      344.574       21.488      859.038
09/17/2014  07:31:00       -0.076        5.350       35.594       11.578       46.912       17.476      134.052     2200.736      305.405        0.197        0.132        5.350       23.939       20.020      344.886       22.023      859.045
09/17/2014  07:32:00       31.000      -93.417        6.743       37.069       49.456       35.205     1374.135     2445.863     1239.379        0.740        0.253       98.427       35.708        0.132      344.790       21.859      859.068
09/17/2014  07:33:00       72.739      -97.838      -12.763       39.967       42.616       22.920     1597.326     1816.164      525.338        0.948        0.197      121.915       25.543        0.044      344.728       21.752      859.079
09/17/2014  07:34:00       -3.075       33.570       60.012       21.702       37.985       25.041      470.961     1442.849      627.029        0.364        0.127       33.710       22.416        0.442      344.945       22.125      859.074
09/17/2014  07:35:00       58.263       44.716       24.260       39.581       29.503       41.874     1566.683      870.427     1753.467        0.509        0.210       73.445       34.189        0.217      344.653       21.624      859.056
09/17/2014  07:36:00       81.619       50.361        9.292       29.099       21.973       18.212      846.769      482.795      331.678        0.547        0.083       95.905        9.395        0.010      344.651       21.621      859.030
09/17/2014  07:37:00      109.165       64.676        4.273       19.081       18.764       16.810      364.073      352.096      282.572        0.856        0.050      126.885       11.769        0.009      344.704       21.712      859.018
09/17/2014  07:38:00      108.065       53.605        7.416       21.953       25.233       23.204      481.923      636.703      538.419        0.813        0.083      120.629       12.611        0.011      344.772       21.827      859.018
09/17/2014  07:39:00       86.842       49.894        8.523       23.766       17.597       21.019      564.802      309.642      441.810        0.571        0.066      100.155       10.912        0.012      344.808       21.890      859.018
09/17/2014  07:40:00       59.950       30.662        2.804       28.667       26.527       18.182      821.804      703.686      330.586        0.320        0.093       67.336       18.119        0.072      344.823       21.915      859.018
09/17/2014  07:41:00       10.262       -7.609       13.091       18.617       22.935       18.825      346.598      526.000      354.386        0.078        0.061       12.775       11.868        0.863      345.043       22.293      859.032
09/17/2014  07:42:00        1.910      -14.042       10.906       10.950       25.593       14.632      119.892      655.014      214.108        0.065        0.049       14.172       15.417        1.184      345.128       22.438      859.047
09/17/2014  07:43:00      -11.418        0.244        6.915       18.966       12.563       14.881      359.718      157.839      221.435        0.046        0.037       11.420       13.764        1.453      345.061       22.324      859.054
09/17/2014  07:44:00      -50.795       14.111       -4.008       16.398       14.479        8.529      268.903      209.649       72.752        0.167        0.028       52.718        4.848        0.008      344.672       21.658      859.042
09/17/2014  07:45:00      -56.089       -3.558       -6.898       11.687       13.918        8.997      136.596      193.719       80.938        0.181        0.021       56.202        6.638        0.014      344.701       21.706      859.040
09/17/2014  07:46:00      -38.201       -3.775       -7.476       12.941        5.825        7.688      167.463       33.934       59.103        0.089        0.013       38.387        7.694        0.040      344.812       21.896      859.046
09/17/2014  07:47:00      -36.364      -16.873       -2.886        8.709       10.542        5.215       75.840      111.135       27.196        0.091        0.011       40.088        5.229        0.017      344.834       21.934      859.052
09/17/2014  07:48:00      -49.085        0.564       -5.588       10.436       14.669        9.125      108.905      215.190       83.273        0.142        0.020       49.089        5.927        0.015      344.849       21.959      859.057
09/17/2014  07:49:00      -53.852      -17.146       -8.523       15.814       11.881        9.262      250.089      141.165       85.777        0.187        0.024       56.516        2.679        0.002      344.925       22.090      859.066
09/17/2014  07:50:00      -21.199        3.501       -3.438       14.053       15.195       14.361      197.501      230.878      206.253        0.055        0.032       21.486        8.339        0.151      345.042       22.290      859.065
09/17/2014  07:51:00      -38.727        3.807       -9.343       16.037        7.534        6.753      257.184       56.755       45.602        0.098        0.018       38.913        7.145        0.034      344.988       22.198      859.053
09/17/2014  07:52:00      -56.290        2.809       -5.665       18.078        9.956        7.273      326.800       99.115       52.901        0.184        0.024       56.360        5.342        0.009      344.992       22.205      859.051
09/17/2014  07:53:00      -36.687        9.826       -4.138       11.265       13.236       10.067      126.902      175.189      101.348        0.093        0.020       37.980        8.180        0.046      345.073       22.344      859.047
09/17/2014  07:54:00       -7.984       39.727       -0.246       16.112       24.619       18.304      259.583      606.074      335.030        0.142        0.060       40.521       16.770        0.171      345.393       22.891      859.033
09/17/2014  07:55:00        7.875       31.004       11.969       19.354       34.084       19.732      374.558     1161.704      389.352        0.155        0.096       31.988       19.618        0.376      345.668       23.363      859.029
09/17/2014  07:56:00        9.260       56.798        0.475       23.143       38.073       20.974      535.586     1449.562      439.923        0.287        0.121       57.548       22.157        0.148      345.576       23.206      859.032
09/17/2014  07:57:00        2.514       98.710       -8.007       20.529       23.016       19.817      421.435      529.745      392.701        0.558        0.067       98.742       15.244        0.024      345.544       23.149      859.037
09/17/2014  07:58:00      -10.296      117.933      -14.909       16.515       17.533       13.466      272.753      307.393      181.334        0.750        0.038      118.381       12.741        0.012      345.327       22.778      859.041
09/17/2014  07:59:00      -12.803      101.896       -5.091       18.196       19.846       13.358      331.078      393.862      178.436        0.574        0.045      102.697        8.252        0.006      345.438       22.969      859.043
09/17/2014  08:00:00      -12.200      114.175      -10.536       12.774       26.449       16.510      163.163      699.527      272.571        0.722        0.057      114.825       16.367        0.020      345.465       23.014      859.040
09/17/2014  08:01:00        5.097      116.512      -11.302       20.834       25.617       17.915      434.046      656.242      320.944        0.757        0.071      116.623       16.487        0.020      345.522       23.112      859.032
09/17/2014  08:02:00        5.956       80.247        0.230       20.211       27.330       25.265      408.465      746.947      638.335        0.413        0.090       80.467       20.338        0.064      345.848       23.673      859.029
09/17/2014  08:03:00       13.170      109.496       -6.625       35.249       34.644       24.061     1242.466     1200.210      578.934        0.761        0.151      110.285       15.908        0.021      345.680       23.384      859.033
09/17/2014  08:04:00       49.501       45.668        2.665       39.319       24.101       21.438     1545.947      580.847      459.571        0.356        0.129       67.349       16.202        0.058      345.680       23.385      859.036
09/17/2014  08:05:00       38.267       27.921       10.882       25.631       18.279       19.795      656.958      334.104      391.839        0.187        0.069       47.371       15.026        0.101      345.887       23.738      859.032
09/17/2014  08:06:00       -9.570      104.520       -5.351       23.524       35.189       24.758      553.370     1238.271      612.975        0.672        0.120      104.957       20.831        0.039      345.741       23.490      859.020
09/17/2014  08:07:00      -28.290      138.766      -10.210       18.450       25.180       20.866      340.410      634.019      435.385        1.078        0.070      141.620       15.139        0.011      345.636       23.308      859.014
09/17/2014  08:08:00       -6.036       82.231       -8.072       15.652       51.362       16.903      244.998     2638.075      285.716        0.502        0.158       82.453       23.320        0.080      345.807       23.601      859.002
09/17/2014  08:09:00       22.610       52.595       -3.724       35.398       42.906       27.645     1253.003     1840.930      764.248        0.357        0.193       57.249       28.867        0.254      345.947       23.843      858.996
09/17/2014  08:10:00       24.592       65.998       -0.086       31.616       34.948       32.415      999.547     1221.381     1050.753        0.412        0.164       70.431       24.304        0.119      345.870       23.709      858.990
09/17/2014  08:11:00       28.600        9.378        6.968       29.520       24.630       23.893      871.452      606.645      570.892        0.150        0.102       30.098       13.518        0.202      346.004       23.940      858.983
09/17/2014  08:12:00       65.310       28.852       10.132       47.282       29.900       31.836     2235.582      894.005     1013.519        0.467        0.207       71.399       22.096        0.096      345.880       23.727      858.986
09/17/2014  08:13:00       66.258       55.190       11.142       47.465       36.624       28.957     2252.908     1341.309      838.503        0.600        0.222       86.232       18.656        0.047      345.852       23.678      858.993
09/17/2014  08:14:00       98.968       74.815        6.900       30.770       30.373       27.006      946.794      922.532      729.341        0.902        0.130      124.064       14.962        0.015      345.682       23.388      858.996
09/17/2014  08:15:00       80.713       59.963        1.024       30.911       28.576       28.257      955.514      816.601      798.473        0.634        0.129      100.549       18.529        0.034      345.791       23.573      859.013
09/17/2014  08:16:00       84.898       64.558        2.150       36.416       40.834       33.478     1326.092     1667.451     1120.764        0.775        0.206      106.655       23.058        0.047      345.814       23.615      859.021
09/17/2014  08:17:00       93.525       62.391       -0.489       25.354       27.057       24.266      642.846      732.076      588.816        0.730        0.098      112.426       16.639        0.022      345.814       23.613      859.013
09/17/2014  08:18:00      117.398       60.232       -0.172       46.750       39.065       30.349     2185.547     1526.101      921.074        1.102        0.232      131.948       27.426        0.043      345.914       23.786      859.010
09/17/2014  08:19:00       55.216       41.429        8.211       36.679       27.880       29.494     1345.320      777.317      869.883        0.391        0.150       69.030       21.428        0.096      346.044       24.008      859.014
09/17/2014  08:20:00       59.388       42.473       17.385       37.116       26.085       27.145     1377.608      680.452      736.857        0.421        0.140       73.014       20.482        0.079      346.097       24.100      859.011
09/17/2014  08:21:00      118.631       65.459       15.690       50.029       36.670       32.347     2502.905     1344.659     1046.360        1.175        0.245      135.493       18.823        0.019      345.898       23.757      859.011
09/17/2014  08:22:00      114.238       81.270       22.373       50.006       46.008       39.777     2500.615     2116.775     1582.234        1.318        0.310      140.197       27.356        0.038      345.997       23.927      859.010
09/17/2014  08:23:00      148.097       66.012        2.557       55.525       52.511       38.500     3083.003     2757.397     1482.220        1.681        0.366      162.143       28.877        0.032      345.807       23.601      859.021
09/17/2014  08:24:00      123.917       58.751        2.224       67.921       52.509       44.163     4613.297     2757.167     1950.390        1.406        0.466      137.139       30.730        0.050      345.923       23.801      859.033
09/17/2014  08:25:00       85.184       70.211       41.096       52.691       40.068       41.915     2776.337     1605.466     1756.830        1.001        0.307      110.390       28.459        0.066      345.988       23.912      859.040
09/17/2014  08:26:00      101.786       74.055       42.661       54.973       35.780       50.147     3021.985     1280.226     2514.715        1.224        0.341      125.875       27.752        0.049      345.987       23.909      859.037
09/17/2014  08:27:00       87.984       68.243       49.262       60.418       51.805       50.256     3650.393     2683.711     2525.688        1.184        0.443      111.348       30.181        0.073      345.947       23.842      859.025
09/17/2014  08:28:00       80.426       48.628       17.202       53.162       46.785       29.680     2826.184     2188.872      880.905        0.751        0.295       93.984       30.734        0.107      346.069       24.053      859.027
09/17/2014  08:29:00       38.743       47.119        8.141       41.831       31.008       26.080     1749.798      961.505      680.179        0.359        0.170       61.002       16.665        0.075      346.080       24.071      859.028
09/17/2014  08:30:00       51.262       45.830       -2.871       25.494       41.160       29.690      649.951     1694.142      881.484        0.398        0.161       68.762       25.620        0.139      345.930       23.814      859.025
09/17/2014  08:31:00        3.576        5.002       10.733       15.060       15.281       15.786      226.798      233.508      249.198        0.043        0.035        6.149        7.825        1.619      346.451       24.709      859.020
09/17/2014  08:32:00      -17.012       37.368       -1.902       59.020       54.367       29.217     3483.334     2955.752      853.619        0.449        0.365       41.058       15.795        0.148      345.997       23.929      859.016
09/17/2014  08:33:00       -5.509      113.476       -7.049       38.355       55.599       31.643     1471.118     3091.258     1001.297        0.926        0.278      113.610       27.749        0.060      345.985       23.907      859.012
09/17/2014  08:34:00       19.003       85.257      -10.667       37.554       55.697       24.418     1410.306     3102.193      596.244        0.643        0.255       87.349       22.262        0.065      346.020       23.966      858.993
09/17/2014  08:35:00       34.742       54.434       17.558       33.113       28.977       26.126     1096.440      839.691      682.547        0.355        0.131       64.576       11.150        0.030      346.128       24.152      858.984
09/17/2014  08:36:00       -0.002       39.259       14.375       28.973       29.666       17.692      839.409      880.053      312.995        0.189        0.102       39.259       17.313        0.194      346.393       24.608      858.994
09/17/2014  08:37:00      -19.722       19.207       -7.757       20.319       18.659       13.597      412.857      348.167      184.880        0.088        0.047       27.530       12.822        0.217      346.029       23.983      858.997
09/17/2014  08:38:00      -27.426       21.329        4.811       17.220       22.987       17.835      296.540      528.394      318.104        0.119        0.057       34.743       11.191        0.104      346.037       23.996      858.986
09/17/2014  08:39:00        1.351       15.720       25.745       20.794       15.598       20.195      432.402      243.289      407.825        0.100        0.054       15.778       12.011        0.579      346.461       24.725      858.965
09/17/2014  08:40:00       18.768        6.319       27.359       16.767       15.045       11.314      281.119      226.341      128.002        0.089        0.032       19.803        6.465        0.107      346.420       24.656      858.961
09/17/2014  08:41:00       42.834       22.086       30.458       19.452       17.046       27.639      378.363      290.568      763.922        0.234        0.072       48.193       15.023        0.097      346.189       24.258      858.958
09/17/2014  08:42:00       57.276       34.861       10.319       29.400       20.489       22.095      864.383      419.815      488.187        0.319        0.089       67.051       13.132        0.038      346.148       24.186      858.969
09/17/2014  08:43:00       98.086       86.355       33.586       34.196       24.088       27.490     1169.390      580.235      755.680        1.036        0.125      130.682       17.468        0.018      345.941       23.831      858.959
09/17/2014  08:44:00       58.454       48.446       45.857       41.692       28.421       35.466     1738.261      807.727     1257.845        0.583        0.190       75.921       26.423        0.121      346.021       23.970      858.937
09/17/2014  08:45:00       99.698       64.061       13.504       54.721       47.928       39.379     2994.369     2297.086     1550.720        1.053        0.342      118.505       15.840        0.018      345.953       23.853      858.907
09/17/2014  08:46:00       70.736       45.146       30.496       49.130       40.010       27.116     2413.791     1600.825      735.253        0.636        0.237       83.916       19.976        0.057      346.065       24.043      858.906
09/17/2014  08:47:00       30.586       45.118       61.423       35.586       33.929       24.792     1266.389     1151.202      614.631        0.489        0.152       54.508       20.798        0.146      346.096       24.098      858.903
09/17/2014  08:48:00       40.064       11.012       39.454       56.516       61.944       36.463     3194.052     3837.093     1329.538        0.582        0.418       41.549       38.965        0.879      346.094       24.094      858.902
09/17/2014  08:49:00       60.539      -69.226        7.640       48.896       54.871       40.807     2390.863     3010.784     1665.177        0.779        0.353       91.963       26.235        0.081      345.988       23.913      858.892
09/17/2014  08:50:00       28.684      -58.328        3.758       34.000       30.020       28.144     1156.023      901.226      792.075        0.354        0.142       65.000       18.460        0.081      346.058       24.033      858.907
09/17/2014  08:51:00       41.326      -38.635       -1.361       34.610       26.466       30.458     1197.834      700.465      927.697        0.301        0.141       56.573       23.792        0.177      345.966       23.874      858.904
09/17/2014  08:52:00        8.563        1.953      -21.942       20.257       45.985       18.368      410.337     2114.619      337.387        0.171        0.143        8.783        9.226        1.103      345.845       23.668      858.901
09/17/2014  08:53:00      -12.356       22.638       -4.823       23.111       24.521       14.539      534.127      601.274      211.373        0.102        0.067       25.790       14.282        0.307      345.920       23.796      858.892
09/17/2014  08:54:00       -1.969       13.622       21.805        8.824       20.891       25.356       77.857      436.420      642.934        0.091        0.058       13.764       21.289        2.393      346.340       24.516      858.890
09/17/2014  08:55:00        2.152       41.888       66.901       26.259       30.900       16.468      689.530      954.793      271.195        0.407        0.096       41.943       16.261        0.150      346.403       24.626      858.905
09/17/2014  08:56:00       20.013       43.934       67.804       23.631       25.074       12.963      558.448      628.712      168.049        0.414        0.068       48.277       12.311        0.065      346.069       24.051      858.916
09/17/2014  08:57:00       54.945       51.198       20.568       39.391       26.217       30.216     1551.673      687.353      912.977        0.461        0.158       75.102       22.724        0.092      346.025       23.975      858.929
09/17/2014  08:58:00       45.767       58.682       11.259       25.405       25.589       23.710      645.418      654.818      562.144        0.376        0.093       74.419       12.099        0.026      345.947       23.844      858.942
09/17/2014  08:59:00        6.114       41.928       -1.715       37.549       32.776       26.544     1409.904     1074.280      704.565        0.249        0.159       42.372       19.030        0.202      346.008       23.948      858.936
09/17/2014  09:00:00       10.163       48.180        2.554       30.229       58.892       17.786      913.787     3468.292      316.350        0.356        0.235       49.241       24.402        0.246      346.150       24.190      858.916
09/17/2014  09:01:00      -16.662      124.117       -6.447       21.701       35.297       15.867      470.912     1245.845      251.773        0.885        0.098      125.231       17.389        0.019      346.035       23.994      858.906
09/17/2014  09:02:00       -7.278       35.095        8.771       18.364       28.973       29.390      337.228      839.422      863.795        0.170        0.102       35.842       22.484        0.394      346.574       24.919      858.895
09/17/2014  09:03:00        7.971       45.278        2.930       14.818       31.096       19.266      219.561      966.970      371.189        0.184        0.078       45.974       20.032        0.190      346.315       24.475      858.883
09/17/2014  09:04:00       35.390       37.515        9.116       35.011       30.500       23.799     1225.777      930.240      566.383        0.273        0.136       51.574       19.123        0.137      346.320       24.481      858.874
09/17/2014  09:05:00       46.855       62.156       14.024       39.660       34.367       32.748     1572.877     1181.064     1072.435        0.504        0.191       77.838       23.921        0.094      346.254       24.369      858.865
09/17/2014  09:06:00       44.278       69.909       -8.123       27.839       34.184       25.785      775.015     1168.529      664.862        0.476        0.130       82.752       25.621        0.096      346.072       24.057      858.864
09/17/2014  09:07:00       46.749       41.775        2.247       43.549       27.704       22.507     1896.481      767.506      506.554        0.355        0.159       62.695       18.146        0.084      346.190       24.258      858.849
09/17/2014  09:08:00       76.736       42.631        6.826       23.142       17.597       19.826      535.562      309.643      393.073        0.450        0.062       87.783       11.066        0.016      346.034       23.991      858.848
09/17/2014  09:09:00      -13.513       79.544       -7.798       17.640       39.186       22.553      311.175     1535.561      508.620        0.446        0.118       80.683       18.719        0.054      346.204       24.283      858.844
09/17/2014  09:10:00      -12.853       36.340       10.528       20.778       36.670       21.020      431.720     1344.681      441.856        0.191        0.111       38.546       22.765        0.349      346.449       24.704      858.849
09/17/2014  09:11:00      -29.312       73.550       -8.374       13.355       22.465       16.263      178.363      504.699      264.500        0.364        0.047       79.175        7.220        0.008      346.105       24.113      858.849
09/17/2014  09:12:00       -8.027       29.050        1.073       12.822       21.867       14.828      164.408      478.148      219.870        0.089        0.043       30.139        9.484        0.099      346.398       24.617      858.856
09/17/2014  09:13:00      -20.204       -5.805        7.917       28.584       11.824       11.297      817.033      139.812      127.613        0.079        0.054       21.021       11.807        0.315      346.264       24.388      858.848
09/17/2014  09:14:00      -24.620       19.944       -2.021       19.967       17.294       17.462      398.697      299.079      304.904        0.101        0.050       31.684       11.123        0.123      346.318       24.480      858.818
09/17/2014  09:15:00        3.107        6.937       23.174       19.872       11.353        9.798      394.884      128.899       96.005        0.061        0.031        7.601        5.762        0.575      346.695       25.128      858.804
09/17/2014  09:16:00       37.800       77.011      -12.733       24.478       36.688       20.490      599.188     1345.982      419.842        0.494        0.118       85.788       14.941        0.030      346.172       24.228      858.799
09/17/2014  09:17:00       18.440        2.690        1.612       17.079       10.344       13.438      291.683      107.005      180.581        0.046        0.029       18.635       12.753        0.468      346.436       24.682      858.778
09/17/2014  09:18:00       -7.623       23.596        4.990       12.229       39.830       21.525      149.556     1586.407      463.322        0.142        0.110       24.797       25.552        1.062      346.549       24.877      858.757
09/17/2014  09:19:00       23.161       28.188        6.204       34.466       38.210       24.035     1187.906     1459.999      577.672        0.230        0.161       36.483       16.040        0.193      346.288       24.426      858.748
09/17/2014  09:20:00       -8.686       39.686        5.812       15.050       24.810       21.700      226.515      615.522      470.888        0.150        0.066       40.626       17.497        0.185      346.655       25.059      858.742
09/17/2014  09:21:00      -15.354       26.676       15.285       21.030       34.193       18.680      442.280     1169.150      348.953        0.157        0.098       30.780       20.320        0.436      346.880       25.445      858.740
09/17/2014  09:22:00      -26.277       32.314        6.736       32.957       32.984       23.428     1086.174     1087.974      548.869        0.225        0.136       41.650       23.190        0.310      346.769       25.255      858.747
09/17/2014  09:23:00      -30.230       14.740       14.453       35.642       21.587       20.209     1270.367      466.000      408.386        0.174        0.107       33.632       21.310        0.402      346.787       25.285      858.737
09/17/2014  09:24:00      -39.688       30.967        9.373       38.909       30.172       29.933     1513.909      910.367      895.987        0.297        0.166       50.339       29.241        0.337      346.695       25.128      858.728
09/17/2014  09:25:00      -63.958       16.071      -14.355       29.252       40.272       16.268      855.698     1621.873      264.639        0.365        0.137       65.946       16.370        0.062      346.284       24.422      858.725
09/17/2014  09:26:00      -71.431        1.664       -6.928       46.032       34.157       21.061     2118.961     1166.670      443.575        0.444        0.186       71.451       13.269        0.034      346.304       24.454      858.713
09/17/2014  09:27:00     -112.197      -36.704      -14.237       69.536       48.095       34.528     4835.203     2313.088     1192.185        1.124        0.417      118.048       30.553        0.067      346.306       24.459      858.703
09/17/2014  09:28:00     -147.147      -31.135      -13.470       40.279       46.641       21.597     1622.397     2175.369      466.426        1.353        0.213      150.405       12.695        0.007      346.181       24.243      858.702
09/17/2014  09:29:00     -113.804      -58.683       -3.657       70.547       48.893       28.904     4976.831     2390.573      835.442        1.230        0.410      128.043       32.401        0.064      346.228       24.324      858.692
09/17/2014  09:30:00      -31.746       -1.091       13.504       38.708       23.221       23.047     1498.333      539.217      531.167        0.188        0.128       31.765       17.298        0.297      346.697       25.132      858.702
09/17/2014  09:31:00      -22.251       -7.680        1.639       37.134       21.256       23.953     1378.970      451.827      573.741        0.148        0.120       23.539       24.309        1.066      346.615       24.991      858.708
09/17/2014  09:32:00      -30.567       62.684       -1.355       34.962       35.396       26.536     1222.337     1252.912      704.141        0.402        0.159       69.740       28.704        0.169      346.650       25.050      858.711
09/17/2014  09:33:00        7.297       70.075       -2.928       25.785       27.628       25.923      664.887      763.326      671.977        0.354        0.105       70.454       18.235        0.067      346.679       25.100      858.719
09/17/2014  09:34:00      -30.330       79.629        0.144       23.443       35.192       30.060      549.586     1238.457      903.586        0.498        0.135       85.210       26.383        0.096      346.644       25.041      858.701
09/17/2014  09:35:00      -18.603      137.170      -17.687       28.770       29.083       19.417      827.732      845.794      377.031        1.076        0.103      138.425       13.708        0.010      346.406       24.630      858.674
09/17/2014  09:36:00      -40.568       73.492        0.369       35.907       58.662       30.685     1289.312     3441.250      941.554        0.636        0.284       83.946       27.018        0.104      346.563       24.902      858.673
09/17/2014  09:37:00      -59.105       33.623       -5.808       28.373       26.619       22.392      805.038      708.587      501.398        0.334        0.101       67.999       17.762        0.068      346.518       24.823      858.678
09/17/2014  09:38:00      -64.853       33.845       -9.707       28.102       21.456       12.491      789.736      460.347      156.014        0.343        0.070       73.154        9.542        0.017      346.584       24.937      858.660
09/17/2014  09:39:00      -50.948       60.498       -2.596       32.581       30.583       25.929     1061.544      935.320      672.334        0.447        0.133       79.094       25.400        0.103      346.922       25.519      858.647
09/17/2014  09:40:00      -57.467       26.069      -11.713       28.512       35.809       17.141      812.931     1282.295      293.823        0.325        0.119       63.103       17.798        0.080      346.653       25.055      858.636
09/17/2014  09:41:00      -53.125       14.243       -0.533       34.698       21.310       18.686     1203.919      454.131      349.154        0.252        0.100       55.001       21.660        0.155      346.848       25.391      858.619
09/17/2014  09:42:00      -94.306       68.308      -21.619       28.492       31.294       19.653      811.787      979.308      386.250        0.810        0.109      116.446       15.458        0.018      346.710       25.151      858.592
09/17/2014  09:43:00      -40.744       41.782        1.779       30.801       36.454       25.479      948.700     1328.920      649.174        0.317        0.146       58.359       25.947        0.198      347.054       25.746      858.580
09/17/2014  09:44:00      -24.289      -14.554        3.363       33.445       27.763       22.208     1118.587      770.762      493.195        0.160        0.119       28.316       21.760        0.591      347.086       25.801      858.596
09/17/2014  09:45:00       -2.155      -11.364       11.605       22.319       13.520       17.180      498.132      182.784      295.165        0.062        0.049       11.566       13.986        1.462      347.165       25.937      858.577
09/17/2014  09:46:00      -14.724       10.951       22.708       26.308       19.094       20.637      692.094      364.566      425.867        0.117        0.074       18.350       13.786        0.564      347.185       25.971      858.572
09/17/2014  09:47:00        8.132        2.293       22.776       21.000       31.089       29.070      440.983      966.510      845.072        0.142        0.113        8.449       24.433        8.362      347.448       26.426      858.560
09/17/2014  09:48:00       36.361      -38.207        9.359       29.844       39.161       26.905      890.663     1533.559      723.886        0.301        0.157       52.743       15.393        0.085      347.020       25.687      858.568
09/17/2014  09:49:00       15.380        7.316       37.239       30.785       48.558       40.079      947.691     2357.858     1606.321        0.329        0.246       17.032       39.140        5.281      347.422       26.380      858.562
09/17/2014  09:50:00       17.171       17.651       37.120       30.866       44.961       29.521      952.689     2021.450      871.476        0.291        0.192       24.625       28.365        1.327      347.462       26.448      858.564
09/17/2014  09:51:00       44.422       45.578       82.710       51.569       73.849       46.720     2659.385     5453.738     2182.797        1.059        0.515       63.645       51.044        0.643      347.345       26.246      858.557
09/17/2014  09:52:00       26.262      -16.674       61.648       44.951       74.662       47.995     2020.597     5574.356     2303.550        0.733        0.495       31.108       49.435        2.525      347.475       26.470      858.544
09/17/2014  09:53:00      -19.054      -28.603       16.069       48.187       36.991       27.298     2321.960     1368.363      745.186        0.294        0.222       34.369       25.770        0.562      347.354       26.262      858.545
09/17/2014  09:54:00     -102.071      -44.924       -1.493       53.369       36.021       26.955     2848.276     1297.528      726.579        0.865        0.244      111.520       25.452        0.052      346.989       25.634      858.525
09/17/2014  09:55:00     -130.607      -48.716       -2.389       73.684       38.617       27.251     5429.401     1491.276      742.595        1.355        0.383      139.397       25.660        0.034      347.022       25.690      858.512
09/17/2014  09:56:00      -59.887       -9.257        3.076       30.088       23.012       20.423      905.288      529.558      417.081        0.277        0.093       60.598       18.560        0.094      347.135       25.885      858.499
09/17/2014  09:57:00      -97.024      -20.734       -8.707       67.538       46.003       20.183     4561.363     2116.277      407.344        0.850        0.354       99.215       26.002        0.069      347.100       25.824      858.483
09/17/2014  09:58:00     -210.672     -102.486      -22.328       69.084       68.595       47.660     4772.619     4705.261     2271.457        3.356        0.587      234.278       30.141        0.017      346.947       25.556      858.465
09/17/2014  09:59:00     -214.924      -43.347      -20.226       62.064       84.541       50.922     3851.949     7147.162     2593.057        3.103        0.680      219.252       39.101        0.032      346.811       25.325      858.454
09/17/2014  10:00:00     -210.071       62.185      -20.165       76.350       95.593       53.121     5829.258     9138.070     2821.800        3.309        0.889      219.082       30.011        0.019      346.809       25.321      858.436
09/17/2014  10:01:00     -258.852        0.066      -10.550      117.095       83.046       39.762    13711.160     6896.583     1580.988        4.465        1.109      258.852       47.692        0.034      346.760       25.237      858.447
09/17/2014  10:02:00      -52.326      -20.843       18.580       65.505       52.664       38.644     4290.896     2773.503     1493.328        0.604        0.428       56.325       34.690        0.379      347.257       26.096      858.500
09/17/2014  10:03:00      -67.697     -131.564       -8.285      110.564       39.774       32.890    12224.400     1581.984     1081.725        1.842        0.744      147.959       28.604        0.037      346.941       25.549      858.511
09/17/2014  10:04:00     -132.291      -62.434        4.076      106.802       82.914       51.022    11406.582     6874.681     2603.283        2.115        1.044      146.284       61.096        0.174      346.977       25.611      858.490
09/17/2014  10:05:00     -181.976      -32.261      -28.155       71.723       55.970       24.391     5144.250     3132.663      594.906        2.191        0.444      184.814       23.605        0.016      346.680       25.100      858.478
09/17/2014  10:06:00     -217.943       56.024      -27.741       52.432       48.847       26.744     2749.088     2386.063      715.241        2.863        0.293      225.028       20.523        0.008      346.797       25.300      858.444
09/17/2014  10:07:00      -44.353      128.054       -3.643       46.667       68.390       42.060     2177.781     4677.241     1769.072        1.350        0.431      135.517       38.440        0.080      347.140       25.893      858.448
09/17/2014  10:08:00        9.491      102.219       18.437       49.006       60.583       40.261     2401.581     3670.280     1620.922        0.928        0.385      102.659       37.459        0.133      347.453       26.433      858.465
09/17/2014  10:09:00     -113.068      114.362      -11.091       72.018       74.189       39.169     5186.652     5503.948     1534.200        1.910        0.611      160.820       35.394        0.048      347.090       25.807      858.449
09/17/2014  10:10:00     -116.697       86.453      -20.472       66.814       54.581       44.168     4464.081     2979.086     1950.847        1.545        0.470      145.232       44.937        0.096      346.963       25.588      858.445
09/17/2014  10:11:00      -78.071      119.277      -13.769       47.485       58.087       41.132     2254.791     3374.150     1691.854        1.391        0.366      142.556       29.119        0.042      347.259       26.098      858.450
09/17/2014  10:12:00     -101.104       81.144       -7.287       68.948       56.463       38.605     4753.798     3188.123     1490.375        1.314        0.472      129.639       39.040        0.091      347.232       26.051      858.441
09/17/2014  10:13:00      -79.948      -21.724        3.326       69.839       71.462       35.590     4877.546     5106.835     1266.632        0.906        0.563       82.847       33.869        0.167      347.291       26.155      858.447
09/17/2014  10:14:00      -60.279       94.855       -6.408       55.667       60.756       37.140     3098.844     3691.267     1379.354        1.042        0.408      112.388       36.532        0.106      347.355       26.265      858.458
09/17/2014  10:15:00       -8.510       31.258       12.812       30.519       46.119       34.580      931.398     2126.945     1195.788        0.273        0.213       32.396       24.475        0.571      347.630       26.738      858.456
09/17/2014  10:16:00       27.232       -4.367       16.668       31.693       38.068       21.856     1004.470     1449.166      477.698        0.198        0.147       27.580       22.353        0.657      347.543       26.589      858.462
09/17/2014  10:17:00     -171.231      -35.364       -3.605       82.892       63.260       38.125     6871.124     4001.827     1453.541        2.145        0.616      174.845       29.940        0.029      347.250       26.079      858.470
09/17/2014  10:18:00     -166.594      -53.489       -5.012       92.949       65.114       47.263     8639.481     4239.865     2233.811        2.287        0.756      174.970       55.293        0.100      347.356       26.264      858.446
09/17/2014  10:19:00     -100.598      -39.773        9.313      134.738      104.696       39.074    18154.427    10961.215     1526.780        2.121        1.532      108.175       36.259        0.112      347.358       26.268      858.422
09/17/2014  10:20:00     -254.362      -44.438       -5.534      103.900       67.635       45.882    10795.312     4574.469     2105.164        4.209        0.874      258.215       49.963        0.037      347.313       26.188      858.402
09/17/2014  10:21:00     -181.774      -66.398        0.687       99.084       64.510       36.291     9817.614     4161.519     1317.006        2.637        0.765      193.521       31.272        0.026      347.365       26.278      858.393
09/17/2014  10:22:00     -177.667      -67.727       -9.630       51.063       45.396       25.822     2607.464     2060.776      666.788        2.079        0.267      190.138       21.720        0.013      347.183       25.965      858.383
09/17/2014  10:23:00     -162.068      -35.837       -6.474       72.059       52.312       31.892     5192.439     2736.510     1017.096        1.827        0.447      165.983       34.460        0.043      347.331       26.220      858.348
09/17/2014  10:24:00     -150.247        0.925      -15.868       76.356       41.660       36.335     5830.242     1735.520     1320.243        1.585        0.444      150.250       38.332        0.065      347.476       26.471      858.338
09/17/2014  10:25:00      -74.071        5.641      -29.016       50.926       50.038       38.003     2593.441     2503.812     1444.203        0.645        0.327       74.285       28.840        0.151      347.416       26.368      858.351
09/17/2014  10:26:00       -7.083      -44.052      -13.710       29.193       27.134       14.504      852.249      736.247      210.363        0.199        0.090       44.618       11.723        0.069      347.433       26.399      858.351
09/17/2014  10:27:00       10.981      -92.394      -19.215       30.642       35.377       23.505      938.905     1251.543      552.498        0.588        0.137       93.044       17.602        0.036      347.417       26.372      858.368
09/17/2014  10:28:00      -53.770      -69.530       12.157       48.105       57.243       42.565     2314.131     3276.781     1811.744        0.764        0.370       87.895       41.502        0.223      347.674       26.814      858.375
09/17/2014  10:29:00      -53.821        5.197       25.804       29.883       36.737       31.136      893.004     1349.625      969.433        0.340        0.161       54.071       26.734        0.244      347.908       27.218      858.365
09/17/2014  10:30:00      -53.918       -1.041        1.110       47.794       36.959       27.962     2284.234     1365.993      781.846        0.367        0.222       53.928       33.185        0.379      347.988       27.358      858.365
09/17/2014  10:31:00      -70.746      -47.422       11.283       72.776       66.651       34.940     5296.358     4442.365     1220.814        0.917        0.548       85.169       39.796        0.218      347.802       27.035      858.354
09/17/2014  10:32:00     -116.360      -28.304        5.788       67.532       64.329       44.527     4560.615     4138.172     1982.651        1.253        0.534      119.752       42.043        0.123      347.572       26.638      858.367
09/17/2014  10:33:00     -130.456      -91.366        1.870       74.876       58.705       38.154     5606.365     3446.324     1455.702        1.794        0.525      159.269       39.489        0.061      347.467       26.455      858.370
09/17/2014  10:34:00     -113.123      -61.722       -5.221       79.335       52.994       35.295     6294.022     2808.397     1245.769        1.349        0.517      128.866       17.327        0.018      347.420       26.375      858.365
09/17/2014  10:35:00      -97.252      -53.288       -8.354       45.721       46.975       30.942     2090.424     2206.672      957.404        0.881        0.263      110.895       30.999        0.078      347.465       26.454      858.315
09/17/2014  10:36:00      -35.642      -57.600        2.644       35.097       25.423       19.918     1231.765      646.347      396.713        0.343        0.114       67.736       17.923        0.070      347.510       26.530      858.295
09/17/2014  10:37:00      -71.467     -112.480       -1.428       45.196       38.739       32.599     2042.658     1500.737     1062.719        1.118        0.230      133.264        9.944        0.006      347.608       26.701      858.301
09/17/2014  10:38:00      -94.485      -48.626       -5.434       85.891      116.994       65.352     7377.315    13687.699     4270.908        1.832        1.267      106.264       30.108        0.080      347.611       26.704      858.293
09/17/2014  10:39:00      160.401      -98.341       46.237      150.657      139.993       96.259    22697.544    19598.135     9265.714        4.454        2.578      188.147      100.485        0.285      347.972       27.326      858.258
09/17/2014  10:40:00     -106.785     -111.206        8.973      101.574       75.880       45.950    10317.204     5757.733     2111.410        2.101        0.909      154.175       43.806        0.081      347.769       26.976      858.287
09/17/2014  10:41:00      -35.534      -40.024        6.278       84.391       65.341       43.059     7121.834     4269.467     1854.037        0.807        0.662       53.522       29.235        0.298      348.063       27.487      858.281
09/17/2014  10:42:00      -49.890       37.222       24.154       35.696       32.815       45.619     1274.187     1076.824     2081.068        0.444        0.222       62.245       26.368        0.179      348.136       27.613      858.255
09/17/2014  10:43:00       36.654      -72.651       -3.809       94.285       46.165       31.291     8889.651     2131.163      979.152        0.932        0.600       81.374       24.694        0.092      347.874       27.160      858.231
09/17/2014  10:44:00      -80.714      -72.106      -11.691       57.276       99.616       33.146     3280.518     9923.377     1098.661        1.307        0.715      108.231       24.494        0.051      347.833       27.089      858.216
09/17/2014  10:45:00       55.379      -12.020       65.240       94.220      129.433       97.925     8877.332    16752.951     9589.255        2.134        1.761       56.668       93.591        2.728      348.382       28.036      858.135
09/17/2014  10:46:00       35.960     -107.891       31.863      116.023      138.111       90.356    13461.439    19074.541     8164.166        2.732        2.035      113.726       88.557        0.606      348.159       27.649      858.120
09/17/2014  10:47:00       -4.597     -137.568       -3.097       67.639       70.435       49.921     4575.095     4961.058     2492.104        1.549        0.601      137.644       32.937        0.057      348.226       27.767      858.132
09/17/2014  10:48:00       30.368      -54.685       12.353       83.594      111.076       45.688     6987.965    12337.816     2087.412        1.273        1.071       62.551       57.688        0.851      348.515       28.266      858.130
09/17/2014  10:49:00     -119.330      -36.361        0.069      141.311       51.920       28.956    19968.742     2695.710      838.451        1.953        1.175      124.747       51.825        0.173      348.288       27.873      858.126
09/17/2014  10:50:00     -174.664     -255.683       -3.067       97.470      156.192       42.833     9500.418    24395.792     1834.707        6.580        1.787      309.647       56.224        0.033      348.023       27.413      858.180
09/17/2014  10:51:00      -65.224      -85.677       43.710      145.900      145.599       60.632    21286.801    21199.146     3676.276        2.982        2.308      107.679       82.102        0.581      348.224       27.763      858.208
09/17/2014  10:52:00      -23.583      -73.875       19.115       91.433      103.332       58.858     8359.937    10677.483     3464.292        1.444        1.125       77.548       65.150        0.706      348.303       27.900      858.168
09/17/2014  10:53:00      -33.114      -50.032       30.286      100.731       76.462       46.885    10146.739     5846.435     2198.235        1.135        0.910       59.998       50.419        0.706      348.345       27.974      858.147
09/17/2014  10:54:00      105.210     -142.802        6.948      117.632      134.674       71.659    13837.339    18137.107     5135.055        3.430        1.855      177.374       82.793        0.218      348.250       27.806      858.141
09/17/2014  10:55:00      -31.358     -112.214       10.479       80.989       98.928       57.288     6559.158     9786.756     3281.952        1.665        0.981      116.513       39.809        0.117      348.177       27.680      858.159
09/17/2014  10:56:00        9.913     -182.814       -4.225       75.713      121.268       57.619     5732.527    14705.807     3319.896        2.864        1.188      183.082       53.529        0.085      348.036       27.435      858.171
09/17/2014  10:57:00     -181.208      -59.517        0.335       99.535       81.978       45.254     9907.157     6720.331     2047.895        2.752        0.934      190.732       47.183        0.061      348.092       27.533      858.133
09/17/2014  10:58:00     -138.138      -29.600       -9.658       62.723       63.649       35.060     3934.114     4051.173     1229.170        1.463        0.461      141.274       33.291        0.056      348.043       27.451      858.127
09/17/2014  10:59:00      -21.116        0.594       12.569       60.177       40.029       27.188     3621.234     1602.309      739.201        0.328        0.298       21.124       29.897        2.003      348.391       28.054      858.099
09/17/2014  11:00:00        7.978        1.612       -0.836       47.532       72.429       37.433     2259.317     5245.986     1401.198        0.448        0.445        8.139       40.129       24.308      348.536       28.304      858.098
09/17/2014  11:01:00       -6.098      -22.294       47.293       37.818       46.242       32.483     1430.185     2138.349     1055.168        0.370        0.231       23.113       25.896        1.255      348.886       28.910      858.098
09/17/2014  11:02:00      -31.544      -76.702       -7.153       46.846       42.583       30.977     2194.578     1813.347      959.603        0.595        0.248       82.935       25.569        0.095      348.238       27.789      858.135
09/17/2014  11:03:00      -14.744      -44.477       21.676       44.420       51.808       32.956     1973.159     2684.098     1086.090        0.420        0.287       46.857       22.423        0.229      348.669       28.534      858.124
09/17/2014  11:04:00       70.109     -100.469       13.140       89.273      109.525       69.243     7969.730    11995.711     4794.530        1.997        1.238      122.512       70.913        0.335      348.605       28.421      858.106
09/17/2014  11:05:00       36.551      -85.205       38.983       91.218      132.601       78.874     8320.665    17582.941     6221.186        2.111        1.606       92.714       83.904        0.819      348.636       28.476      858.095
09/17/2014  11:06:00       67.876     -119.748       23.250       91.254       98.085       54.243     8327.326     9620.693     2942.352        2.018        1.045      137.647       55.342        0.162      348.388       28.046      858.096
09/17/2014  11:07:00      139.116     -161.089       45.365      150.518      195.361       83.694    22655.610    38165.776     7004.750        5.758        3.391      212.845       98.164        0.213      348.466       28.180      858.073
09/17/2014  11:08:00      118.442     -141.349       70.153      114.844      184.724      131.637    13189.119    34123.027    17328.293        5.177        3.232      184.413      128.674        0.487      348.455       28.162      858.025
09/17/2014  11:09:00      140.469     -197.716       21.634      109.690      167.930       87.939    12031.917    28200.564     7733.214        5.362        2.398      242.535       96.597        0.159      348.204       27.725      858.032
09/17/2014  11:10:00      209.662      -75.991       74.069      189.277      234.738      141.817    35825.872    55102.135    20111.927        8.311        5.552      223.008      168.894        0.574      348.345       27.970      857.983
09/17/2014  11:11:00      166.113     -281.562      -23.719      176.491      189.529       98.665    31149.028    35921.087     9734.691        9.210        3.840      326.911      101.534        0.096      348.293       27.881      858.008
09/17/2014  11:12:00      215.919     -324.289        4.021      173.950      190.507      113.374    30258.501    36293.072    12853.692       11.559        3.970      389.595      118.763        0.093      348.272       27.842      858.029
09/17/2014  11:13:00       64.009     -273.305       -2.363      161.740      156.267       97.407    26159.794    24419.326     9488.047        6.942        3.003      280.701       73.072        0.068      348.183       27.689      858.024
09/17/2014  11:14:00       25.231     -262.207      -10.160      155.407      131.753       80.104    24151.311    17358.956     6416.594        5.870        2.396      263.418       50.580        0.037      348.201       27.723      858.011
09/17/2014  11:15:00       40.423     -114.210        8.192      159.590      111.778       68.914    25468.890    12494.234     4749.208        2.872        2.136      121.152       66.156        0.298      348.403       28.071      857.996
09/17/2014  11:16:00       43.594     -179.206        1.703       99.183      155.207       74.401     9837.327    24089.141     5535.510        3.673        1.973      184.432       71.568        0.151      348.477       28.200      857.992
09/17/2014  11:17:00       91.527     -247.818      -12.312      139.024      201.903      108.294    19327.589    40764.756    11727.645        7.087        3.591      264.180      115.798        0.192      348.353       27.984      857.998
09/17/2014  11:18:00      -26.414     -196.804        3.602      144.725      166.326      116.986    20945.470    27664.438    13685.767        5.086        3.115      198.568       85.709        0.186      348.469       28.183      857.964
09/17/2014  11:19:00      -71.655     -247.575      -17.359      137.972      150.998       67.994    19036.348    22800.409     4623.206        5.659        2.323      257.736       39.932        0.024      348.215       27.746      858.009
09/17/2014  11:20:00      -28.139      -56.517       18.175       98.953       87.370       64.273     9791.746     7633.575     4130.965        1.293        1.078       63.135       52.855        0.701      348.583       28.385      857.989
09/17/2014  11:21:00      -39.783     -146.571        5.183      136.248      115.001       68.748    18563.586    13225.257     4726.245        2.980        1.826      151.874       63.474        0.175      348.386       28.042      857.990
09/17/2014  11:22:00      132.803     -253.158       21.246      140.997      210.926       95.404    19880.202    44489.630     9101.908        7.781        3.674      285.877      111.246        0.151      348.491       28.223      857.927
09/17/2014  11:23:00      143.628     -223.320       22.506      156.601      182.024       98.355    24523.747    33132.701     9673.622        6.916        3.367      265.520      109.239        0.169      348.639       28.480      857.942
09/17/2014  11:24:00       49.405      -98.518       80.029      117.651      274.733      145.624    13841.779    75478.299    21206.383        6.452        5.526      110.212      183.240        2.764      348.665       28.524      857.916
09/17/2014  11:25:00      149.128     -309.008       -9.244      157.701      179.863      110.239    24869.557    32350.569    12152.662        9.358        3.469      343.111      101.348        0.087      348.398       28.060      857.907
09/17/2014  11:26:00       94.637     -239.667      -13.552      163.743      169.246       78.864    26811.909    28644.190     6219.558        6.412        3.084      257.675       61.332        0.057      348.523       28.281      857.937
09/17/2014  11:27:00        6.720     -201.089       -0.670       96.529      176.815       69.280     9317.850    31263.626     4799.652        4.292        2.269      201.201       73.001        0.132      348.554       28.333      858.009
09/17/2014  11:28:00       -0.851     -242.933        3.871      172.379      191.481      116.033    29714.689    36665.040    13463.604        6.942        3.992      242.935      125.322        0.266      348.466       28.180      857.950
09/17/2014  11:29:00       55.411     -228.628        4.753      145.896      218.661      113.291    21285.754    47812.450    12834.755        6.863        4.097      235.246      123.506        0.276      348.413       28.089      857.919
09/17/2014  11:30:00       55.865       -7.141      114.253      116.539      157.303       99.306    13581.278    24744.372     9861.753        3.220        2.409       56.319       95.398        2.869      348.725       28.630      857.914
09/17/2014  11:31:00       80.704       -6.274      105.513       96.301      162.215      107.443     9273.800    26313.568    11543.951        3.240        2.357       80.947      110.025        1.847      348.784       28.730      857.902
09/17/2014  11:32:00       90.770     -221.584        3.463      187.863      168.975       78.490    35292.560    28552.715     6160.703        6.366        3.500      239.455       83.649        0.122      348.471       28.188      857.930
09/17/2014  11:33:00      137.358     -207.713      -19.863      116.611      107.005       56.507    13598.053    11450.078     3193.096        4.532        1.412      249.022       27.385        0.012      348.379       28.029      857.923
09/17/2014  11:34:00       21.764     -215.672        8.210       93.470      126.029       76.177     8736.650    15883.188     5802.927        3.873        1.521      216.768       72.176        0.111      348.479       28.202      857.923
09/17/2014  11:35:00       82.314      -31.476       99.460      172.805      197.776      118.171    29861.485    39115.471    13964.293        5.028        4.147       88.127      140.198        2.531      348.840       28.829      857.865
09/17/2014  11:36:00       -7.174      -92.176       38.619      135.563      144.347       84.216    18377.390    20836.154     7092.364        2.816        2.315       92.455       85.861        0.862      348.770       28.706      857.856
09/17/2014  11:37:00      147.391     -144.690       43.060      168.778      207.563      100.613    28486.124    43082.402    10122.999        6.309        4.085      206.541      104.454        0.256      348.658       28.513      857.831
09/17/2014  11:38:00       66.435     -254.946       54.607      170.428      220.607      108.636    29045.557    48667.341    11801.798        8.094        4.476      263.460      112.839        0.183      348.550       28.326      857.815
09/17/2014  11:39:00      122.105     -156.486       65.103      157.133      233.726      126.883    24690.780    54627.617    16099.380        6.951        4.771      198.488      142.252        0.514      348.703       28.588      857.814
09/17/2014  11:40:00      103.410     -122.235       65.569      153.411      262.477       90.124    23534.789    68894.210     8122.306        6.522        5.028      160.109      137.831        0.741      348.817       28.788      857.819
09/17/2014  11:41:00       99.189     -404.583      -29.973      188.123      176.170       89.074    35390.299    31035.799     7934.103       12.438        3.718      416.564       84.930        0.042      348.361       27.997      857.845
09/17/2014  11:42:00      -98.457     -127.764       -2.524       99.835       95.606       64.314     9967.059     9140.534     4136.275        2.463        1.162      161.299       56.465        0.123      348.526       28.285      857.867
09/17/2014  11:43:00        0.802      -56.559       36.967       63.900       90.879       54.219     4083.192     8258.971     2939.679        0.992        0.764       56.565       46.117        0.665      348.699       28.585      857.836
09/17/2014  11:44:00       50.616     -228.575      -14.077      122.892      129.633       77.007    15102.525    16804.654     5930.078        4.641        1.892      234.113       63.059        0.073      348.564       28.348      857.833
09/17/2014  11:45:00      -19.988     -219.181       -3.805      127.726      132.000       75.926    16314.042    17424.131     5764.812        4.397        1.975      220.091       50.234        0.052      348.577       28.373      857.836
09/17/2014  11:46:00       51.131     -137.900       16.661       91.808      140.995       73.030     8428.699    19879.711     5333.308        2.777        1.682      147.074       71.052        0.233      348.862       28.866      857.801
09/17/2014  11:47:00      171.798     -269.701       -2.122      149.318      177.729       89.317    22295.793    31587.589     7977.494        8.205        3.093      319.770       96.950        0.092      348.516       28.265      857.771
09/17/2014  11:48:00       32.089     -166.620       -8.507      118.246       80.580       81.655    13982.026     6493.183     6667.613        2.800        1.357      169.682       54.358        0.103      348.758       28.686      857.744
09/17/2014  11:49:00     -134.575      -93.450       31.311      114.119      134.711       64.346    13023.073    18147.067     4140.465        3.156        1.766      163.840       70.334        0.184      348.765       28.698      857.755
09/17/2014  11:50:00     -126.193     -154.418      -19.532      145.796      101.646       61.935    21256.509    10331.957     3835.928        3.778        1.771      199.424       58.037        0.085      348.541       28.310      857.726
09/17/2014  11:51:00     -106.048     -214.610      -12.467       74.528       71.130       53.850     5554.379     5059.460     2899.833        3.548        0.676      239.382       34.013        0.020      348.446       28.146      857.701
09/17/2014  11:52:00      -72.277     -117.190        2.730       94.825       99.166       55.566     8991.867     9833.983     3087.583        2.043        1.096      137.686       53.166        0.149      348.636       28.474      857.705
09/17/2014  11:53:00       53.325     -175.944        1.054      147.840      182.104       63.773    21856.644    33161.898     4066.954        4.643        2.954      183.848       68.660        0.139      348.837       28.822      857.719
09/17/2014  11:54:00      107.822     -102.735       47.368      208.781      208.211      121.293    43589.376    43351.764    14711.910        6.302        5.083      148.930      138.978        0.871      348.757       28.684      857.635
09/17/2014  11:55:00       54.221     -198.892       16.155      158.053      175.772      104.873    24980.680    30895.656    10998.369        5.480        3.344      206.151      112.867        0.300      348.860       28.862      857.607
09/17/2014  11:56:00      236.794     -306.652       -2.351      160.725      188.880      104.571    25832.502    35675.685    10935.079       11.126        3.622      387.436      115.335        0.089      348.762       28.693      857.593
09/17/2014  11:57:00      309.258     -351.068        8.749      224.322      242.236      136.284    50320.531    58678.499    18573.259       17.324        6.379      467.856      159.644        0.116      348.637       28.476      857.493
09/17/2014  11:58:00      224.448     -158.321      105.080      237.732      322.749      180.916    56516.332   104166.903    32730.592       13.991        9.671      274.667      215.099        0.613      348.692       28.569      857.445
09/17/2014  11:59:00       50.550       -0.099      153.121      141.185      193.484      140.633    19933.080    37436.151    19777.631        5.156        3.857       50.550      126.136        6.226      348.936       28.993      857.511
09/17/2014  12:00:00       77.996     -139.277       64.705      131.369      160.895       83.932    17257.861    25887.277     7044.516        3.992        2.509      159.630       98.404        0.380      349.065       29.217      857.571
09/17/2014  12:01:00      -29.893     -167.307      -10.453      103.692      101.837       75.060    10751.945    10370.873     5634.006        2.787        1.338      169.956       43.687        0.066      349.018       29.136      857.556
09/17/2014  12:02:00     -129.664     -122.583        6.109       98.081       70.410       44.437     9619.957     4957.628     1974.669        2.421        0.828      178.436       43.465        0.059      349.140       29.346      857.569
09/17/2014  12:03:00     -127.843      -84.905       -2.095      158.156       99.709       62.096    25013.339     9941.834     3855.960        3.118        1.941      153.469       45.412        0.088      348.939       29.000      857.564
09/17/2014  12:04:00        6.652      -55.080       72.222       94.289      116.795       89.224     8890.456    13640.963     7960.886        1.939        1.525       55.481       76.686        1.911      349.377       29.759      857.555
09/17/2014  12:05:00       64.780     -199.415      -27.771      161.850      103.290       87.942    26195.334    10668.737     7733.872        4.466        2.230      209.673       67.416        0.103      348.867       28.874      857.554
09/17/2014  12:06:00       87.804     -163.521       17.853      128.175      163.358       95.594    16428.742    26685.828     9138.125        4.350        2.613      185.603       85.730        0.213      349.091       29.261      857.577
09/17/2014  12:07:00      102.562     -197.736        0.232      158.142      185.257       88.682    25008.989    34320.084     7864.550        5.839        3.360      222.752      103.902        0.218      348.707       28.597      857.548
09/17/2014  12:08:00      174.340     -231.870       23.221      149.643      161.729       93.481    22392.896    26156.196     8738.710        7.098        2.864      290.100       90.902        0.098      348.774       28.712      857.519
09/17/2014  12:09:00       72.333     -183.223       13.491      113.419      152.364       95.193    12863.797    23214.920     9061.798        4.205        2.257      196.984       89.997        0.209      348.998       29.103      857.476
09/17/2014  12:10:00       82.834     -187.166       46.588      157.060      196.321      116.205    24667.869    38542.100    13503.694        6.037        3.836      204.677      126.150        0.380      348.951       29.021      857.444
09/17/2014  12:11:00       -6.930     -224.783      -17.589      124.418      140.866       76.685    15479.839    19843.300     5880.647        4.604        2.060      224.890       68.643        0.093      349.063       29.214      857.501
09/17/2014  12:12:00       39.069     -130.250       31.086      100.532      184.776       86.435    10106.783    34142.068     7470.979        3.558        2.586      135.983      103.400        0.578      349.211       29.471      857.454
09/17/2014  12:13:00      -62.080     -113.754       16.427      100.509      126.889       64.789    10102.147    16100.837     4197.605        2.373        1.520      129.591       59.401        0.210      349.206       29.463      857.481
09/17/2014  12:14:00      -72.444     -222.379      -17.161      103.875      144.106       58.862    10790.068    20766.535     3464.730        4.500        1.751      233.882       61.009        0.068      348.853       28.850      857.493
09/17/2014  12:15:00      -52.233     -190.815      -22.847      203.664      124.685       85.850    41478.940    15546.289     7370.306        5.202        3.220      197.834       72.731        0.135      348.885       28.904      857.505
09/17/2014  12:16:00      -43.517     -129.714      -13.867      109.226       96.679       55.114    11930.240     9346.788     3037.579        2.161        1.216      136.819       46.582        0.116      349.034       29.164      857.474
09/17/2014  12:17:00      -58.392     -245.445      -14.758      141.280      201.463       83.914    19959.944    40587.358     7041.614        6.572        3.379      252.295       80.722        0.102      348.651       28.501      857.519
09/17/2014  12:18:00       -1.085     -311.773      -14.764      132.867      133.027       67.288    17653.678    17696.104     4527.609        6.864        1.994      311.775       49.004        0.025      348.619       28.444      857.415
09/17/2014  12:19:00     -116.072     -255.742       12.243      168.454      156.078       63.623    28376.874    24360.381     4047.924        6.789        2.839      280.850       69.178        0.061      348.768       28.704      857.407
09/17/2014  12:20:00     -247.980     -334.642      -28.909      211.208      170.263       80.558    44608.927    28989.530     6489.600       12.719        4.004      416.508       82.557        0.039      348.703       28.590      857.391
09/17/2014  12:21:00     -181.813     -177.247      -18.200      196.515      133.871       69.554    38618.216    17921.545     4837.703        6.308        3.069      253.914       42.330        0.028      348.847       28.838      857.352
09/17/2014  12:22:00     -113.145     -167.434       15.237      145.273      117.725       66.111    21104.318    13859.262     4370.627        4.019        1.967      202.079       59.958        0.088      349.054       29.199      857.359
09/17/2014  12:23:00        1.908     -299.100       -7.428      180.509      149.708       83.915    32583.372    22412.549     7041.734        7.577        3.102      299.107       68.626        0.053      348.842       28.830      857.427
09/17/2014  12:24:00       -0.214     -321.481      -10.797      103.576      144.661       72.463    10728.028    20926.870     5250.899        7.018        1.845      321.481       47.386        0.022      348.681       28.550      857.379
09/17/2014  12:25:00      -59.168      -93.544       15.366      111.892      109.674       81.847    12519.837    12028.326     6698.948        2.186        1.562      110.686       73.274        0.438      349.113       29.301      857.339
09/17/2014  12:26:00     -105.191     -110.680       -2.066      140.291      131.768       74.237    19681.491    17362.887     5511.179        3.293        2.128      152.693       62.282        0.166      349.009       29.119      857.280
09/17/2014  12:27:00       14.884     -183.619        4.925      118.640      156.191       87.063    14075.413    24395.498     7579.897        4.000        2.303      184.221       82.572        0.201      349.116       29.304      857.258
09/17/2014  12:28:00       -2.125     -239.729       27.941      212.378      216.768      128.559    45104.300    46988.548    16527.500        8.342        5.431      239.739      130.947        0.298      349.173       29.403      857.240
09/17/2014  12:29:00     -100.769     -193.041       22.078      150.968      169.284      110.604    22791.299    28657.170    12233.193        5.578        3.184      217.760       99.373        0.208      349.188       29.431      857.214
09/17/2014  12:30:00      -38.665     -276.812      -17.230      148.291      167.440       74.040    21990.180    28036.090     5481.920        6.695        2.775      279.499       68.579        0.060      348.830       28.810      857.221
09/17/2014  12:31:00      -31.454     -330.445      -19.019      156.684      126.393       85.516    24549.953    15975.236     7312.951        7.918        2.392      331.939       67.917        0.042      348.820       28.791      857.238
09/17/2014  12:32:00     -197.660     -139.612        6.915      155.247      125.026       67.011    24101.549    15631.538     4490.482        5.141        2.211      241.993       49.618        0.042      348.919       28.964      857.194
09/17/2014  12:33:00       -0.291     -121.522       21.336      130.630      122.050       83.771    17064.131    14896.264     7017.653        2.709        1.949      121.522       72.322        0.354      349.165       29.390      857.168
09/17/2014  12:34:00       64.192     -186.679       21.415      128.023      151.661       81.668    16389.761    23001.168     6669.661        4.274        2.303      197.407       86.795        0.193      349.178       29.413      857.165
09/17/2014  12:35:00      -25.887     -172.986      -27.320       91.870       97.132       60.802     8440.158     9434.661     3696.927        2.645        1.079      174.912       36.040        0.042      349.249       29.537      857.189
09/17/2014  12:36:00      -35.005     -242.445      -13.195      175.896      162.984       92.211    30939.479    26563.741     8502.800        6.308        3.300      244.959       65.262        0.071      349.249       29.534      857.249
09/17/2014  12:37:00       52.571      -52.711       83.252      113.816      165.980      101.053    12954.082    27549.364    10211.769        3.158        2.536       74.446      115.948        2.426      349.496       29.964      857.181
09/17/2014  12:38:00       46.828     -215.055        3.380      170.279      151.096       93.017    28994.820    22829.852     8652.180        5.445        3.024      220.095       84.772        0.148      349.172       29.403      857.141
09/17/2014  12:39:00      190.039     -272.006       27.199      167.419      268.197      140.062    28029.257    71929.539    19617.240       11.519        5.979      331.817      162.665        0.240      349.026       29.150      857.170
09/17/2014  12:40:00      116.927     -238.380       31.007      218.517      228.564      122.196    47749.589    52241.653    14931.768        9.317        5.746      265.513      122.865        0.214      349.088       29.255      857.163
09/17/2014  12:41:00      -25.507     -276.524       11.804      160.812      199.417       70.719    25860.401    39766.999     5001.111        7.393        3.531      277.698       83.904        0.091      349.001       29.107      857.191
09/17/2014  12:42:00      -87.882     -183.429       -3.462      133.912      129.333       65.595    17932.443    16727.144     4302.760        4.016        1.948      203.395       50.504        0.062      348.950       29.018      857.166
09/17/2014  12:43:00       -7.150     -139.644      -19.437      117.370      160.939       60.320    13775.795    25901.203     3638.531        3.161        2.166      139.826       63.962        0.209      348.916       28.960      857.126
09/17/2014  12:44:00       39.986     -319.515        3.737      166.038      148.122       78.688    27568.584    21940.073     6191.799        7.969        2.785      322.007       71.164        0.049      349.005       29.111      857.229
09/17/2014  12:45:00        5.642     -298.846      -14.062      223.828      157.772       86.762    50099.042    24891.857     7527.711        8.601        4.126      298.899       72.562        0.059      348.958       29.031      857.185
09/17/2014  12:46:00      -12.153     -198.330        8.977      179.519      207.795       73.035    32227.235    43178.746     5334.051        6.014        4.037      198.702       72.086        0.132      349.132       29.332      857.161
09/17/2014  12:47:00       38.973     -226.621       12.202      167.529      179.180       97.415    28065.859    32105.325     9489.716        6.133        3.483      229.948      107.118        0.217      349.158       29.376      857.134
09/17/2014  12:48:00      -11.590     -280.818      -45.081      159.092      144.110       95.813    25310.329    20767.668     9180.212        6.813        2.763      281.057       83.083        0.087      349.078       29.239      857.108
09/17/2014  12:49:00      112.119     -145.406       34.846      123.102      129.302       81.518    15154.224    16719.000     6645.220        3.672        1.926      183.612       73.786        0.161      349.290       29.605      857.053
09/17/2014  12:50:00       85.209     -192.343      -12.094      151.909      115.434       64.395    23076.229    13325.120     4146.746        4.247        2.027      210.372       49.283        0.055      349.310       29.639      856.974
09/17/2014  12:51:00      102.462     -154.795       41.658      147.536      226.488      127.276    21766.848    51296.855    16199.258        6.271        4.463      185.634      134.706        0.527      349.484       29.943      857.007
09/17/2014  12:52:00      140.746     -204.522       20.263      194.202      241.160      131.709    37714.537    58157.979    17347.222        8.761        5.661      248.272      151.222        0.371      349.421       29.833      856.997
09/17/2014  12:53:00       89.610     -252.072      -14.154      198.170      189.760      111.446    39271.404    36008.713    12420.212        7.972        4.385      267.526      106.982        0.160      349.206       29.462      857.049
09/17/2014  12:54:00      -16.632     -286.795        1.166      109.735      146.849       69.600    12041.687    21564.590     4844.136        6.048        1.923      287.276       59.157        0.042      349.260       29.555      857.109
09/17/2014  12:55:00        8.618     -330.377        5.389      177.700      158.917       80.397    31577.194    25254.753     6463.709        8.626        3.165      330.489       52.104        0.025      349.166       29.391      857.070
09/17/2014  12:56:00      -61.863     -417.731      -14.611      140.066      238.434       86.197    19618.353    56850.679     7429.883       13.120        4.195      422.287       96.000        0.052      348.955       29.024      857.057
09/17/2014  12:57:00       55.089     -187.215        3.663      157.446      146.498       76.878    24789.166    21461.532     5910.287        4.512        2.608      195.152       77.344        0.157      349.242       29.522      856.995
09/17/2014  12:58:00     -141.473     -115.000        8.997      133.472      100.716       54.705    17814.730    10143.782     2992.657        3.213        1.548      182.317       42.030        0.053      349.486       29.948      857.044
09/17/2014  12:59:00       65.122     -238.285       24.575      163.193      175.188      100.689    26631.807    30690.733    10138.256        6.453        3.373      247.023       98.407        0.159      349.385       29.770      857.017
09/17/2014  13:00:00     -188.197      -78.149        5.994      143.457       94.887       64.267    20579.846     9003.565     4130.229        3.763        1.686      203.777       69.249        0.115      349.559       30.075      856.998
09/17/2014  13:01:00      -34.956     -102.409       18.715      110.514      108.818       57.024    12213.333    11841.286     3251.775        1.968        1.365      108.210       52.893        0.239      349.608       30.159      857.003
09/17/2014  13:02:00     -151.351     -268.421       -3.164       97.855      148.373       63.278     9575.677    22014.468     4004.071        6.527        1.780      308.151       61.494        0.040      349.373       29.749      857.005
09/17/2014  13:03:00     -324.134     -318.822      -39.898      202.494      180.357       74.422    41003.718    32528.744     5538.653       14.367        3.954      454.654       89.408        0.039      349.021       29.140      856.938
09/17/2014  13:04:00       12.829     -152.824       17.749      227.360      155.365      101.811    51692.635    24138.435    10365.519        5.500        4.310      153.361       80.686        0.277      349.495       29.961      856.893
09/17/2014  13:05:00       24.636      -88.142       39.106      130.187      172.316      125.844    16948.636    29692.712    15836.620        3.618        3.124       91.520      130.418        2.031      349.486       29.947      856.873
09/17/2014  13:06:00      167.879     -280.423        2.979      162.046      185.243      111.948    26258.842    34315.145    12532.429        8.995        3.655      326.834      114.586        0.123      349.296       29.617      856.786
09/17/2014  13:07:00       10.790     -391.883      -30.627      219.820      221.808       93.369    48320.853    49199.007     8717.769       13.041        5.312      392.032       58.760        0.022      349.353       29.715      856.887
09/17/2014  13:08:00      -35.686     -253.759        9.595      189.470      259.141       83.407    35898.736    67154.096     6956.791        8.786        5.500      256.255       88.337        0.119      349.204       29.458      856.871
09/17/2014  13:09:00      -46.805     -112.904       10.696      165.594      136.738       87.506    27421.243    18697.361     7657.235        3.440        2.689      122.222       71.009        0.338      349.613       30.168      856.869
09/17/2014  13:10:00     -127.598     -142.501        0.641      119.847      128.961       47.651    14363.245    16631.057     2270.612        3.492        1.663      191.279       49.271        0.066      349.545       30.049      856.904
09/17/2014  13:11:00      -51.145     -239.021      -15.965      122.900      109.758       57.972    15104.528    12046.729     3360.736        4.525        1.526      244.432       47.690        0.038      349.381       29.763      856.919
09/17/2014  13:12:00      -10.573     -189.589      -12.297      101.998      184.579       56.469    10403.675    34069.247     3188.722        4.192        2.383      189.884       33.249        0.031      349.191       29.435      856.841
09/17/2014  13:13:00     -142.598     -107.093        5.697      142.433       92.753       46.409    20287.055     8603.066     2153.801        3.143        1.552      178.334       44.318        0.062      349.472       29.923      856.764
09/17/2014  13:14:00     -225.190     -117.013       12.044      183.966      125.921       70.137    33843.584    15856.100     4919.147        5.957        2.731      253.776       71.544        0.079      349.583       30.115      856.736
09/17/2014  13:15:00     -254.667     -290.840        3.707      152.492      170.355       79.233    23253.856    29020.720     6277.878       10.399        2.928      386.579       77.408        0.040      349.597       30.138      856.779
09/17/2014  13:16:00     -381.157     -221.117       -0.606      253.370      192.658      107.560    64196.567    37117.290    11569.060       15.351        5.644      440.651      121.187        0.076      349.398       29.793      856.771
09/17/2014  13:17:00     -294.417     -319.924        0.081      186.478      211.105       94.520    34774.204    44565.170     8933.989       13.864        4.414      434.779       95.470        0.048      349.375       29.753      856.751
09/17/2014  13:18:00     -232.726     -304.555        6.114      178.953      220.629       88.522    32024.274    48677.130     7836.193       11.773        4.427      383.295      100.470        0.069      349.463       29.905      856.774
09/17/2014  13:19:00     -123.575     -308.360       -7.482      120.343      184.028       67.382    14482.503    33866.219     4540.316        8.164        2.644      332.200       62.387        0.035      349.552       30.062      856.801
09/17/2014  13:20:00      -19.099     -192.291      -25.054      146.983      164.123       86.716    21604.024    26936.479     7519.627        4.700        2.803      193.238       82.118        0.181      349.648       30.227      856.791
09/17/2014  13:21:00      -58.752     -140.509      -12.261      189.391      116.804       79.144    35869.034    13643.206     6263.717        3.955        2.789      152.298       61.139        0.161      349.493       29.959      856.783
09/17/2014  13:22:00     -376.654     -248.889      -31.526      313.853      223.518      101.320    98503.665    49960.377    10265.819       18.174        7.936      451.458      112.754        0.062      349.395       29.787      856.736
09/17/2014  13:23:00     -186.434     -192.836        7.247      198.513      160.501      106.020    39407.522    25760.552    11240.196        7.419        3.820      268.222       83.801        0.098      349.396       29.791      856.717
09/17/2014  13:24:00     -146.517     -309.959      -11.775      167.620      153.186       86.852    28096.593    23465.979     7543.194        8.838        2.955      342.844       59.834        0.030      349.423       29.837      856.738
09/17/2014  13:25:00     -167.958     -204.274       13.942      228.607      190.439      117.225    52261.132    36267.134    13741.649        8.618        5.113      264.457      133.067        0.253      349.505       29.978      856.676
09/17/2014  13:26:00     -117.026     -427.617      -34.876      343.542      244.615      116.984   118021.168    59836.339    13685.205       19.462        9.577      443.341       76.870        0.030      349.390       29.779      856.643
09/17/2014  13:27:00      -44.055     -298.887       -6.545      231.740      142.656      101.476    53703.615    20350.745    10297.461        8.782        4.218      302.116       82.098        0.074      349.424       29.836      856.745
09/17/2014  13:28:00      -70.541     -224.753       25.272      163.672      225.045       80.792    26788.429    50645.126     6527.418        7.003        4.198      235.563       82.509        0.123      349.410       29.816      856.722
09/17/2014  13:29:00      -30.274     -245.233        0.679      187.266      134.825       77.978    35068.614    18177.732     6080.579        6.018        2.966      247.095       61.576        0.062      349.406       29.806      856.736
09/17/2014  13:30:00        1.385     -443.560       16.760      277.408      323.557      144.006    76955.384   104688.949    20737.784       19.967       10.119      443.563      148.669        0.112      349.300       29.624      856.716
09/17/2014  13:31:00       19.183     -148.599       23.857      118.297      160.528       68.881    13994.110    25769.335     4744.655        3.375        2.225      149.832       85.050        0.322      349.626       30.191      856.660
09/17/2014  13:32:00      -73.942      -80.898        9.195       92.353       63.772       47.148     8529.127     4066.823     2222.967        1.345        0.741      109.599       26.869        0.060      349.950       30.753      856.624
09/17/2014  13:33:00       30.269     -229.314      -17.346      190.108      160.909       91.769    36141.139    25891.588     8421.601        6.211        3.523      231.303       62.370        0.073      349.635       30.204      856.632
09/17/2014  13:34:00       58.950     -255.528        6.664      179.772      236.612      117.897    32317.909    55985.342    13899.732        8.549        5.110      262.240       96.510        0.135      349.386       29.772      856.592
09/17/2014  13:35:00       12.806     -385.053       -9.529      167.958      245.344      118.830    28209.911    60193.508    14120.537       12.550        5.126      385.265      142.362        0.137      349.315       29.650      856.552
09/17/2014  13:36:00      -75.908       -4.232       30.025      120.650       77.007       60.180    14556.427     5930.064     3621.589        1.539        1.205       76.026       51.316        0.456      349.847       30.576      856.526
09/17/2014  13:37:00      -55.903     -251.960       -7.148      141.325      188.373       86.995    19972.739    35484.394     7568.107        6.483        3.151      258.087       82.776        0.103      349.484       29.943      856.565
09/17/2014  13:38:00      -47.679     -219.625      -10.383      183.834      142.069       81.783    33794.875    20183.659     6688.407        5.563        3.033      224.741       60.162        0.072      349.450       29.883      856.507
09/17/2014  13:39:00       46.593     -273.307        7.956      351.248      213.073      109.497   123375.179    45399.909    11989.561       12.881        9.038      277.250      106.945        0.149      349.552       30.061      856.422
09/17/2014  13:40:00     -171.966     -303.522        2.361      279.631      170.277      104.528    78193.511    28994.357    10926.162       11.988        5.906      348.852      113.299        0.105      349.438       29.863      856.487
09/17/2014  13:41:00     -264.545     -312.028      -21.497      206.895      169.147       94.760    42805.466    28610.875     8979.445       12.409        4.020      409.079       97.214        0.056      349.306       29.633      856.499
09/17/2014  13:42:00     -281.241     -294.203       14.509      240.097      219.159      120.844    57646.677    48030.457    14603.324       14.305        6.014      407.004      124.135        0.093      349.449       29.880      856.469
09/17/2014  13:43:00     -296.536     -327.658       -1.311      228.234      207.084       91.394    52090.629    42883.951     8352.850       14.929        5.166      441.919       84.909        0.037      349.531       30.024      856.468
09/17/2014  13:44:00      -82.919      -77.757       16.665      104.174      121.796       61.029    10852.234    14834.208     3724.562        2.130        1.471      113.674       59.434        0.273      349.885       30.638      856.481
09/17/2014  13:45:00     -230.134     -251.039        3.279      192.752      186.680       80.333    37153.421    34849.285     6453.452        9.721        3.923      340.561       82.747        0.059      349.706       30.327      856.490
09/17/2014  13:46:00     -105.984     -259.558      -16.331      289.672      173.986       94.168    83910.112    30271.096     8867.616       10.093        6.152      280.362       88.403        0.099      349.609       30.158      856.438
09/17/2014  13:47:00        1.939     -133.299       39.529      185.465      230.210      146.270    34397.358    52996.612    21395.043        6.404        5.439      133.314      156.407        1.376      349.659       30.246      856.399
09/17/2014  13:48:00      -79.009     -378.614       18.437      208.634      297.521      156.279    43527.993    88518.483    24423.009       15.317        7.823      386.770      164.959        0.182      349.420       29.834      856.312
09/17/2014  13:49:00        6.452     -374.899        8.601      206.324      241.139      105.909    42569.796    58147.862    11216.613       12.628        5.597      374.955       80.899        0.047      349.278       29.585      856.418
09/17/2014  13:50:00        3.417     -258.431      -16.335      166.994      154.155       77.566    27887.076    23763.655     6016.511        6.235        2.883      258.453       68.044        0.069      349.518       30.002      856.305
09/17/2014  13:51:00      -85.320     -251.350       24.273      221.075      229.223       97.805    48874.095    52543.158     9565.763        9.099        5.549      265.436      116.354        0.192      349.564       30.082      856.338
09/17/2014  13:52:00     -260.015     -337.241      -10.596      198.036      260.101      111.529    39218.357    67652.428    12438.732       15.036        5.965      425.840      113.768        0.071      349.349       29.709      856.338
09/17/2014  13:53:00     -171.342     -272.600       -0.463      168.174      175.962       93.138    28282.430    30962.685     8674.614        8.578        3.396      321.976       72.199        0.050      349.527       30.016      856.286
09/17/2014  13:54:00        9.752     -164.384       23.352      177.812      143.817       80.846    31617.110    20683.368     6536.074        4.324        2.942      164.673       57.243        0.121      349.738       30.383      856.280
09/17/2014  13:55:00     -266.692     -298.240       -7.929      180.451      243.688       84.388    32562.681    59383.724     7121.414       12.958        4.953      400.089       96.304        0.058      349.485       29.944      856.246
09/17/2014  13:56:00     -186.650     -389.976       -1.720      254.364      251.689       95.086    64701.033    63347.258     9041.364       16.198        6.854      432.342       57.732        0.018      349.564       30.082      856.242
09/17/2014  13:57:00      -32.483     -160.683       -6.313      142.330      132.246       69.893    20257.749    17489.060     4884.993        3.476        2.132      163.934       27.283        0.028      349.758       30.418      856.253
09/17/2014  13:58:00       56.300     -230.118      -10.975      151.723      113.687       71.816    23019.731    12924.724     5157.507        4.867        2.055      236.905       57.464        0.059      349.726       30.363      856.270
09/17/2014  13:59:00     -295.358     -357.401      -22.864      292.053      272.572      127.228    85295.245    74295.600    16186.846       19.560        8.789      463.651      146.897        0.100      349.527       30.018      856.274
09/17/2014  14:00:00     -289.260     -463.002      -22.202      234.695      338.751       87.239    55081.591   114751.904     7610.600       23.795        8.872      545.932      102.737        0.035      349.385       29.771      856.260
09/17/2014  14:01:00     -163.645     -330.405      -22.515      253.711      165.455      103.468    64369.352    27375.505    10705.622       11.943        5.123      368.710       61.513        0.028      349.435       29.857      856.292
09/17/2014  14:02:00     -237.506     -347.089      -11.770      176.594      184.464       95.343    31185.386    34026.793     9090.358       12.565        3.715      420.571       79.706        0.036      349.488       29.949      856.322
09/17/2014  14:03:00     -121.786     -255.669        9.775      193.058      135.471       93.685    37271.398    18352.272     8776.792        7.233        3.220      283.194       48.293        0.029      349.598       30.138      856.298
09/17/2014  14:04:00     -215.943     -226.200       -0.575      181.399      170.703       88.622    32905.512    29139.515     7853.816        8.383        3.495      312.727       81.072        0.067      349.725       30.361      856.262
09/17/2014  14:05:00     -174.112     -200.467        0.905      203.284      170.501       92.929    41324.431    29070.748     8635.826        7.475        3.952      265.522       94.189        0.126      349.692       30.303      856.241
09/17/2014  14:06:00      -60.372     -195.833      -15.398      141.106      102.995       67.974    19910.774    10608.035     4620.522        3.868        1.757      204.928       53.559        0.068      349.826       30.537      856.254
09/17/2014  14:07:00      -22.059     -366.755        4.487      266.147      252.574      120.627    70834.221    63793.802    14550.773       14.207        7.459      367.417      105.039        0.082      349.466       29.913      856.251
09/17/2014  14:08:00      -50.725     -138.501       27.745      187.972      210.928      109.636    35333.632    44490.585    12019.972        5.717        4.592      147.497      112.836        0.585      349.611       30.163      856.169
09/17/2014  14:09:00     -343.670     -294.610        0.967      193.389      214.672      102.728    37399.182    46084.062    10553.137       14.945        4.702      452.664       88.812        0.038      349.542       30.042      856.172
09/17/2014  14:10:00     -162.843     -288.924       13.159      262.794      187.115      101.351    69060.586    35012.003    10271.972       11.223        5.717      331.654       85.822        0.067      349.593       30.129      856.161
09/17/2014  14:11:00       39.875     -111.367       23.637      185.576      144.887       91.629    34438.367    20992.123     8395.821        3.918        3.191      118.290       72.670        0.377      349.741       30.389      856.146
09/17/2014  14:12:00     -109.722      -76.736       14.849      113.582      113.350       55.601    12900.769    12848.254     3091.497        2.349        1.442      133.893       38.211        0.081      349.936       30.727      856.108
09/17/2014  14:13:00     -290.364     -187.469       -0.699      137.966      170.756       73.121    19034.572    29157.727     5346.718        8.649        2.677      345.624       52.032        0.023      349.793       30.479      856.137
09/17/2014  14:14:00     -165.615     -249.018       16.220      192.545      206.210       71.922    37073.478    42522.660     5172.742        8.722        4.238      299.062       82.796        0.077      349.654       30.239      856.140
09/17/2014  14:15:00      -66.229     -252.755      -13.971      149.857      176.773      112.485    22457.181    31248.699    12652.935        6.740        3.318      261.288      112.016        0.184      349.704       30.325      856.177
09/17/2014  14:16:00     -163.218     -304.158       35.552      274.984      283.172      125.160    75616.136    80186.298    15665.133       14.591        8.573      345.184      101.311        0.086      349.722       30.356      856.144
09/17/2014  14:17:00       63.780     -217.812       10.748      183.429      232.392      115.129    33646.253    54006.023    13254.679        7.625        5.045      226.958      105.321        0.215      349.599       30.142      856.132
09/17/2014  14:18:00      -12.339     -207.328      -21.203      153.511      129.106       81.590    23565.504    16668.419     6656.879        4.523        2.345      207.695       48.609        0.055      349.536       30.032      856.048
09/17/2014  14:19:00      -26.204     -369.720      -28.297      285.049      228.568      110.152    81252.954    52243.382    12133.528       14.188        7.281      370.647      113.515        0.094      349.381       29.763      856.079
09/17/2014  14:20:00     -168.303     -236.508       -8.271      199.104      182.532       96.193    39642.241    33318.101     9253.049        8.326        4.111      290.279       79.009        0.074      349.563       30.079      856.053
09/17/2014  14:21:00     -198.333     -172.253        9.390      167.450      165.320       83.640    28039.536    27330.795     6995.687        6.572        3.118      262.692       84.241        0.103      349.694       30.307      856.056
09/17/2014  14:22:00      -42.310     -336.055      -29.709      109.201      150.193       87.186    11924.775    22557.799     7601.383        7.884        2.104      338.708       48.165        0.020      349.533       30.028      856.076
09/17/2014  14:23:00      -41.183     -207.789       14.415      121.029      206.086       79.535    14648.030    42471.486     6325.776        5.425        3.172      211.831       79.918        0.142      349.607       30.157      855.994
09/17/2014  14:24:00      -88.897     -152.140       -3.885      137.275      145.906       94.109    18844.368    21288.457     8856.576        4.002        2.449      176.208       86.834        0.243      349.583       30.115      855.937
09/17/2014  14:25:00     -114.866     -131.526       23.073      171.235      124.193       76.252    29321.283    15423.811     5814.326        4.078        2.528      174.623       71.952        0.170      349.579       30.107      855.916
09/17/2014  14:26:00     -391.983     -283.813      -25.795      207.868      207.493       89.189    43209.231    43053.229     7954.702       16.452        4.711      483.943       91.711        0.036      349.586       30.119      855.937
09/17/2014  14:27:00      -99.089     -281.688        6.815      165.548      182.720       76.199    27406.147    33386.650     5806.248        7.789        3.330      298.608       56.202        0.035      349.693       30.304      855.928
09/17/2014  14:28:00     -243.905      -48.197       26.012      210.794      188.799      111.380    44434.073    35645.126    12405.482        7.747        4.624      248.621      128.208        0.266      349.559       30.072      855.814
09/17/2014  14:29:00     -249.233     -528.926      -12.529      298.285      274.306      122.302    88973.707    75243.776    14957.770       26.057        8.959      584.705      117.349        0.040      349.293       29.612      855.942
09/17/2014  14:30:00       96.589     -483.585      -55.826      322.630      251.656      130.373   104089.974    63330.814    16997.197       21.532        9.221      493.137       94.858        0.037      349.429       29.845      855.842
09/17/2014  14:31:00     -192.233     -239.072      -15.830      276.564      227.564      119.339    76487.725    51785.373    14241.870       11.841        7.126      306.771      129.576        0.178      349.632       30.200      855.883
09/17/2014  14:32:00     -407.620     -211.042       -2.855      270.494      253.071      104.797    73166.783    64045.028    10982.413       17.942        7.410      459.013      113.959        0.062      349.412       29.818      855.890
09/17/2014  14:33:00     -277.099     -122.578       -0.812      215.765      163.446       92.437    46554.603    26714.587     8544.533        8.680        4.091      303.000       97.803        0.104      349.536       30.033      855.900
09/17/2014  14:34:00     -306.451     -322.216      -20.784      174.663      134.192       84.875    30507.018    18007.602     7203.838       12.693        2.786      444.675       92.960        0.044      349.436       29.859      855.922
09/17/2014  14:35:00     -286.148     -243.054       -6.377      177.213      131.678       81.193    31404.487    17339.087     6592.340        9.816        2.767      375.441       84.538        0.051      349.512       29.991      855.942
09/17/2014  14:36:00     -156.792      -98.408        9.309      158.753      125.948       66.512    25202.376    15862.985     4423.860        3.991        2.274      185.116       72.925        0.155      349.783       30.462      855.949
09/17/2014  14:37:00     -412.690     -249.413       -1.754      256.697      222.945      107.171    65893.397    49704.271    11485.696       17.978        6.354      482.203      130.899        0.074      349.597       30.136      855.909
09/17/2014  14:38:00     -395.821     -544.478      -10.142      286.047      263.721      131.146    81822.687    69548.795    17199.227       31.087        8.429      673.150      120.354        0.032      349.448       29.880      855.913
09/17/2014  14:39:00     -342.993     -207.326       31.276      277.905      215.597      113.047    77231.375    46482.137    12779.547       14.902        6.825      400.784      137.475        0.118      349.578       30.104      855.862
09/17/2014  14:40:00     -249.176     -229.327       16.260      244.797      213.782      106.201    59925.453    45702.919    11278.548       11.590        5.845      338.644      120.607        0.127      349.474       29.925      855.842
09/17/2014  14:41:00     -346.801     -404.903      -18.349      187.732      250.834       87.470    35243.221    62917.793     7651.066       19.516        5.291      533.120       78.457        0.022      349.434       29.854      855.864
09/17/2014  14:42:00     -489.742     -342.242      -12.651      296.165      308.081      112.586    87713.573    94913.639    12675.589       27.618        9.765      597.475      122.017        0.042      349.374       29.750      855.763
09/17/2014  14:43:00     -450.960     -355.359       -2.700      278.085      276.564      126.719    77331.531    76487.581    16057.745       24.973        8.494      574.147      139.518        0.059      349.400       29.796      855.734
09/17/2014  14:44:00     -356.068     -360.628       -4.376      306.514      190.798      110.261    93950.660    36403.877    12157.390       19.966        7.126      506.791       99.014        0.038      349.447       29.875      855.747
09/17/2014  14:45:00     -260.676     -417.209       -7.606      201.990      249.806       95.917    40799.825    62403.045     9200.014       17.722        5.620      491.950      100.062        0.041      349.459       29.899      855.893
09/17/2014  14:46:00     -167.239     -288.415       -2.918      146.776      149.025       80.173    21543.171    22208.426     6427.728        8.066        2.509      333.395       55.214        0.027      349.352       29.712      855.900
09/17/2014  14:47:00     -108.278     -202.346        4.660      192.152      177.308       94.868    36922.569    31438.187     8999.979        6.501        3.868      229.495       52.507        0.052      349.548       30.053      855.844
09/17/2014  14:48:00      -83.066     -284.096      -26.783      197.948      161.100       88.122    39183.427    25953.272     7765.459        8.060        3.645      295.991       52.776        0.032      349.497       29.964      855.868
09/17/2014  14:49:00      -92.651     -138.670       13.727      129.182      122.647       61.971    16687.878    15042.330     3840.383        3.178        1.779      166.774       60.674        0.132      349.693       30.305      855.809
09/17/2014  14:50:00     -211.176     -189.689        3.718      158.438      113.267       67.874    25102.455    12829.388     4606.898        6.156        2.127      283.861       78.529        0.077      349.744       30.393      855.771
09/17/2014  14:51:00     -399.565     -243.581        2.852      197.357      155.621       83.094    38949.926    24218.019     6904.598       14.452        3.504      467.957       96.049        0.042      349.423       29.836      855.727
09/17/2014  14:52:00     -451.047     -314.054      -23.368      229.207      182.013       98.095    52535.733    33128.881     9622.557       19.893        4.764      549.612      104.121        0.036      349.416       29.824      855.705
09/17/2014  14:53:00     -224.185     -317.649       -4.356      129.362      196.234       75.732    16734.620    38507.806     5735.383       10.607        3.049      388.793       77.139        0.039      349.432       29.850      855.748
09/17/2014  14:54:00     -236.082     -132.048       -9.043      152.476      144.569       77.118    23249.072    20900.158     5947.114        6.166        2.505      270.502       74.526        0.076      349.677       30.277      855.674
09/17/2014  14:55:00     -366.689     -267.246       -5.025      244.775      157.194      101.367    59914.842    24710.011    10275.273       15.038        4.745      453.742      112.121        0.061      349.517       30.000      855.630
09/17/2014  14:56:00     -334.841     -291.624      -10.962      183.401      173.387       86.879    33635.751    30063.210     7548.047       13.425        3.562      444.030       85.043        0.037      349.666       30.255      855.675
09/17/2014  14:57:00     -394.506     -208.574        3.201      265.204      149.984       90.663    70333.211    22495.288     8219.849       15.008        5.052      446.249      100.021        0.050      349.458       29.897      855.708
09/17/2014  14:58:00     -438.658     -498.145      -15.230      291.606      257.118      141.906    85034.170    66109.479    20137.422       30.601        8.564      663.753      140.106        0.045      349.257       29.550      855.693
09/17/2014  14:59:00     -549.508     -363.545      -24.781      256.699      213.470      101.312    65894.157    45569.467    10264.069       27.821        6.086      658.880      119.423        0.033      349.112       29.297      855.640
09/17/2014  15:00:00     -311.117     -186.598        9.004      145.928      164.441       80.050    21294.872    27040.779     6407.961        9.321        2.737      362.785       85.133        0.055      349.337       29.686      855.652
09/17/2014  15:01:00     -406.668     -270.607      -26.141      200.268      160.674       86.119    40107.313    25816.270     7416.526       15.630        3.667      488.474       95.953        0.039      349.484       29.941      855.653
09/17/2014  15:02:00     -608.425     -242.916       -7.315      437.247      290.388      137.159   191184.695    84325.112    18812.471       36.172       14.716      655.126      190.182        0.084      349.399       29.795      855.549
09/17/2014  15:03:00     -587.203     -395.475      -18.135      308.821      277.771      137.780    95370.382    77156.493    18983.237       34.649        9.576      707.960      163.709        0.053      349.218       29.480      855.554
09/17/2014  15:04:00     -477.298     -244.711       -3.535      276.763      211.183      126.126    76598.031    44598.442    15907.846       21.238        6.855      536.373      149.696        0.078      349.284       29.595      855.556
09/17/2014  15:05:00     -465.250     -516.482       -6.223      281.710      348.870      125.802    79360.446   121710.000    15826.219       35.003       10.845      695.134      142.800        0.042      349.389       29.777      855.542
09/17/2014  15:06:00     -339.750     -554.234      -11.927      265.181      274.200      134.869    70321.208    75185.663    18189.757       29.319        8.185      650.081      114.681        0.031      349.470       29.918      855.668
09/17/2014  15:07:00     -234.103     -180.994       -2.962      235.921      197.544       83.828    55658.793    39023.736     7027.169        9.462        5.085      295.910       61.871        0.044      349.491       29.955      855.731
09/17/2014  15:08:00     -361.905     -268.485      -18.616      180.453      169.044       85.289    32563.419    28575.775     7274.290       13.590        3.421      450.621       76.634        0.029      349.315       29.650      855.607
09/17/2014  15:09:00     -262.491     -335.790       -3.599      204.098      256.442       98.836    41655.937    65762.702     9768.563       14.941        5.859      426.212       75.767        0.032      349.479       29.932      855.535
09/17/2014  15:10:00     -137.498     -401.614       -3.466      312.335      238.595      123.664    97553.023    56927.459    15292.681       17.496        8.489      424.499      104.160        0.060      349.519       30.002      855.545
09/17/2014  15:11:00      -61.364     -243.098        1.337      153.837      159.897       77.973    23665.757    25566.909     6079.750        5.908        2.766      250.724       86.719        0.120      349.627       30.191      855.590
09/17/2014  15:12:00      -18.587     -219.992       -3.395      152.144      201.269       91.460    23147.847    40509.372     8364.978        6.037        3.601      220.776       78.964        0.128      349.577       30.106      855.608
09/17/2014  15:13:00      -83.727     -174.110        3.558      155.974      124.645       75.788    24327.816    15536.262     5743.869        4.146        2.280      193.196       64.515        0.112      349.715       30.344      855.586
09/17/2014  15:14:00     -116.402     -170.657       10.727      162.489      156.952       86.967    26402.758    24633.815     7563.177        5.068        2.930      206.575       62.736        0.092      349.814       30.514      855.671
09/17/2014  15:15:00     -238.734     -276.258      -25.071      159.319      144.416       64.691    25382.582    20855.898     4184.984        9.217        2.521      365.120       71.617        0.038      349.499       29.970      855.625
09/17/2014  15:16:00     -344.682     -257.066      -11.420      195.725      145.656       75.607    38308.302    21215.578     5716.377       12.512        3.262      429.987       85.419        0.039      349.478       29.931      855.620
09/17/2014  15:17:00     -203.625     -359.291       -7.662      132.000      204.971       91.153    17423.898    42013.057     8308.793       11.917        3.387      412.981       83.571        0.041      349.341       29.693      855.587
09/17/2014  15:18:00     -197.554     -231.139       -6.580      129.221      125.864       65.655    16698.165    15841.773     4310.544        6.467        1.843      304.061       67.134        0.049      349.281       29.591      855.570
09/17/2014  15:19:00     -169.772     -209.398        3.810      215.714      156.020       86.762    46532.499    24342.128     7527.688        7.553        3.920      269.574       72.408        0.072      349.431       29.851      855.574
09/17/2014  15:20:00     -153.515     -205.833       17.010      146.016      198.702       72.350    21320.754    39482.538     5234.487        6.612        3.302      256.777       81.290        0.100      349.450       29.883      855.586
09/17/2014  15:21:00      -37.340     -200.798        1.369      123.717      111.568       64.284    15305.818    12447.407     4132.482        3.679        1.594      204.240       51.540        0.064      349.501       29.971      855.554
09/17/2014  15:22:00      -83.924     -173.314       -8.833      154.505       96.057       78.619    23871.710     9226.876     6180.871        3.821        1.964      192.564       51.785        0.072      349.475       29.926      855.496
09/17/2014  15:23:00     -409.918     -245.248       -6.414      266.374      256.977      113.788    70955.199    66037.020    12947.801       18.905        7.497      477.682      130.193        0.074      349.450       29.883      855.464
09/17/2014  15:24:00     -469.663     -263.164        3.799      239.715      188.490      128.086    57463.335    35528.355    16406.077       19.960        5.470      538.367      136.599        0.064      349.389       29.777      855.482
09/17/2014  15:25:00     -191.742     -228.298       -0.613      158.234      156.347       91.322    25038.126    24444.449     8339.791        7.334        2.891      298.135       90.861        0.093      349.367       29.738      855.497
09/17/2014  15:26:00     -270.542     -145.436        7.818      156.737      159.342       96.664    24566.512    25389.951     9344.009        7.684        2.965      307.155       92.512        0.091      349.487       29.947      855.435
09/17/2014  15:27:00     -552.312     -389.572      -28.178      231.878      201.942      115.106    53767.183    40780.534    13249.404       28.268        5.390      675.881      126.241        0.035      349.190       29.431      855.364
09/17/2014  15:28:00     -428.219     -335.088       -5.807      266.905      222.719      127.701    71238.168    49603.910    16307.601       21.639        6.857      543.742      150.645        0.077      349.312       29.644      855.417
09/17/2014  15:29:00     -306.103     -406.348       -5.070      200.319      277.163       97.921    40127.848    76819.124     9588.507       19.266        6.327      508.741      131.844        0.067      349.145       29.355      855.459
09/17/2014  15:30:00     -302.576     -329.685       11.751      173.817      261.703      105.807    30212.302    68488.263    11195.038       15.512        5.495      447.487       93.960        0.044      349.311       29.642      855.440
09/17/2014  15:31:00     -278.523     -320.058       -6.189      196.954      121.655       90.810    38791.064    14800.049     8246.531       12.093        3.092      424.279       86.470        0.042      349.249       29.534      855.481
09/17/2014  15:32:00     -420.286     -250.840        1.962      173.531      162.302       92.240    30112.947    26341.826     8508.215       15.225        3.248      489.449       92.285        0.036      349.215       29.475      855.491
09/17/2014  15:33:00     -443.292     -274.442      -35.525      143.329      131.617       76.884    20543.298    17322.920     5911.186       15.842        2.189      521.369       54.395        0.011      349.068       29.220      855.455
09/17/2014  15:34:00     -369.597     -120.318       -5.071      190.004      161.662       73.086    36101.363    26134.673     5341.499       10.933        3.379      388.688       76.312        0.039      349.183       29.419      855.368
09/17/2014  15:35:00     -493.263     -118.735      -27.046      227.021      171.252       92.276    51538.331    29327.143     8514.831       17.374        4.469      507.352      112.109        0.049      349.015       29.129      855.357
09/17/2014  15:36:00     -316.416     -119.089        2.396      231.598      157.245       99.082    53637.408    24726.042     9817.307       10.123        4.409      338.085      122.540        0.131      349.060       29.209      855.380
09/17/2014  15:37:00     -422.345     -235.286      -23.302      235.423      187.484       86.153    55423.809    35150.172     7422.411       16.612        4.900      483.462      107.216        0.049      349.014       29.127      855.354
09/17/2014  15:38:00     -349.849     -198.647       -6.674      205.320      167.499      106.000    42156.472    28055.870    11236.097       12.166        4.072      402.312      101.978        0.064      349.018       29.134      855.324
09/17/2014  15:39:00     -476.985     -255.822      -31.015      221.269      147.365      100.044    48960.050    21716.358    10008.857       18.729        4.034      541.257      111.845        0.043      348.967       29.047      855.320
09/17/2014  15:40:00     -471.820     -289.024      -20.587      265.130      246.435       95.598    70293.941    60730.199     9138.969       22.334        7.008      553.308      115.534        0.044      349.011       29.122      855.334
09/17/2014  15:41:00     -373.449     -286.173      -22.786      217.816      185.188       87.915    47443.916    34294.591     7729.131       15.566        4.473      470.489       92.940        0.039      348.967       29.046      855.311
09/17/2014  15:42:00     -495.774     -329.466      -10.001      187.128      175.717      106.390    35016.965    30876.301    11318.815       21.581        3.861      595.264      107.331        0.033      349.075       29.234      855.306
09/17/2014  15:43:00     -422.729     -194.895      -30.626      187.204      143.289       81.161    35045.232    20531.778     6587.044       13.988        3.108      465.494       93.633        0.040      349.104       29.283      855.347
09/17/2014  15:44:00     -248.079     -142.753        4.609      156.625      132.670       59.478    24531.508    17601.309     3537.577        6.380        2.284      286.220       56.064        0.038      349.221       29.485      855.379
09/17/2014  15:45:00     -198.601     -175.840       16.668      172.219      145.012       92.522    29659.520    21028.363     8560.391        6.493        2.962      265.259       96.572        0.133      349.244       29.526      855.373
09/17/2014  15:46:00     -195.249     -175.437       -9.255      106.403      128.747       55.140    11321.506    16575.876     3040.368        4.996        1.547      262.488       55.244        0.044      349.200       29.449      855.330
09/17/2014  15:47:00     -234.907     -208.121        2.051      157.345      152.499       79.616    24757.480    23255.900     6338.719        7.642        2.718      313.840       85.467        0.074      349.206       29.460      855.301
09/17/2014  15:48:00     -261.518     -195.615        5.114      164.648      131.320       73.075    27108.865    17245.040     5340.025        7.818        2.485      326.584       73.800        0.051      349.187       29.428      855.305
09/17/2014  15:49:00     -210.022     -213.301        6.971      125.863      122.052       73.844    15841.570    14896.747     5452.913        6.292        1.810      299.344       70.094        0.055      349.190       29.434      855.332
09/17/2014  15:50:00     -413.403     -232.302      -12.893      188.583      186.164       91.523    35563.586    34657.021     8376.550       15.180        3.930      474.200       97.162        0.042      348.926       28.976      855.328
09/17/2014  15:51:00     -434.627     -205.543        8.561      246.548      182.848       97.381    60785.853    33433.328     9482.992       16.744        5.185      480.779      125.237        0.068      348.814       28.781      855.350
09/17/2014  15:52:00     -302.044     -176.222       -5.253      185.298      169.577       83.945    34335.443    28756.418     7046.837        9.621        3.507      349.692       86.046        0.061      348.927       28.977      855.379
09/17/2014  15:53:00     -231.768     -312.180        1.870      174.290      152.101       76.279    30376.924    23134.714     5818.553       10.524        2.967      388.809       67.084        0.030      349.069       29.221      855.353
09/17/2014  15:54:00     -296.222     -233.334      -20.684      139.720      134.801       71.394    19521.541    18171.402     5097.061        9.270        2.140      377.084       59.979        0.025      349.230       29.502      855.297
09/17/2014  15:55:00     -378.117     -169.580      -22.838      169.243      120.594       76.071    28643.270    14542.962     5786.765       11.060        2.449      414.403       79.955        0.037      349.267       29.566      855.280
09/17/2014  15:56:00     -215.025     -130.637       28.983      186.540      147.128       91.534    34797.143    21646.725     8378.535        6.447        3.241      251.598       99.357        0.156      349.352       29.713      855.285
09/17/2014  15:57:00     -327.316     -155.182       -4.986      169.500      149.402       75.662    28730.270    22321.037     5724.767        9.400        2.839      362.239       86.097        0.056      349.241       29.522      855.231
09/17/2014  15:58:00     -382.774     -215.919       -2.806      212.065      163.606       91.057    44971.604    26766.953     8291.315       13.657        4.001      439.473       95.914        0.048      349.115       29.303      855.243
09/17/2014  15:59:00     -302.813     -117.212       -4.322      197.697      141.309       76.385    39083.999    19968.154     5834.681        8.516        3.244      324.707       88.132        0.074      348.997       29.100      855.290
09/17/2014  16:00:00     -408.989     -196.977       -3.399      198.578      208.761      105.176    39433.370    43581.276    11061.946       15.006        4.704      453.951      101.309        0.050      348.801       28.758      855.263
09/17/2014  16:01:00     -215.228     -187.949       18.843      209.545      181.591       93.012    43908.948    32975.416     8651.300        8.375        4.277      285.741      100.318        0.123      348.744       28.661      855.189
09/17/2014  16:02:00     -297.969     -193.177       21.262      238.355      159.030      105.245    56813.163    25290.516    11076.556       10.985        4.659      355.109      126.762        0.127      348.709       28.599      855.183
09/17/2014  16:03:00     -367.671     -276.452      -15.572      167.977      130.395       72.681    28216.395    17002.809     5282.535       13.117        2.525      460.008       70.345        0.023      348.636       28.474      855.271
09/17/2014  16:04:00     -300.920     -168.096       -5.958      186.524      170.243       81.507    34791.341    28982.671     6643.350        9.462        3.521      344.687       78.228        0.052      348.578       28.372      855.269
09/17/2014  16:05:00     -217.478      -41.719        8.842      199.936      135.597       73.358    39974.268    18386.466     5381.358        5.642        3.187      221.443       79.470        0.129      348.460       28.169      855.167
09/17/2014  16:06:00     -579.196     -109.176      -16.500      298.486      183.800      110.379    89094.067    33782.293    12183.616       24.133        6.753      589.396      127.201        0.047      348.343       27.966      855.066
09/17/2014  16:07:00     -194.178     -118.082        4.165      187.091      146.121       89.717    35003.087    21351.289     8049.140        5.802        3.220      227.263       70.042        0.095      348.495       28.229      855.208
09/17/2014  16:08:00     -309.606     -131.994      -17.069      182.791      136.428       79.833    33412.713    18612.556     6373.271        8.597        2.920      336.568       81.677        0.059      348.361       27.998      855.217
09/17/2014  16:09:00     -235.238     -197.594       -2.770      181.213      188.112       87.367    32838.145    35386.204     7632.947        8.511        3.793      307.213      101.889        0.110      348.327       27.939      855.188
09/17/2014  16:10:00     -398.233     -245.615      -11.306      165.214      157.853       90.522    27295.831    24917.517     8194.239       13.971        3.020      467.885       84.409        0.033      348.314       27.915      855.226
09/17/2014  16:11:00     -324.406     -161.171       -3.998      182.700      113.924       72.240    33379.392    12978.741     5218.612        9.139        2.579      362.236       77.823        0.046      348.324       27.932      855.238
09/17/2014  16:12:00     -118.082     -127.744        6.198      116.386       79.226       51.025    13545.632     6276.685     2603.514        2.636        1.121      173.959       48.214        0.077      348.373       28.019      855.209
09/17/2014  16:13:00     -196.402     -108.970        4.947      161.396      136.163       74.844    26048.577    18540.461     5601.587        5.032        2.510      224.607       88.328        0.155      348.407       28.080      855.182
09/17/2014  16:14:00     -236.414      -88.235      -13.167      178.185      153.320       72.731    31749.872    23507.127     5289.852        6.219        3.027      252.343       61.706        0.060      348.325       27.936      855.171
09/17/2014  16:15:00     -205.155     -177.266        5.811      113.271       91.640       46.041    12830.216     8397.865     2119.762        4.844        1.167      271.131       46.777        0.030      348.343       27.967      855.170
09/17/2014  16:16:00     -210.647     -331.225      -10.867      156.329      215.506       84.629    24438.784    46442.983     7162.047       11.611        3.902      392.533       91.323        0.054      348.293       27.880      855.230
09/17/2014  16:17:00     -290.902     -285.817       -0.906      194.890      177.535       99.726    37982.021    31518.537     9945.272       12.287        3.972      407.818      118.606        0.085      348.267       27.835      855.191
09/17/2014  16:18:00     -436.565     -316.866       -5.059      207.254      193.290       93.692    42954.237    37360.902     8778.176       19.004        4.455      539.437      104.328        0.037      348.260       27.823      855.167
09/17/2014  16:19:00     -287.180     -282.139        2.739      198.286      174.863       81.985    39317.148    30577.008     6721.589       11.933        3.831      402.585       86.914        0.047      348.232       27.774      855.147
09/17/2014  16:20:00     -483.875     -266.860      -19.162      201.303      210.760       84.972    40523.052    44419.632     7220.326       19.892        4.608      552.584      101.544        0.034      348.271       27.841      855.115
09/17/2014  16:21:00     -324.815     -100.336       -3.406      189.461      191.361       78.744    35895.415    36618.899     6200.628        9.713        3.936      339.959       93.716        0.076      348.351       27.981      855.095
09/17/2014  16:22:00     -365.813     -142.742      -19.640      220.035      132.138       71.550    48415.295    17460.468     5119.415       11.277        3.550      392.675       87.139        0.049      348.376       28.025      855.064
09/17/2014  16:23:00     -261.862      -38.922       -7.595      180.496      159.416       83.463    32578.984    25413.350     6966.038        6.754        3.248      264.739       90.535        0.117      348.513       28.260      855.067
09/17/2014  16:24:00     -464.530      -80.436      -19.225      212.376      143.792       83.982    45103.751    20676.138     7052.935       14.772        3.642      471.442       97.437        0.043      348.513       28.261      855.057
09/17/2014  16:25:00     -505.775       58.712      -31.694      244.548      173.003       94.263    59803.495    29929.916     8885.486       17.942        4.931      509.171      111.739        0.048      348.362       28.000      854.973
09/17/2014  16:26:00     -551.873     -136.025      -36.496      229.494      166.058       79.369    52667.335    27575.176     6299.499       20.545        4.327      568.389       79.009        0.019      348.325       27.935      854.912
09/17/2014  16:27:00     -364.191      -52.073      -18.088      193.776      148.865       85.604    37549.252    22160.930     7327.985       10.134        3.352      367.895       93.140        0.064      348.369       28.011      854.888
09/17/2014  16:28:00     -288.961     -166.219       -8.700      202.163      165.069       64.487    40869.958    27247.674     4158.523        9.173        3.614      333.358       63.673        0.036      348.394       28.054      854.904
09/17/2014  16:29:00     -711.860     -143.345      -33.560      277.041      192.602      103.284    76751.792    37095.569    10667.664       32.644        6.226      726.149      124.889        0.030      348.241       27.790      854.924
09/17/2014  16:30:00     -612.313     -222.113      -34.735      269.941      232.416      111.411    72868.068    54017.378    12412.309       28.236        6.965      651.354      114.429        0.031      348.163       27.654      854.951
09/17/2014  16:31:00     -577.516     -264.443      -12.779      345.900      197.019      137.598   119646.718    38816.593    18933.194       29.047        8.870      635.181      162.746        0.066      348.122       27.584      855.013
09/17/2014  16:32:00     -576.868     -268.802      -23.791      350.315      227.943      127.112   122720.708    51958.034    16157.399       29.818        9.542      636.421      140.488        0.049      347.961       27.305      855.019
09/17/2014  16:33:00     -707.536     -130.218      -59.292      303.717      222.191      109.855    92244.276    49368.925    12068.223       33.735        7.684      719.419      113.189        0.025      347.950       27.286      854.980
09/17/2014  16:34:00     -277.939      -24.219        8.976      207.915      205.471      105.865    43228.457    42218.213    11207.308        8.727        4.833      278.993      113.384        0.165      348.193       27.705      855.001
09/17/2014  16:35:00     -395.825     -187.973      -13.311      263.080      219.427      125.228    69210.933    48148.334    15682.137       16.259        6.652      438.191      143.210        0.107      348.107       27.558      854.963
09/17/2014  16:36:00     -525.203     -184.630      -25.636      287.547      216.282      102.130    82683.109    46777.702    10430.572       22.521        6.995      556.711      123.606        0.049      347.941       27.272      854.894
09/17/2014  16:37:00     -409.033     -144.748       -9.072      251.728      172.303       94.809    63367.137    29688.257     8988.676       14.517        5.102      433.889      112.455        0.067      348.110       27.564      854.899
09/17/2014  16:38:00     -469.481      -77.914      -10.392      302.436      209.979      116.046    91467.498    44091.125    13466.661       18.778        7.451      475.902      139.136        0.085      348.016       27.401      854.912
09/17/2014  16:39:00     -738.038       -0.581      -56.530      272.353      187.242      102.693    74176.095    35059.737    10545.771       33.381        5.989      738.038      121.233        0.027      347.965       27.313      854.861
09/17/2014  16:40:00     -655.345     -164.742       -0.015      337.970      227.800      110.319   114223.911    51892.763    12170.369       31.742        8.914      675.735      142.291        0.044      347.944       27.277      854.842
09/17/2014  16:41:00     -501.445     -136.718       19.869      393.863      257.146      154.819   155127.746    66123.844    23968.963       25.783       12.261      519.749      197.333        0.144      347.805       27.038      854.762
09/17/2014  16:42:00     -756.784     -144.024      -35.680      304.041      222.315      130.240    92440.932    49423.855    16962.347       37.675        7.941      770.367      150.841        0.038      347.735       26.917      854.772
09/17/2014  16:43:00     -578.420      -55.097      -50.286      286.933      196.747      103.373    82330.586    38709.573    10685.917       23.590        6.586      581.038      121.611        0.044      347.784       27.001      854.760
09/17/2014  16:44:00     -506.721     -130.248      -17.329      314.756      192.750      113.948    99071.533    37152.400    12984.060       21.159        7.460      523.193      123.442        0.056      347.806       27.037      854.816
09/17/2014  16:45:00     -518.439     -193.720       -9.160      251.506      190.163      106.954    63255.191    36162.086    11439.135       20.860        5.543      553.449      115.521        0.044      347.824       27.070      854.924
09/17/2014  16:46:00     -396.031     -201.998      -17.089      237.528      172.615       92.950    56419.700    29795.937     8639.673       14.638        4.743      444.572      103.490        0.054      347.802       27.031      854.946
09/17/2014  16:47:00     -570.785     -143.224      -34.883      256.370      195.199      120.389    65725.603    38102.647    14493.408       23.290        5.916      588.480      123.664        0.044      347.753       26.946      854.939
09/17/2014  16:48:00     -329.719     -167.451       -2.154      215.073      212.258      120.536    46256.516    45053.568    14528.995       12.128        5.292      369.803      118.874        0.103      347.854       27.120      854.982
09/17/2014  16:49:00     -274.348      -20.136       -6.617      233.027      176.694       97.436    54301.789    31220.643     9493.723        8.535        4.751      275.086      111.488        0.164      347.787       27.006      854.943
09/17/2014  16:50:00     -425.076       65.216      -15.632      253.280      167.514      109.529    64150.967    28060.913    11996.708       14.468        5.210      430.049      120.712        0.079      347.738       26.921      854.911
09/17/2014  16:51:00     -602.138      -64.734      -19.550      262.431      227.899      128.547    68870.076    51937.769    16524.389       25.221        6.867      605.608      144.834        0.057      347.630       26.735      854.918
09/17/2014  16:52:00     -237.150     -133.130       15.380      195.875      152.010       93.302    38367.149    23107.190     8705.293        7.218        3.509      271.963      110.306        0.165      347.664       26.796      854.859
09/17/2014  16:53:00     -485.308     -139.065      -40.324      263.742      254.789       94.171    69559.682    64917.260     8868.268       19.989        7.167      504.839      114.630        0.052      347.691       26.841      854.823
09/17/2014  16:54:00     -556.620     -182.664      -28.668      205.011      190.114      102.821    42029.635    36143.236    10572.173       21.636        4.437      585.825      107.436        0.034      347.622       26.722      854.857
09/17/2014  16:55:00     -594.356     -233.824      -11.874      309.942      251.357      132.725    96064.248    63180.297    17615.999       29.243        8.843      638.696      152.521        0.057      347.524       26.551      854.901
09/17/2014  16:56:00     -455.056     -115.175      -30.331      248.375      171.784       89.136    61690.211    29509.576     7945.237       16.018        4.957      469.405      100.441        0.046      347.700       26.855      854.874
09/17/2014  16:57:00     -525.769     -145.396      -16.046      317.541      222.745      117.323   100832.293    49615.128    13764.612       23.099        8.211      545.502      133.824        0.060      347.576       26.641      854.911
09/17/2014  16:58:00     -458.928     -135.616      -19.113      230.628      166.986      104.017    53189.128    27884.445    10819.478       16.061        4.595      478.546      114.927        0.058      347.589       26.663      854.950
09/17/2014  16:59:00     -420.908     -151.536      -14.218      250.838      177.751      109.856    62919.540    31595.559    12068.360       15.343        5.329      447.355      120.457        0.073      347.602       26.686      854.982
09/17/2014  17:00:00     -347.038      -57.856        5.635      282.150      204.796      113.540    79608.661    41941.517    12891.220       12.910        6.722      351.828      137.610        0.153      347.593       26.672      854.936
09/17/2014  17:01:00     -592.877       35.156      -27.336      340.256      206.698      134.013   115774.295    42723.863    17959.586       26.494        8.823      593.918      162.745        0.075      347.481       26.478      854.902
09/17/2014  17:02:00     -573.732     -161.268      -20.458      345.464      211.254      118.338   119345.446    44628.131    14003.816       26.675        8.899      595.966      156.124        0.069      347.420       26.373      854.906
09/17/2014  17:03:00     -575.760      -80.488      -28.539      271.396      205.039       96.046    73655.649    42040.887     9224.782       23.183        6.246      581.359      117.462        0.041      347.419       26.371      854.885
09/17/2014  17:04:00     -462.139     -234.639        2.709      301.842      252.016      124.693    91108.671    63512.008    15548.280       21.937        8.508      518.293      130.315        0.063      347.429       26.388      854.900
09/17/2014  17:05:00     -536.486      -96.118      -35.559      223.286      232.799      119.837    49856.512    54195.350    14360.800       20.834        5.921      545.029      134.714        0.061      347.453       26.428      854.972
09/17/2014  17:06:00     -468.750      -66.376       -7.951      277.697      194.747      113.936    77115.530    37926.556    12981.488       17.608        6.401      473.426      130.634        0.076      347.409       26.354      854.953
09/17/2014  17:07:00     -517.267      -23.174      -34.161      243.776      185.876      105.599    59426.816    34549.850    11151.215       18.718        5.256      517.786      108.208        0.044      347.349       26.249      854.935
09/17/2014  17:08:00     -586.567     -126.828       -9.328      236.602      192.600      116.214    55980.426    37094.783    13505.762       23.339        5.329      600.122      120.866        0.041      347.278       26.128      854.924
09/17/2014  17:09:00     -663.260     -184.414      -12.975      372.946      229.452      126.597   139088.849    52648.050    16026.805       34.089       10.388      688.420      150.872        0.048      347.213       26.015      854.897
09/17/2014  17:10:00     -605.921     -102.029      -39.893      239.289      212.460       88.806    57259.157    45139.240     7886.532       24.469        5.514      614.451       99.386        0.026      347.203       25.999      854.923
09/17/2014  17:11:00     -245.838     -129.053        0.771      212.154      163.302       85.063    45009.348    26667.601     7235.653        7.799        3.946      277.652       95.872        0.119      347.301       26.168      854.882
09/17/2014  17:12:00     -339.461       -8.739      -16.786      274.988      112.543       93.755    75618.315    12665.823     8789.949       10.631        4.854      339.573      112.661        0.110      347.353       26.258      854.905
09/17/2014  17:13:00     -425.473     -164.356      -15.244      277.964      192.743       97.751    77263.899    37149.896     9555.167       16.610        6.198      456.114      120.274        0.070      347.343       26.239      854.864
09/17/2014  17:14:00     -590.653     -149.106      -19.781      266.916      223.027      115.333    71243.973    49740.949    13301.636       25.286        6.714      609.183      130.462        0.046      347.329       26.216      854.877
09/17/2014  17:15:00     -455.439      -82.300       -9.647      321.327      240.613      116.344   103251.328    57894.513    13535.855       19.445        8.734      462.816      146.966        0.101      347.349       26.250      854.802
09/17/2014  17:16:00     -710.739      -91.688      -59.122      189.111      194.036      109.368    35763.035    37650.141    11961.334       30.120        4.269      716.629      102.506        0.020      347.318       26.196      854.727
09/17/2014  17:17:00     -562.668     -104.887       -3.967      280.673      205.609      110.940    78777.356    42274.923    12307.595       23.046        6.668      572.361      133.459        0.054      347.338       26.233      854.740
09/17/2014  17:18:00     -559.502      -52.148      -13.134      244.667      202.152       93.487    59861.885    40865.280     8739.781       21.268        5.473      561.927       91.788        0.027      347.250       26.080      854.836
09/17/2014  17:19:00     -477.599      -96.848      -31.898      222.772      171.512       93.882    49627.180    29416.244     8813.772       16.316        4.393      487.320      108.398        0.049      347.355       26.260      854.881
09/17/2014  17:20:00     -526.588     -143.481       -9.693      299.344      184.221      119.928    89606.691    33937.450    14382.645       21.792        6.896      545.785      146.452        0.072      347.297       26.160      854.920
09/17/2014  17:21:00     -326.475      -55.300      -14.482      240.954      215.891      117.492    58058.755    46609.082    13804.447       11.414        5.924      331.125      128.824        0.151      347.334       26.224      854.885
09/17/2014  17:22:00     -393.862     -110.888      -23.382      213.627      140.692       91.101    45636.439    19794.231     8299.382       12.084        3.687      409.174      107.884        0.070      347.309       26.181      854.916
09/17/2014  17:23:00     -495.107     -272.677      -18.869      301.896      185.003      112.800    91141.323    34225.926    12723.752       22.894        6.905      565.229      129.925        0.053      347.269       26.112      854.880
09/17/2014  17:24:00     -459.473     -226.203      -10.633      260.237      217.591       98.791    67723.450    47345.930     9759.625       19.359        6.241      512.136      123.905        0.059      347.263       26.102      854.865
09/17/2014  17:25:00     -164.749      -93.870        9.970      225.330      145.140      115.198    50773.647    21065.728    13270.537        6.056        4.255      189.614      110.546        0.340      347.344       26.242      854.872
09/17/2014  17:26:00     -465.982      -96.595      -15.785      191.397      155.748       88.159    36632.910    24257.288     7772.051       14.768        3.433      475.889       88.838        0.035      347.317       26.195      854.902
09/17/2014  17:27:00     -473.489      -44.841      -11.523      280.134      208.222      109.175    78475.213    43356.559    11919.139       18.002        6.688      475.607      117.192        0.061      347.328       26.214      854.909
09/17/2014  17:28:00     -579.465      -27.909      -26.767      239.917      224.669      100.799    57560.307    50476.090    10160.399       22.771        5.910      580.136      105.024        0.033      347.256       26.091      854.937
09/17/2014  17:29:00     -480.152     -188.237      -24.084      245.256      196.539       96.741    60150.599    38627.584     9358.910       18.733        5.407      515.731      114.058        0.049      347.248       26.077      854.933
09/17/2014  17:30:00     -473.661     -227.456      -15.880      298.513      277.811      127.669    89110.208    77179.114    16299.292       22.943        9.129      525.444      137.154        0.068      347.237       26.056      854.919
09/17/2014  17:31:00     -437.615      -46.301      -14.147      226.591      193.853       90.513    51343.562    37578.878     8192.664       14.546        4.856      440.058       91.046        0.043      347.281       26.133      854.905
09/17/2014  17:32:00     -622.741       23.833      -37.177      237.446      189.014      116.552    56380.730    35726.200    13584.404       24.770        5.285      623.197      119.151        0.037      347.211       26.013      854.968
09/17/2014  17:33:00     -529.960      -43.561      -16.955      255.354      203.034       98.592    65205.632    41222.805     9720.312       19.957        5.807      531.747      105.358        0.039      347.208       26.005      854.962
09/17/2014  17:34:00     -737.305     -182.605      -50.879      257.434      210.101      105.707    66272.464    44142.456    11173.981       35.055        6.079      759.582      104.435        0.019      347.149       25.905      854.932
09/17/2014  17:35:00     -444.861     -138.453      -15.232      308.629      187.896      120.841    95251.963    35305.018    14602.564       18.120        7.258      465.908      149.635        0.103      347.145       25.899      854.922
09/17/2014  17:36:00     -677.609      -32.647      -46.481      248.101      197.437      117.327    61554.309    38981.480    13765.619       28.832        5.715      678.395      122.520        0.033      347.106       25.831      854.842
09/17/2014  17:37:00     -524.727     -158.741      -22.475      233.111      192.575      108.781    54340.687    37085.274    11833.392       20.213        5.163      548.213      124.339        0.051      347.138       25.887      854.898
09/17/2014  17:38:00     -330.335      -78.754      -14.646      152.487      174.837       75.273    23252.298    30568.099     5665.967        8.750        2.974      339.593       64.147        0.036      347.165       25.934      854.919
09/17/2014  17:39:00     -715.025     -211.862      -23.489      281.363      222.345      119.641    79165.295    49437.140    14313.989       34.978        7.146      745.752      139.365        0.035      347.054       25.741      854.882
09/17/2014  17:40:00     -722.220       31.825      -43.548      275.949      213.640      111.556    76148.112    45642.232    12444.670       32.935        6.712      722.921      113.020        0.024      347.041       25.720      854.911
09/17/2014  17:41:00     -646.580     -150.856      -33.239      250.217      299.353      102.350    62608.554    89612.203    10475.620       30.228        8.135      663.945       97.000        0.021      347.056       25.745      854.886
09/17/2014  17:42:00     -389.175      -49.551       -0.816      254.502      191.160      125.634    64771.386    36542.165    15783.831       13.548        5.855      392.317      132.617        0.114      347.079       25.784      854.780
09/17/2014  17:43:00     -351.275     -171.475      -17.586      159.216      146.846       86.969    25349.795    21563.625     7563.569       10.378        2.724      390.894       81.021        0.043      347.080       25.787      854.823
09/17/2014  17:44:00     -364.718     -203.056       22.072      300.037      218.100      144.617    90022.017    47567.708    20914.132       16.659        7.925      417.434      165.393        0.157      347.019       25.681      854.824
09/17/2014  17:45:00     -308.777     -213.689       -1.087      272.936      171.370      108.578    74493.928    29367.772    11789.192       12.831        5.783      375.507      130.375        0.121      347.061       25.755      854.850
09/17/2014  17:46:00     -400.092     -235.631       -2.015      307.645      212.818      119.013    94645.727    45291.507    14164.193       18.482        7.705      464.323      133.001        0.082      347.040       25.716      854.853
09/17/2014  17:47:00     -351.819     -175.244        1.257      250.860      172.561      104.264    62930.871    29777.389    10871.039       12.901        5.179      393.049      118.140        0.090      347.034       25.708      854.839
09/17/2014  17:48:00     -433.681     -103.836       -8.051      287.147      237.827      119.853    82453.496    56561.775    14364.845       17.612        7.669      445.938      139.887        0.098      347.056       25.746      854.797
09/17/2014  17:49:00     -292.551     -144.254       13.401      232.970      214.130      100.948    54274.797    45851.779    10190.433       10.842        5.516      326.183      126.263        0.150      347.063       25.758      854.776
09/17/2014  17:50:00     -640.803     -204.727      -17.874      353.335      204.990      110.084   124845.831    42020.898    12118.568       31.589        8.949      672.712      131.579        0.038      346.975       25.607      854.743
09/17/2014  17:51:00     -461.167     -141.341       -8.877      236.242      186.802       98.784    55810.169    34895.069     9758.351       16.658        5.023      482.340       99.318        0.042      346.989       25.629      854.767
09/17/2014  17:52:00     -614.334      -42.803      -25.723      317.483      261.597      120.521   100795.564    68433.037    14525.250       28.179        9.188      615.823      155.881        0.064      346.975       25.608      854.866
09/17/2014  17:53:00     -573.109     -129.019      -39.307      312.486      274.850      124.955    97647.288    75542.614    15613.711       26.769        9.440      587.452      158.657        0.073      346.956       25.573      854.783
09/17/2014  17:54:00     -565.244      -49.871      -32.345      225.453      185.696      112.554    50829.008    34483.114    12668.356       21.049        4.899      567.440      114.948        0.041      346.942       25.549      854.822
09/17/2014  17:55:00     -627.579     -164.354      -38.683      302.695      234.438      112.087    91624.380    54961.081    12563.416       29.072        7.957      648.743      122.824        0.036      346.958       25.576      854.874
09/17/2014  17:56:00     -758.151     -143.236      -15.327      266.571      195.276      123.673    71059.911    38132.859    15294.946       35.999        6.224      771.563      129.300        0.028      346.918       25.507      854.888
09/17/2014  17:57:00     -551.578      -64.512      -30.007      276.872      162.324      104.197    76657.986    26349.210    10856.984       21.156        5.693      555.338      124.812        0.051      346.940       25.545      854.875
09/17/2014  17:58:00     -395.358     -187.421      -20.494      223.690      150.360       89.570    50037.094    22608.119     8022.837       13.625        4.033      437.532       96.380        0.049      346.945       25.555      854.856
09/17/2014  17:59:00     -373.784      -68.912      -21.639      208.152      172.999      100.832    43327.272    29928.664    10167.020       11.416        4.171      380.083      100.407        0.070      346.931       25.530      854.845
09/17/2014  18:00:00     -685.758      -99.318      -43.142      317.310      202.234      130.623   100685.818    40898.689    17062.436       32.029        7.932      692.913      168.900        0.059      346.849       25.390      854.874
09/17/2014  18:01:00     -301.840     -123.335       -4.832      211.768      185.337       94.326    44845.666    34349.627     8897.328        9.720        4.405      326.065       92.470        0.080      346.891       25.461      854.902
09/17/2014  18:02:00     -819.644     -103.614      -32.966      306.956      191.685      124.003    94221.988    36743.269    15376.747       41.496        7.317      826.168      143.536        0.030      346.783       25.274      854.819
09/17/2014  18:03:00     -647.558     -181.283      -19.404      251.006      159.433      100.983    63004.114    25418.812    10197.573       27.558        4.931      672.455      123.551        0.034      346.794       25.295      854.774
09/17/2014  18:04:00     -658.433      -69.917      -34.848      281.449      196.560      110.098    79213.503    38635.989    12121.463       28.478        6.499      662.135      131.118        0.039      346.790       25.290      854.773
09/17/2014  18:05:00     -735.624      -20.191      -66.473      271.815      230.823      125.626    73883.324    53279.187    15781.874       34.443        7.147      735.901      131.495        0.032      346.775       25.262      854.750
09/17/2014  18:06:00     -795.793      -94.911      -62.469      272.628      210.421      118.932    74325.758    44276.915    14144.788       38.945        6.637      801.433      130.973        0.027      346.742       25.205      854.796
09/17/2014  18:07:00     -674.230     -162.511      -30.835      296.016      202.914      134.032    87625.396    41173.981    17964.458       31.433        7.338      693.539      165.086        0.057      346.737       25.196      854.805
09/17/2014  18:08:00     -575.764     -202.168      -16.927      244.006      196.938      117.006    59538.729    38784.478    13690.417       24.232        5.601      610.227      124.858        0.042      346.728       25.181      854.786
09/17/2014  18:09:00     -540.356     -140.187      -30.484      180.593      146.934       82.138    32613.827    21589.735     6746.690       18.675        3.048      558.245       88.005        0.025      346.745       25.209      854.764
09/17/2014  18:10:00     -598.993     -120.328      -21.361      381.148      244.584      126.384   145273.839    59821.227    15972.849       29.735       11.053      610.959      153.379        0.063      346.731       25.184      854.833
09/17/2014  18:11:00     -457.751      -12.603      -11.641      245.561      191.108       90.761    60300.351    36522.161     8237.644       15.742        5.253      457.924       78.488        0.029      346.735       25.191      854.898
09/17/2014  18:12:00     -374.360      -73.930       -5.007      225.623      204.982      123.812    50905.545    42017.499    15329.400       12.692        5.413      381.590      135.853        0.127      346.725       25.176      854.878
09/17/2014  18:13:00     -421.957      -76.916       -0.331      194.359      188.593      103.197    37775.552    35567.167    10649.648       13.396        4.200      428.910       92.314        0.046      346.706       25.141      854.843
09/17/2014  18:14:00     -374.705      -73.567        5.272      195.513      202.198       95.781    38225.403    40884.134     9173.928       11.705        4.414      381.858      101.592        0.071      346.689       25.113      854.797
09/17/2014  18:15:00     -595.592     -115.799      -21.995      283.621      238.511      115.319    80440.675    56887.469    13298.399       25.959        7.531      606.745      131.336        0.047      346.653       25.052      854.769
09/17/2014  18:16:00     -680.413     -182.364      -25.578      213.061      224.692      108.365    45394.802    50486.331    11742.904       30.223        5.381      704.428       83.897        0.014      346.667       25.076      854.796
09/17/2014  18:17:00     -620.776     -102.468      -33.438      255.450      213.598      102.640    65254.652    45624.271    10534.974       25.917        6.071      629.176      120.048        0.036      346.670       25.080      854.839
09/17/2014  18:18:00     -348.255     -135.327        2.569      229.735      199.844       97.103    52778.088    39937.579     9429.037       12.085        5.107      373.624      101.765        0.074      346.676       25.092      854.902
09/17/2014  18:19:00     -490.538      -62.383      -22.281      293.946      222.770      116.274    86404.199    49626.623    13519.680       19.725        7.478      494.488      125.669        0.065      346.641       25.031      854.894
09/17/2014  18:20:00     -529.080     -116.953      -11.663      276.882      233.154      101.369    76663.504    54360.840    10275.594       21.749        7.065      541.852      128.754        0.056      346.632       25.015      854.905
09/17/2014  18:21:00     -373.971     -165.226        8.686      278.956      204.910      118.019    77816.211    41988.056    13928.585       15.045        6.687      408.844      131.923        0.104      346.637       25.024      854.898
09/17/2014  18:22:00     -470.938     -187.600       -8.605      289.829      211.294      100.588    84000.949    44645.199    10118.029       19.788        6.938      506.929      109.104        0.046      346.618       24.993      854.917
09/17/2014  18:23:00     -410.502      -30.110       11.634      243.311      180.587      100.931    59200.177    32611.680    10187.120       13.576        5.100      411.605      117.238        0.081      346.606       24.970      854.911
09/17/2014  18:24:00     -625.750     -202.169      -19.428      311.164      198.638      114.132    96822.827    39456.918    13026.049       29.103        7.465      657.598      127.142        0.037      346.590       24.944      854.854
09/17/2014  18:25:00     -562.371     -139.901      -32.236      243.355      193.249      100.245    59221.840    37345.307    10049.147       22.172        5.331      579.511      108.343        0.035      346.583       24.931      854.868
09/17/2014  18:26:00     -563.701     -114.269      -37.275      283.519      205.065      117.797    80382.816    42051.832    13876.122       23.423        6.816      575.166      130.578        0.052      346.579       24.925      854.930
09/17/2014  18:27:00     -454.559      -77.944      -21.963      269.118      179.651      101.788    72424.246    32274.495    10360.862       16.410        5.753      461.194      115.843        0.063      346.583       24.933      854.988
09/17/2014  18:28:00     -393.105      -89.285      -13.429      203.068      166.218       94.043    41236.751    27628.481     8844.135       12.018        3.885      403.117      102.853        0.065      346.566       24.902      854.970
09/17/2014  18:29:00     -420.306      -71.370       -3.927      199.291      179.040      106.545    39717.077    32055.499    11351.765       13.243        4.156      426.322      105.651        0.061      346.538       24.855      854.924
09/17/2014  18:30:00     -599.342     -205.063      -22.225      236.183      217.244      114.130    55782.232    47194.753    13025.695       25.886        5.800      633.452      129.597        0.042      346.549       24.872      854.982
09/17/2014  18:31:00     -486.797     -124.536      -18.105      240.257      181.687      104.479    57723.662    33010.268    10915.924       17.721        5.082      502.475      117.317        0.055      346.554       24.883      855.010
09/17/2014  18:32:00     -418.514     -117.994      -12.947      237.068      175.411      104.714    56201.367    30768.866    10965.039       14.357        4.897      434.829      114.979        0.070      346.556       24.884      855.041
09/17/2014  18:33:00     -542.784     -198.240      -35.321      193.904      171.061      104.052    37598.943    29261.827    10826.826       20.641        3.884      577.853       99.455        0.030      346.565       24.901      855.085
09/17/2014  18:34:00     -446.835     -273.340      -26.038      208.408      173.428       98.345    43433.970    30077.249     9671.714       17.910        4.159      523.809       99.968        0.036      346.555       24.884      855.098
09/17/2014  18:35:00     -599.341     -130.824      -48.888      249.646      224.502       94.554    62322.939    50401.176     8940.407       25.016        6.083      613.453      100.019        0.027      346.519       24.821      855.037
09/17/2014  18:36:00     -473.282        8.144      -35.848      219.719      160.701       99.100    48276.238    25824.792     9820.801       15.462        4.196      473.352      104.798        0.049      346.493       24.778      855.041
09/17/2014  18:37:00     -527.117      -90.807      -35.452      297.441      187.044      113.607    88470.879    34985.485    12906.535       21.183        6.818      534.881      129.966        0.059      346.470       24.738      855.079
09/17/2014  18:38:00     -433.198     -114.980       -9.336      260.440      188.746       91.298    67828.969    35625.041     8335.374       15.636        5.589      448.198      108.719        0.059      346.461       24.723      855.078
09/17/2014  18:39:00     -175.504      -74.981       11.045      214.364      151.214      105.080    45951.908    22865.618    11041.726        5.819        3.993      190.850      112.645        0.348      346.459       24.719      855.065
09/17/2014  18:40:00     -363.502      -88.689        5.520      184.025      174.431       94.270    33865.030    30426.043     8886.880       10.659        3.659      374.165       89.763        0.058      346.442       24.689      855.116
09/17/2014  18:41:00     -434.752     -115.463      -15.013      215.359      156.929       90.161    46379.445    24626.596     8129.074       14.084        3.957      449.824      102.623        0.052      346.440       24.686      855.114
09/17/2014  18:42:00     -369.056      -92.146       -9.817      178.565      162.976       88.048    31885.362    26561.075     7752.504       10.548        3.310      380.386       80.281        0.045      346.412       24.637      855.087
09/17/2014  18:43:00     -413.486     -156.081      -18.629      266.651      171.618      111.999    71102.597    29452.799    12543.710       15.437        5.655      441.964      131.845        0.089      346.391       24.600      855.073
09/17/2014  18:44:00     -443.793     -124.243      -35.549      196.301      168.694       92.368    38533.939    28457.508     8531.775       14.457        3.776      460.857       97.418        0.045      346.378       24.578      855.090
09/17/2014  18:45:00     -597.157      -62.205      -47.545      227.669      233.097       88.539    51833.365    54334.127     7839.238       23.834        5.700      600.388       87.550        0.021      346.363       24.552      855.079
09/17/2014  18:46:00     -565.987     -135.379       -7.889      223.836      212.144      112.048    50102.513    45005.031    12554.832       22.318        5.383      581.953      112.791        0.038      346.363       24.552      855.073
09/17/2014  18:47:00     -497.736     -171.387      -12.670      339.119      215.255      101.422   115001.410    46334.890    10286.491       22.442        8.581      526.417      142.638        0.073      346.370       24.566      855.099
09/17/2014  18:48:00     -375.408     -142.301      -11.744      189.322      147.418       88.185    35842.672    21732.061     7776.681       11.332        3.268      401.473       99.874        0.062      346.383       24.587      855.160
09/17/2014  18:49:00     -509.987      -74.550      -29.141      281.680      210.340      108.862    79343.527    44242.820    11850.842       20.094        6.772      515.407      117.998        0.052      346.360       24.548      855.138
09/17/2014  18:50:00     -371.257      -79.677       13.328      216.435      175.879       93.449    46844.166    30933.554     8732.705       11.542        4.326      379.710      107.886        0.081      346.329       24.496      855.117
09/17/2014  18:51:00     -522.204     -103.696      -22.583      227.183      212.123       90.790    51612.096    44996.198     8242.870       19.438        5.243      532.400       91.003        0.029      346.320       24.478      855.138
09/17/2014  18:52:00     -485.587     -108.180      -23.897      206.524      190.606       88.759    42652.306    36330.476     7878.236       16.745        4.343      497.492       95.884        0.037      346.303       24.449      855.166
09/17/2014  18:53:00     -415.829     -245.621       -6.225      275.498      166.903      109.783    75899.368    27856.447    12052.388       17.452        5.790      482.953      117.531        0.059      346.301       24.447      855.160
09/17/2014  18:54:00     -429.733      -78.361      -19.189      185.687      152.645       93.008    34479.593    23300.355     8650.544       12.879        3.322      436.819       90.176        0.043      346.299       24.444      855.161
09/17/2014  18:55:00     -410.153     -146.072      -12.518      236.053      158.590      101.220    55720.844    25150.806    10245.530       14.040        4.556      435.388      109.035        0.063      346.272       24.397      855.183
09/17/2014  18:56:00     -506.342     -247.838      -26.081      265.948      241.175      104.537    70728.217    58165.219    10928.080       22.913        6.991      563.742      114.632        0.041      346.316       24.472      855.168
09/17/2014  18:57:00     -281.550      -55.877       -3.952      209.739      153.078       90.729    43990.643    23432.776     8231.690        7.902        3.783      287.041       83.005        0.084      346.277       24.405      855.168
09/17/2014  18:58:00     -372.810      -91.583      -10.582      193.009      142.667       87.611    37252.553    20353.951     7675.772       10.637        3.264      383.894       86.554        0.051      346.268       24.390      855.202
09/17/2014  18:59:00     -522.311     -201.874      -32.178      265.441      205.557      109.788    70458.710    42253.698    12053.488       21.966        6.238      559.966      132.141        0.056      346.250       24.358      855.247
09/17/2014  19:00:00     -486.696     -174.202      -20.144      268.962      218.139      112.590    72340.716    47584.703    12676.449       20.009        6.630      516.932      117.522        0.052      346.252       24.362      855.259
09/17/2014  19:01:00     -432.123     -124.281       -5.916      185.216      155.135       85.150    34304.958    24066.903     7250.471       13.390        3.281      449.640       91.036        0.041      346.240       24.340      855.259
09/17/2014  19:02:00     -421.557     -163.625        6.175      228.984      182.003      102.589    52433.759    33125.100    10524.506       15.028        4.804      452.198      109.251        0.058      346.231       24.326      855.248
09/17/2014  19:03:00     -421.435     -124.880      -24.365      251.747      185.541       85.816    63376.633    34425.461     7364.369       14.946        5.258      439.548      102.730        0.055      346.224       24.313      855.249
09/17/2014  19:04:00     -494.515      -11.970      -27.884      218.258      145.651       90.788    47636.440    21214.315     8242.466       16.126        3.855      494.660       83.284        0.028      346.196       24.266      855.240
09/17/2014  19:05:00     -621.834      -89.208      -35.927      266.579      170.975      101.665    71064.525    29232.555    10335.797       25.326        5.532      628.201      120.724        0.037      346.177       24.232      855.207
09/17/2014  19:06:00     -409.226      -88.456       -9.345      254.993      194.986       93.689    65021.244    38019.601     8777.698       14.358        5.591      418.677      109.102        0.068      346.183       24.243      855.246
09/17/2014  19:07:00     -370.421      -67.594       -5.244      221.383      162.824       93.441    49010.590    26511.745     8731.282       11.301        4.213      376.538      105.788        0.079      346.171       24.224      855.293
09/17/2014  19:08:00     -443.005     -188.900      -29.352      205.831      151.574       93.582    42366.380    22974.583     8757.608       15.343        3.705      481.598       82.651        0.029      346.159       24.204      855.308
09/17/2014  19:09:00     -308.215     -189.164        5.766      191.292      144.564       99.621    36592.698    20898.716     9924.403        9.910        3.371      361.634      101.474        0.079      346.160       24.204      855.327
09/17/2014  19:10:00     -407.560     -251.794       -6.645      254.997      169.834       97.001    65023.695    28843.458     9409.198       16.639        5.164      479.067      104.189        0.047      346.156       24.198      855.322
09/17/2014  19:11:00     -330.023      -65.652        2.623      205.973      169.366       91.808    42424.737    28684.764     8428.772        9.637        3.977      336.490      100.632        0.089      346.151       24.190      855.319
09/17/2014  19:12:00     -443.726     -101.609      -15.861      222.874      136.257       82.050    49672.928    18565.999     6732.167       14.121        3.749      455.212       93.828        0.042      346.142       24.175      855.314
09/17/2014  19:13:00     -564.716     -159.942      -28.607      224.076      154.124       88.262    50210.254    23754.312     7790.152       21.351        4.088      586.929      105.731        0.032      346.194       24.263      855.351
09/17/2014  19:14:00     -498.567     -114.402      -27.675      221.762      145.268       89.177    49178.543    21102.839     7952.475       17.031        3.912      511.524       88.823        0.030      346.181       24.240      855.344
09/17/2014  19:15:00     -288.972      -84.757      -11.052      230.750      149.181       79.570    53245.362    22254.872     6331.357        8.631        4.092      301.145       98.678        0.107      346.154       24.193      855.340
09/17/2014  19:16:00     -412.215      -35.346      -20.027      206.613      139.061       82.525    42689.044    19338.080     6810.415       12.019        3.442      413.728       89.425        0.047      346.160       24.205      855.355
09/17/2014  19:17:00     -427.820      -88.865       -1.047      234.021      148.891       82.677    54765.820    22168.438     6835.521       13.733        4.188      436.952       96.845        0.049      346.134       24.159      855.363
09/17/2014  19:18:00     -362.865     -106.855       -8.314      244.981      149.083       92.203    60015.545    22225.807     8501.354       11.693        4.537      378.271       86.580        0.052      346.149       24.185      855.362
09/17/2014  19:19:00     -247.283      -16.611       -3.052      166.277      124.498       78.029    27648.165    15499.700     6088.544        5.533        2.462      247.840       80.625        0.106      346.137       24.165      855.364
09/17/2014  19:20:00     -238.965      -67.446       10.122      158.389      134.915       82.844    25087.157    18202.031     6863.152        5.594        2.508      248.301       78.442        0.100      346.136       24.163      855.370
09/17/2014  19:21:00     -420.540      -72.094      -21.996      221.399      143.371       88.136    49017.570    20555.279     7767.981       12.992        3.867      426.675      106.946        0.063      346.089       24.081      855.326
09/17/2014  19:22:00     -370.564      -32.029      -11.777      199.352      131.116       90.792    39741.100    17191.467     8243.203       10.182        3.259      371.946      103.936        0.078      346.082       24.069      855.309
09/17/2014  19:23:00     -408.648     -132.497      -28.689      179.867      168.591       84.300    32352.122    28422.863     7106.452       12.661        3.394      429.591       82.793        0.037      346.093       24.088      855.369
09/17/2014  19:24:00     -336.879     -147.849       -1.192      234.449      133.273       78.635    54966.544    17761.618     6183.537       10.711        3.946      367.895      101.119        0.076      346.112       24.121      855.367
09/17/2014  19:25:00     -307.858      -81.708        2.092      232.533      160.985      107.767    54071.447    25916.131    11613.662        9.651        4.580      318.516      129.851        0.166      346.102       24.106      855.353
09/17/2014  19:26:00     -323.953      -55.165        8.849      200.590      146.851       75.525    40236.214    21565.285     5704.086        8.777        3.375      328.616       74.362        0.051      346.116       24.131      855.356
09/17/2014  19:27:00     -272.900     -178.083       -1.244      209.822      147.940       85.115    44025.343    21886.221     7244.487        8.966        3.658      325.864      105.390        0.105      346.107       24.114      855.378
09/17/2014  19:28:00     -418.996     -198.760      -14.854      193.018      133.238       91.655    37255.999    17752.272     8400.717       13.933        3.170      463.749       96.756        0.044      346.105       24.110      855.411
09/17/2014  19:29:00     -288.813      -75.755       -9.621      176.655      115.224       75.776    31206.900    13276.564     5742.019        6.972        2.511      298.583       75.293        0.064      346.077       24.062      855.371
09/17/2014  19:30:00     -321.882     -145.725      -21.523      173.053      161.612       88.299    29947.511    26118.457     7796.691        9.457        3.193      353.332       75.991        0.046      346.086       24.078      855.377
09/17/2014  19:31:00     -339.817     -112.652      -12.340      202.182      177.956       86.529    40877.668    31668.202     7487.227       10.416        4.002      358.003       90.070        0.063      346.097       24.096      855.388
09/17/2014  19:32:00     -354.837     -161.929        3.180      267.733      198.968      104.610    71681.179    39588.133    10943.158       13.715        6.111      390.039      119.374        0.094      346.182       24.242      855.380
09/17/2014  19:33:00     -464.935     -121.688      -27.519      186.056      153.723       87.858    34616.905    23630.810     7718.975       14.884        3.298      480.596       87.290        0.033      346.158       24.201      855.439
09/17/2014  19:34:00     -341.176      -68.422      -13.482      199.883      157.452       87.595    39953.109    24791.114     7672.951        9.683        3.621      347.969       98.412        0.080      346.145       24.179      855.453
09/17/2014  19:35:00     -457.117      -77.179      -17.760      214.268      198.092       90.111    45910.782    39240.466     8120.030       15.423        4.664      463.586       98.179        0.045      346.202       24.276      855.444
09/17/2014  19:36:00     -420.698     -129.004      -32.179      195.685      165.038       89.229    38292.710    27237.491     7961.826       13.406        3.675      440.033       85.254        0.038      346.204       24.279      855.488
09/17/2014  19:37:00     -346.378     -203.154      -12.389      193.496      149.653       84.487    37440.731    22396.077     7138.035       11.418        3.349      401.559       79.787        0.039      346.177       24.231      855.522
09/17/2014  19:38:00     -400.325      -36.672      -30.113      170.297      112.231       88.003    29001.176    12595.905     7744.525       10.592        2.467      402.001       74.020        0.034      346.171       24.223      855.491
09/17/2014  19:39:00     -269.879      -53.889       -5.011      165.293      144.093       80.919    27321.838    20762.687     6547.868        6.519        2.732      275.207       83.903        0.093      346.150       24.188      855.485
09/17/2014  19:40:00     -427.164      -79.776        3.672      166.926      143.644       83.094    27864.444    20633.680     6904.547       12.211        2.770      434.550       82.923        0.036      346.172       24.226      855.499
09/17/2014  19:41:00     -351.922     -220.633        4.435      214.434      165.249      112.623    45981.749    27307.278    12683.887       12.924        4.299      415.365      112.172        0.073      346.205       24.280      855.538
09/17/2014  19:42:00     -381.865     -161.268        8.057      214.432      182.067       90.188    45980.915    33148.418     8133.793       12.956        4.363      414.522      103.684        0.063      346.286       24.420      855.499
09/17/2014  19:43:00     -584.792      -70.684      -33.863      236.543      191.950       93.689    55952.633    36844.721     8777.716       22.483        5.079      589.048      104.231        0.031      346.346       24.526      855.508
09/17/2014  19:44:00     -382.514     -186.090      -16.003      182.077      158.707       92.684    33151.927    25187.767     8590.271       12.405        3.346      425.378       93.716        0.049      346.254       24.365      855.541
09/17/2014  19:45:00     -349.448     -156.358      -17.718      182.001      153.342       83.920    33124.274    23513.812     7042.492       10.527        3.184      382.834       75.235        0.039      346.319       24.478      855.578
09/17/2014  19:46:00     -426.956      -89.280      -19.248      193.740      151.635       80.484    37535.320    22993.204     6477.716       12.881        3.350      436.190       84.206        0.037      346.247       24.353      855.541
09/17/2014  19:47:00     -455.989      -93.422       -1.501      214.846      162.041       88.045    46158.607    26257.181     7751.904       14.840        4.008      465.461      100.248        0.046      346.203       24.276      855.532
09/17/2014  19:48:00     -438.414      -66.142      -14.744      213.429      158.367       84.391    45552.133    25080.215     7121.874       13.726        3.888      443.375       97.579        0.048      346.240       24.340      855.605
09/17/2014  19:49:00     -317.666      -77.935       -1.090      183.752      123.460       76.223    33764.648    15242.248     5809.915        8.089        2.741      327.086       84.440        0.067      346.253       24.363      855.623
09/17/2014  19:50:00     -590.952     -114.145      -22.009      317.210      205.906      119.439   100622.397    42397.122    14265.716       25.998        7.864      601.875      138.517        0.053      346.293       24.432      855.549
09/17/2014  19:51:00     -410.089     -183.787       -6.637      201.329      195.490       96.161    40533.456    38216.209     9246.871       14.498        4.400      449.390      110.404        0.060      346.322       24.482      855.603
09/17/2014  19:52:00     -351.104     -180.958       -6.240      173.427      136.845       68.401    30076.885    18726.667     4678.655       10.476        2.674      394.994       75.611        0.037      346.295       24.437      855.657
09/17/2014  19:53:00     -341.219     -148.244        6.124      218.190      158.120       89.657    47606.717    25001.911     8038.323       10.953        4.032      372.031      101.592        0.075      346.297       24.439      855.658
09/17/2014  19:54:00     -324.819     -279.761      -23.696      166.049      147.231       87.284    27572.271    21676.872     7618.500       12.059        2.843      428.688       75.518        0.031      346.330       24.496      855.672
09/17/2014  19:55:00     -447.041     -229.296      -11.928      182.198      139.255       73.506    33196.003    19392.031     5403.103       15.527        2.900      502.416       92.276        0.034      346.343       24.520      855.703
09/17/2014  19:56:00     -360.155     -173.679      -21.511      138.991      150.664       71.756    19318.614    22699.677     5148.881       10.374        2.358      399.845       70.749        0.031      346.342       24.517      855.701
09/17/2014  19:57:00     -332.814      -62.470       -3.648      174.499      116.776       69.733    30450.036    13636.747     4862.675        8.181        2.447      338.626       84.134        0.062      346.218       24.303      855.678
09/17/2014  19:58:00     -380.519      -74.093      -28.238      136.316      114.899       70.490    18582.101    13201.797     4968.771        9.391        1.838      387.665       70.467        0.033      346.185       24.246      855.652
09/17/2014  19:59:00     -287.204     -143.371       -4.040      152.876      115.560       71.186    23371.088    13354.155     5067.510        7.242        2.090      321.001       77.822        0.059      346.179       24.237      855.654
09/17/2014  20:00:00     -339.043     -253.454       -4.578      219.214      182.406      105.085    48054.846    33271.981    11042.754       13.577        4.618      423.308      130.117        0.094      346.267       24.388      855.650
09/17/2014  20:01:00     -439.886     -262.141        4.874      195.849      178.691       89.504    38356.957    31930.629     8011.041       17.025        3.915      512.072       95.569        0.035      346.388       24.596      855.683
09/17/2014  20:02:00     -356.677     -200.339       -2.931      176.817      146.328       84.990    31264.135    21412.000     7223.233       11.362        2.995      409.090       76.702        0.035      346.526       24.833      855.726
09/17/2014  20:03:00     -402.572     -146.620      -20.317      115.571      110.147       59.190    13356.700    12132.452     3503.409       10.648        1.450      428.441       52.694        0.015      346.580       24.926      855.600
09/17/2014  20:04:00     -362.627     -128.706       -1.839      172.961      124.136       72.894    29915.339    15409.700     5313.578        9.934        2.532      384.790       80.245        0.043      346.441       24.687      855.634
09/17/2014  20:05:00     -466.910     -340.736      -25.367      210.947      149.784       97.988    44498.759    22435.346     9601.601       20.563        3.827      578.019      105.495        0.033      346.477       24.750      855.688
09/17/2014  20:06:00     -324.186     -242.516      -17.794      159.797      145.188       77.520    25535.107    21079.669     6009.396       10.842        2.631      404.859       61.243        0.023      346.464       24.727      855.781
09/17/2014  20:07:00     -289.996     -159.284       -7.876      142.662      118.846       61.783    20352.326    14124.389     3817.175        7.390        1.915      330.861       61.981        0.035      346.407       24.627      855.782
09/17/2014  20:08:00     -409.734     -234.958       -0.518      207.887      140.129       89.608    43216.918    19636.204     8029.554       14.697        3.544      472.321       99.095        0.044      346.424       24.658      855.794
09/17/2014  20:09:00     -432.635     -211.752      -19.510      176.518      139.641       72.204    31158.595    19499.638     5213.373       14.412        2.794      481.677       62.915        0.017      346.405       24.626      855.780
09/17/2014  20:10:00     -400.769      -48.392       -5.371      131.093      113.121       64.319    17185.260    12796.376     4136.959        9.855        1.706      403.680       57.909        0.021      346.388       24.596      855.716
09/17/2014  20:11:00     -382.151     -169.568       -6.932      216.516      152.257       82.575    46879.065    23182.045     6818.699       12.585        3.844      418.083      102.021        0.060      346.423       24.656      855.693
09/17/2014  20:12:00     -269.927      -97.044        1.916      152.985      108.958       74.978    23404.304    11871.755     5621.745        6.158        2.045      286.842       79.591        0.077      346.324       24.487      855.671
09/17/2014  20:13:00     -274.235     -160.770      -20.925      110.093      119.811       63.396    12120.550    14354.610     4019.072        6.599        1.525      317.887       58.682        0.034      346.351       24.533      855.710
09/17/2014  20:14:00     -198.088     -103.837        0.562      145.220       83.046       63.796    21088.754     6896.664     4069.939        4.103        1.603      223.653       75.047        0.113      346.355       24.539      855.759
09/17/2014  20:15:00     -376.912     -188.709      -22.153      183.193      128.121       79.486    33559.733    16414.915     6317.979       11.722        2.815      421.513       84.765        0.040      346.407       24.628      855.709
09/17/2014  20:16:00     -209.267      -50.471       -5.476      161.390      129.711       79.138    26046.620    16825.006     6262.879        4.774        2.457      215.267       80.496        0.140      346.365       24.557      855.686
09/17/2014  20:17:00     -391.120     -291.689      -24.622      146.826      145.367       85.168    21557.920    21131.630     7253.597       14.429        2.497      487.911       87.423        0.032      346.482       24.759      855.796
09/17/2014  20:18:00     -327.839     -226.908       -9.872      157.497      149.578       87.990    24805.263    22373.606     7742.243       10.698        2.746      398.705       96.745        0.059      346.450       24.704      855.835
09/17/2014  20:19:00     -286.243     -169.317       -7.213      195.222      119.431       65.068    38111.655    14263.697     4233.847        8.362        2.830      332.570       72.311        0.047      346.440       24.686      855.853
09/17/2014  20:20:00     -267.098     -123.667       -3.118      129.198      108.260       55.905    16691.997    11720.219     3125.412        5.908        1.577      294.338       55.479        0.036      346.410       24.633      855.869
09/17/2014  20:21:00     -236.843     -157.939        1.019      116.755       72.962       49.996    13631.787     5323.420     2499.574        5.124        1.073      284.674       44.045        0.024      346.394       24.607      855.861
09/17/2014  20:22:00     -180.664     -131.388        5.349      120.990      101.554       50.963    14638.526    10313.211     2597.222        3.873        1.377      223.388       51.129        0.052      346.410       24.637      855.870
09/17/2014  20:23:00     -174.391      -95.085       -0.711       88.855       85.783       46.626     7895.173     7358.765     2173.962        2.844        0.871      198.629       49.464        0.062      346.400       24.616      855.811
09/17/2014  20:24:00     -150.540      -44.256        0.347      103.749       52.123       45.084    10763.858     2716.796     2032.610        2.006        0.776      156.911       59.309        0.143      346.356       24.542      855.839
09/17/2014  20:25:00     -326.740     -110.845      -22.235       76.577       93.374       41.030     5864.067     8718.623     1683.464        6.790        0.813      345.030       31.796        0.008      346.394       24.605      855.808
09/17/2014  20:26:00     -305.795       22.213      -31.780      107.705      117.824       50.597    11600.302    13882.523     2560.063        6.152        1.402      306.601       28.883        0.009      346.294       24.434      855.692
09/17/2014  20:27:00     -306.204      -91.008      -24.581       96.749       96.687       43.792     9360.430     9348.449     1917.711        6.163        1.031      319.442       40.456        0.016      346.332       24.501      855.710
09/17/2014  20:28:00     -246.236      -97.126       -0.521      114.524       79.231       52.239    13115.741     6277.597     2728.946        4.609        1.106      264.699       52.007        0.039      346.265       24.383      855.793
09/17/2014  20:29:00     -329.712     -139.546      -17.125       95.988       94.280       43.926     9213.728     8888.649     1929.496        7.425        1.002      358.026       45.938        0.016      346.227       24.319      855.817
09/17/2014  20:30:00     -393.278     -120.343      -10.441      145.006       95.133       64.416    21026.876     9050.328     4149.463       10.174        1.711      411.278       74.035        0.032      346.236       24.335      855.753
09/17/2014  20:31:00     -529.242     -160.276      -15.197      195.026      110.086       78.966    38035.164    12119.018     6235.703       18.119        2.819      552.979      100.154        0.033      346.293       24.432      855.739
09/17/2014  20:32:00     -481.125     -156.465      -28.747      159.190      164.699       85.923    25341.520    27125.690     7382.749       15.831        2.992      505.927       84.473        0.028      346.269       24.390      855.648
09/17/2014  20:33:00     -353.145      -59.561      -21.734      119.190      100.554       58.742    14206.201    10111.184     3450.639        7.824        1.388      358.132       55.346        0.024      346.440       24.685      855.723
09/17/2014  20:34:00     -358.078     -102.655      -23.740      110.928      114.698       46.206    12304.952    13155.630     2134.979        8.345        1.380      372.502       42.356        0.013      346.386       24.594      855.722
09/17/2014  20:35:00     -277.484      -61.171       -8.172      101.571       87.443       51.507    10316.581     7646.272     2652.978        5.071        1.031      284.146       57.058        0.040      346.342       24.516      855.739
09/17/2014  20:36:00     -282.832      -49.630       -4.448      115.440       86.137       55.977    13326.432     7419.556     3133.415        5.317        1.194      287.154       52.026        0.033      346.403       24.621      855.715
09/17/2014  20:37:00     -158.088      -32.035        4.955      133.806       98.302       54.575    17904.032     9663.207     2978.480        2.829        1.527      161.301       63.386        0.154      346.335       24.507      855.749
09/17/2014  20:38:00     -169.623      -84.448        5.246      120.769      101.057       46.578    14585.247    10212.573     2169.505        3.144        1.348      189.482       54.031        0.081      346.428       24.666      855.797
09/17/2014  20:39:00     -181.607      -68.363      -14.874       94.071       84.044       41.245     8849.387     7063.474     1701.126        2.774        0.881      194.048       44.614        0.053      346.588       24.941      855.758
09/17/2014  20:40:00      -88.045      -90.950       18.839       85.486       66.099       40.203     7307.874     4369.021     1616.256        1.483        0.665      126.585       42.092        0.111      346.459       24.720      855.824
09/17/2014  20:41:00      -96.099     -106.603        1.180       69.715       51.899       33.222     4860.208     2693.554     1103.698        1.463        0.433      143.524       36.038        0.063      346.381       24.587      855.889
09/17/2014  20:42:00     -186.917      -39.900      -24.126       46.898       37.113       23.776     2199.447     1377.338      565.281        2.063        0.207      191.128       25.177        0.017      346.332       24.503      855.847
09/17/2014  20:43:00      -58.649      -23.897        0.383       48.173       26.611       14.072     2320.604      708.167      198.021        0.362        0.161       63.330       16.931        0.071      346.260       24.379      855.880
09/17/2014  20:44:00      -15.317     -137.668        4.433       56.135       43.984       29.536     3151.121     1934.627      872.405        1.258        0.298      138.518       19.440        0.020      346.340       24.517      855.943
09/17/2014  20:45:00      -62.516      -81.506        5.237       67.117       93.300       36.409     4504.753     8704.868     1325.584        1.255        0.727      102.721       48.344        0.221      346.252       24.365      855.942
09/17/2014  20:46:00     -129.950      -73.365      -14.982      101.619       74.010       33.718    10326.516     5477.509     1136.922        1.971        0.847      149.230       26.565        0.032      346.334       24.507      855.951
09/17/2014  20:47:00      -46.645      -44.328        7.454      131.668      140.611       55.241    17336.438    19771.564     3051.551        2.217        2.008       64.349       53.966        0.703      346.480       24.756      855.917
09/17/2014  20:48:00      -71.691     -102.911        5.078       92.531       83.390       45.933     8561.920     6953.930     2109.821        1.669        0.881      125.421       32.591        0.068      346.309       24.462      855.950
09/17/2014  20:49:00     -108.365     -127.253       -5.911       58.939       58.119       32.404     3473.799     3377.761     1049.994        1.793        0.395      167.142       25.674        0.024      346.283       24.418      855.964
09/17/2014  20:50:00     -100.004     -140.599        8.593       61.109       60.996       41.480     3734.331     3720.511     1720.623        1.951        0.459      172.536       36.040        0.044      346.297       24.440      855.979
09/17/2014  20:51:00     -142.294      -69.022       -8.258       58.141       61.333       35.021     3380.367     3761.720     1226.447        1.672        0.418      158.150       34.374        0.047      346.322       24.486      855.937
09/17/2014  20:52:00     -109.562      -15.501        0.194       73.808       37.864       28.565     5447.634     1433.715      815.983        0.997        0.385      110.653       30.338        0.075      346.194       24.267      855.916
09/17/2014  20:53:00       35.930      -10.649       27.751       39.264       47.904       36.412     1541.628     2294.797     1325.841        0.367        0.258       37.475       28.739        0.588      346.126       24.148      855.923
09/17/2014  20:54:00       46.693       -4.012       28.227       49.978       53.230       37.369     2497.788     2833.381     1396.433        0.486        0.336       46.865       31.496        0.452      346.151       24.192      855.942
09/17/2014  20:55:00       25.811     -100.281        5.611      104.423       77.156       43.544    10904.175     5953.117     1896.060        1.475        0.938      103.550       41.479        0.160      346.418       24.650      855.914
09/17/2014  20:56:00       37.486      -17.794       37.032       66.146       67.548       46.697     4375.283     4562.729     2180.623        0.710        0.556       41.495       50.684        1.492      346.416       24.648      855.899
09/17/2014  20:57:00      -21.674      -28.685        3.617       40.634       46.968       34.844     1651.120     2205.980     1214.090        0.319        0.254       35.952       13.389        0.139      346.340       24.517      855.907
09/17/2014  20:58:00      -32.829      -31.966       10.977       32.317       38.936       22.408     1044.402     1516.047      502.108        0.264        0.153       45.821       19.692        0.185      346.258       24.377      855.957
09/17/2014  20:59:00      -59.469     -109.069        4.258       49.112       42.208       29.662     2411.999     1781.553      879.834        1.026        0.254      124.228       23.581        0.036      346.383       24.591      855.970
09/17/2014  21:00:00     -120.368      -71.544        2.889       65.068       64.069       34.101     4233.902     4104.830     1162.872        1.456        0.475      140.025       31.162        0.050      346.318       24.479      855.937
09/17/2014  21:01:00     -153.427     -123.490       -5.278       97.686      100.031       47.866     9542.558    10006.301     2291.183        3.032        1.092      196.951       38.369        0.038      346.397       24.612      855.926
09/17/2014  21:02:00     -156.801     -114.230       -3.821       79.965       94.328       47.021     6394.400     8897.836     2211.010        2.757        0.875      193.997       32.670        0.028      346.480       24.755      855.912
09/17/2014  21:03:00      -86.840     -127.350       11.049       92.274       91.979       42.324     8514.571     8460.118     1791.312        2.132        0.938      154.140       52.463        0.116      346.412       24.638      855.909
09/17/2014  21:04:00      -53.655      -68.667       -8.104       78.356       45.301       30.839     6139.663     2052.149      951.035        0.840        0.457       87.144       34.642        0.158      346.358       24.547      855.929
09/17/2014  21:05:00     -150.815      -79.970        8.001       84.190       55.175       38.508     7087.947     3044.332     1482.888        2.041        0.581      170.706       40.734        0.057      346.373       24.571      855.900
09/17/2014  21:06:00      -76.324     -107.751        7.135       66.922       57.652       28.524     4478.519     3323.733      813.634        1.305        0.431      132.044       25.137        0.036      346.372       24.571      855.888
09/17/2014  21:07:00      -33.937      -59.337       24.645       62.554       60.894       37.817     3912.954     3708.120     1430.140        0.716        0.453       68.356       39.706        0.337      346.324       24.489      855.877
09/17/2014  21:08:00      -19.198      -29.145       13.779       20.879       31.651       18.940      435.937     1001.766      358.705        0.160        0.090       34.900       11.375        0.106      346.210       24.292      855.872
09/17/2014  21:09:00        6.178      -41.713       -4.554       14.620       26.639       12.636      213.742      709.650      159.667        0.144        0.054       42.168        6.867        0.027      346.174       24.230      855.873
09/17/2014  21:10:00       -1.912       21.736       -0.745       12.450       17.889       12.430      155.002      320.003      154.514        0.055        0.031       21.820       11.744        0.290      346.168       24.222      855.868
09/17/2014  21:11:00      -53.083      -10.810      -11.219       19.774       18.315       13.960      391.002      335.440      194.880        0.199        0.046       54.172       14.364        0.070      346.263       24.386      855.851
09/17/2014  21:12:00      -58.865      -77.895       -5.883       28.998       43.487       21.336      840.857     1891.134      455.208        0.638        0.159       97.636       19.239        0.039      346.375       24.577      855.841
09/17/2014  21:13:00      -57.122     -112.842      -15.690       32.550       50.257       20.960     1059.504     2525.780      439.312        1.013        0.201      126.476        9.136        0.005      346.356       24.544      855.834
09/17/2014  21:14:00      -61.068      -10.623        4.196       24.111       22.201       16.309      581.329      492.902      265.991        0.260        0.067       61.985       14.964        0.058      346.175       24.233      855.826
09/17/2014  21:15:00      -56.708      -47.667       -1.689       23.228       21.235       14.569      539.557      450.928      212.243        0.335        0.060       74.081       12.174        0.027      346.165       24.217      855.831
09/17/2014  21:16:00      -66.296      -52.359       -5.185       42.899       36.875       24.046     1840.283     1359.755      578.229        0.547        0.189       84.478       20.643        0.060      346.186       24.252      855.833
09/17/2014  21:17:00      -55.663      -67.728       16.161       51.310       31.487       25.128     2632.697      991.427      631.420        0.610        0.213       87.667       28.364        0.105      346.124       24.145      855.853
09/17/2014  21:18:00      -95.457     -140.955       -8.892       50.903       60.445       22.489     2591.065     3653.545      505.762        1.790        0.338      170.237       25.676        0.023      346.267       24.391      855.862
09/17/2014  21:19:00     -103.081      -56.859        7.816       61.118       40.833       28.687     3735.354     1667.345      822.956        1.007        0.311      117.723       30.733        0.068      346.084       24.075      855.858
09/17/2014  21:20:00      -88.884     -130.181        5.588       57.630       72.384       24.080     3321.195     5239.379      579.832        1.701        0.457      157.631       22.655        0.021      346.190       24.258      855.873
09/17/2014  21:21:00      -97.109     -114.333        0.784       59.419       53.115       29.972     3530.602     2821.150      898.327        1.487        0.363      150.007       32.126        0.046      346.179       24.238      855.863
09/17/2014  21:22:00      -43.105       -8.843        4.948       34.999       37.178       24.327     1224.955     1382.215      591.814        0.258        0.160       44.003       25.272        0.330      346.174       24.231      855.849
09/17/2014  21:23:00       28.641        7.464       10.331       12.859       18.691       11.533      165.360      349.365      133.011        0.082        0.032       29.598        7.773        0.069      345.926       23.806      855.836
09/17/2014  21:24:00      -50.064       32.378       -2.126       28.132       16.959       13.123      791.426      287.593      172.216        0.241        0.063       59.622       12.974        0.047      346.131       24.158      855.824
09/17/2014  21:25:00      -93.860       -2.259      -11.180       15.121       12.183        8.721      228.651      148.416       76.058        0.470        0.023       93.888        6.511        0.005      346.197       24.272      855.834
09/17/2014  21:26:00      -51.636      -58.727        1.895       27.909       28.495       13.084      778.917      811.981      171.186        0.394        0.088       78.199        8.162        0.011      346.134       24.164      855.851
09/17/2014  21:27:00      -64.485     -102.505       -4.625       32.236       26.590       22.072     1039.143      707.042      487.172        0.846        0.112      121.101       22.849        0.036      346.208       24.290      855.847
09/17/2014  21:28:00      -80.342     -144.947       -1.293       36.284       52.575       24.608     1316.530     2764.081      605.544        1.608        0.234      165.724       16.556        0.010      346.166       24.218      855.849
09/17/2014  21:29:00      -76.398     -119.309        1.783       45.607       82.226       23.535     2080.005     6761.087      553.902        1.473        0.470      141.673       25.865        0.033      346.096       24.098      855.854
09/17/2014  21:30:00      -78.778     -172.497       -6.078       59.795       55.392       35.595     3575.486     3068.268     1267.013        2.195        0.396      189.634       25.176        0.018      346.144       24.178      855.839
09/17/2014  21:31:00      -45.139      -70.790       -2.933       45.798       39.985       21.157     2097.481     1598.783      447.617        0.560        0.207       83.957       19.696        0.055      346.004       23.940      855.831
09/17/2014  21:32:00      -45.348     -108.344       -0.336       34.921       53.249       23.071     1219.493     2835.441      532.291        0.919        0.229      117.451       19.268        0.027      346.064       24.042      855.858
09/17/2014  21:33:00      -37.076     -106.743      -13.522       53.464       31.473       29.272     2858.356      990.564      856.878        0.883        0.235      112.998       31.179        0.076      345.926       23.805      855.895
09/17/2014  21:34:00      -35.076     -137.716       -1.233       38.335       54.615       30.915     1469.596     2982.746      955.757        1.280        0.270      142.113       22.165        0.024      345.868       23.707      855.918
09/17/2014  21:35:00      -41.000      -84.802       -9.571       61.654       43.633       25.818     3801.270     1903.824      666.590        0.767        0.319       94.194       15.923        0.029      345.829       23.638      855.919
09/17/2014  21:36:00       50.634      -53.793       16.642       44.245       58.429       29.919     1957.596     3413.962      895.156        0.600        0.313       73.875       35.403        0.230      345.764       23.527      855.924
09/17/2014  21:37:00      -11.757       25.157       21.566       14.532       20.466       11.120      211.170      418.841      123.646        0.099        0.038       27.769       10.973        0.156      345.644       23.321      855.909
09/17/2014  21:38:00        3.688       47.068        7.366       18.963       20.996       18.203      359.577      440.838      331.367        0.171        0.057       47.212       13.993        0.088      345.720       23.452      855.881
09/17/2014  21:39:00        0.880       19.369        3.691       17.676       23.684       19.613      312.456      560.927      384.660        0.082        0.063       19.389       13.517        0.486      345.836       23.650      855.897
09/17/2014  21:40:00       -0.279      -19.565        1.549       10.831       15.699        7.179      117.315      246.451       51.537        0.040        0.021       19.566        4.807        0.060      345.758       23.515      855.924
09/17/2014  21:41:00      -14.054        2.242        8.090       24.790       20.593        8.498      614.548      424.052       72.224        0.069        0.056       14.232        9.174        0.416      345.695       23.409      855.922
09/17/2014  21:42:00     -101.491      -65.281      -12.248       48.994       36.894       28.995     2400.376     1361.193      840.715        0.966        0.230      120.673       15.227        0.016      345.568       23.192      855.938
09/17/2014  21:43:00      -86.394      -49.171        6.607       46.900       56.617       22.690     2199.628     3205.475      514.859        0.792        0.296       99.407       27.405        0.076      345.455       22.996      855.938
09/17/2014  21:44:00     -110.917      -12.612       -6.864       26.260       24.822       18.038      689.572      616.122      325.365        0.707        0.082      111.632       12.523        0.013      345.380       22.866      855.932
09/17/2014  21:45:00      -28.225      -18.474       14.109       40.734       23.265       14.665     1659.273      541.256      215.052        0.188        0.121       33.733       18.276        0.294      345.198       22.557      855.933
09/17/2014  21:46:00       14.135      -26.795        5.801       28.379       34.850       17.241      805.377     1214.488      297.263        0.163        0.116       30.295       18.925        0.390      345.312       22.753      855.944
09/17/2014  21:47:00        4.054      -78.741        0.645       38.737       41.678       16.153     1500.579     1737.054      260.905        0.486        0.175       78.846       14.445        0.034      345.523       23.113      855.972
09/17/2014  21:48:00      -18.851     -138.436        8.747       68.291       55.596       39.695     4663.635     3090.918     1575.667        1.446        0.467      139.713       25.686        0.034      345.908       23.772      855.972
09/17/2014  21:49:00       37.463      -78.937        2.482       73.597       62.804       38.957     5416.585     3944.396     1517.679        0.926        0.544       87.376       39.923        0.209      345.857       23.687      855.953
09/17/2014  21:50:00       47.877      -84.043       12.054       46.429      101.834       42.913     2155.614    10370.083     1841.510        1.193        0.718       96.723       58.959        0.372      345.817       23.619      855.920
09/17/2014  21:51:00       57.220     -102.101        6.395       56.582       62.232       37.648     3201.555     3872.790     1417.347        1.111        0.425      117.041       36.027        0.095      345.935       23.821      855.926
09/17/2014  21:52:00       43.246      -80.725        1.823       35.940       50.707       33.318     1291.656     2571.207     1110.099        0.668        0.249       91.579       34.325        0.140      345.879       23.724      855.939
09/17/2014  21:53:00       41.093      -30.045       24.258       61.747       47.535       39.235     3812.698     2259.605     1539.363        0.539        0.381       50.905       31.761        0.389      345.880       23.727      855.925
09/17/2014  21:54:00       48.276      -32.098       19.983       40.742       81.151       50.879     1659.890     6585.545     2588.661        0.729        0.542       57.973       50.985        0.773      345.817       23.619      855.903
09/17/2014  21:55:00       15.646      -34.527       30.634       66.859       91.479       57.522     4470.160     8368.435     3308.774        0.926        0.807       37.907       55.302        2.128      345.921       23.798      855.868
09/17/2014  21:56:00       31.668      -96.694       -5.754       50.668       60.057       35.871     2567.227     3606.803     1286.735        0.892        0.373      101.748       40.086        0.155      345.918       23.793      855.866
09/17/2014  21:57:00       19.726      -82.823       11.291       54.079       56.501       40.306     2924.534     3192.395     1624.604        0.756        0.387       85.140       38.543        0.205      345.872       23.712      855.882
09/17/2014  21:58:00       69.822     -139.480       -9.002       86.658       76.409       53.167     7509.606     5838.311     2826.706        2.029        0.809      155.980       46.690        0.090      345.906       23.769      855.860
09/17/2014  21:59:00       61.149      -96.827       27.855       87.792       76.734       54.290     7707.472     5888.049     2947.420        1.521        0.827      114.519       54.072        0.223      345.902       23.764      855.855
09/17/2014  22:00:00       38.070      -85.648        9.057       68.274       87.384       50.853     4661.396     7635.999     2586.032        1.187        0.744       93.728       53.001        0.320      345.895       23.753      855.847
09/17/2014  22:01:00       27.143      -88.433        1.221       51.593       67.335       45.678     2661.797     4534.000     2086.479        0.892        0.464       92.505       48.227        0.272      345.920       23.796      855.867
09/17/2014  22:02:00      -30.331      -68.200        9.337       54.058       36.793       39.411     2922.233     1353.691     1553.203        0.574        0.291       74.641       21.493        0.083      345.890       23.745      855.880
09/17/2014  22:03:00      -15.458     -116.611      -13.782       40.021       44.808       31.207     1601.675     2007.716      973.856        0.930        0.229      117.631       18.989        0.026      345.981       23.901      855.906
09/17/2014  22:04:00       16.340     -140.427       -5.205       98.253       73.584       44.844     9653.655     5414.582     2010.986        1.854        0.854      141.375       34.517        0.060      345.942       23.831      855.907
09/17/2014  22:05:00       -9.741      -85.035        7.269       75.163       78.955       52.414     5649.508     6233.947     2747.234        1.100        0.732       85.591       39.862        0.217      345.954       23.855      855.886
09/17/2014  22:06:00      -41.496     -104.873       -0.834       74.124      104.701       53.814     5494.370    10962.369     2895.981        1.603        0.968      112.784       55.678        0.244      345.952       23.849      855.913
09/17/2014  22:07:00      -87.413     -151.813        2.741      115.045       99.413       64.567    13235.389     9882.918     4168.911        2.899        1.364      175.181       60.702        0.120      346.014       23.953      855.893
09/17/2014  22:08:00      -60.344      -68.372       13.801       46.787       75.571       33.067     2189.062     5710.946     1093.459        0.875        0.450       91.193       32.194        0.125      345.903       23.768      855.866
09/17/2014  22:09:00       -8.751      -97.425        8.165       39.535       69.868       30.472     1563.028     4881.517      928.550        0.850        0.369       97.818       25.071        0.066      345.890       23.743      855.870
09/17/2014  22:10:00      -96.324      -58.663        7.488       71.843       49.622       25.362     5161.451     2462.341      643.210        1.052        0.413      112.781       26.992        0.057      345.798       23.586      855.862
09/17/2014  22:11:00     -120.838      -63.856        0.640       62.421       53.144       36.896     3896.365     2824.287     1361.340        1.338        0.404      136.673       35.030        0.066      345.726       23.460      855.860
09/17/2014  22:12:00      -57.562      -41.641        9.280       59.119       39.485       30.086     3495.103     1559.068      905.194        0.555        0.298       71.045       28.111        0.157      345.644       23.322      855.842
09/17/2014  22:13:00     -103.801      -96.405       -5.587       56.864       68.566       40.253     3233.564     4701.276     1620.299        1.483        0.478      141.663       36.950        0.068      345.727       23.463      855.843
09/17/2014  22:14:00      -57.589      -77.365        6.349       62.573       55.164       36.559     3915.414     3043.089     1336.571        0.882        0.415       96.446       24.657        0.065      345.733       23.473      855.837
09/17/2014  22:15:00     -134.300     -120.719       -8.359       84.298       61.876       45.552     7106.084     3828.659     2075.029        2.284        0.650      180.581       38.112        0.045      345.786       23.564      855.830
09/17/2014  22:16:00      -64.678     -136.329       -0.898       94.541       91.297       40.470     8938.040     8335.189     1637.839        2.084        0.946      150.893       43.961        0.085      345.806       23.598      855.841
09/17/2014  22:17:00      -59.195     -131.871       -2.209      125.553      110.874       47.078    15763.651    12293.141     2216.298        2.558        1.514      144.547       41.337        0.082      345.865       23.700      855.859
09/17/2014  22:18:00      -75.750     -135.360      -13.110       93.510       97.624       38.656     8744.158     9530.434     1494.323        2.200        0.988      155.114       37.247        0.058      345.870       23.708      855.850
09/17/2014  22:19:00      -76.055      -86.363        3.506       58.995       63.046       32.131     3480.437     3974.779     1032.401        1.087        0.424      115.078       31.971        0.077      345.795       23.580      855.830
09/17/2014  22:20:00      -24.811      -98.347        3.239       57.871       38.054       31.630     3349.049     1448.098     1000.460        0.805        0.290      101.429       22.582        0.050      345.781       23.558      855.840
09/17/2014  22:21:00      -68.816      -58.320       16.283       89.468       72.051       48.121     8004.510     5191.418     2315.587        1.195        0.776       90.205       43.397        0.231      345.748       23.499      855.850
09/17/2014  22:22:00      -23.496      -68.888        2.448      104.732       64.902       42.757    10968.852     4212.280     1828.185        1.115        0.850       72.785       36.183        0.247      345.902       23.764      855.860
09/17/2014  22:23:00     -113.186      -71.608        9.940       67.295       60.928       41.502     4528.586     3712.217     1722.410        1.400        0.498      133.936       36.805        0.076      345.759       23.518      855.900
09/17/2014  22:24:00      -29.753      -83.372        5.246       93.873       63.600       45.020     8812.168     4044.968     2026.786        1.137        0.744       88.522       34.549        0.152      345.786       23.565      855.893
09/17/2014  22:25:00      -35.577     -141.856        5.726       96.783      103.848       51.676     9366.930    10784.340     2670.401        2.212        1.141      146.249       55.930        0.146      345.891       23.744      855.893
09/17/2014  22:26:00      -75.585     -148.427        3.447       46.426       72.111       36.275     2155.403     5200.020     1315.908        1.821        0.434      166.564       23.474        0.020      345.820       23.624      855.906
09/17/2014  22:27:00       11.092     -144.243       -4.360      114.696       84.536       51.513    13155.201     7146.399     2653.623        2.195        1.148      144.669       49.186        0.116      345.882       23.728      855.918
09/17/2014  22:28:00       50.275     -165.849       -3.113       95.828       81.076       57.670     9183.084     6573.367     3325.841        2.456        0.954      173.302       30.885        0.032      345.922       23.796      855.917
09/17/2014  22:29:00      -32.084      -63.009       -4.379       49.497       48.146       24.138     2449.991     2318.031      582.638        0.518        0.268       70.707       19.295        0.074      345.765       23.531      855.927
09/17/2014  22:30:00      -75.693      -66.126       -1.039       54.030       47.701       24.886     2919.280     2275.406      619.292        0.796        0.291      100.509       21.084        0.044      345.770       23.540      855.934
09/17/2014  22:31:00     -139.965     -105.776      -11.471       68.744       40.085       38.485     4725.701     1606.845     1481.062        1.936        0.391      175.439       41.055        0.055      345.779       23.552      855.951
09/17/2014  22:32:00      -92.091     -130.152       -7.096       61.539       78.228       38.520     3787.025     6119.637     1483.799        1.843        0.570      159.437       35.392        0.049      345.682       23.386      855.951
09/17/2014  22:33:00      -71.285     -117.556        6.112       62.891       90.683       32.872     3955.322     8223.370     1080.545        1.610        0.663      137.481       40.494        0.087      345.553       23.164      855.936
09/17/2014  22:34:00     -157.623     -168.687      -17.151       64.046       91.279       46.374     4101.870     8331.867     2150.564        3.409        0.729      230.869       34.738        0.023      345.518       23.103      855.914
09/17/2014  22:35:00      -88.755      -98.951       12.732       85.943       62.243       39.394     7386.172     3874.186     1551.925        1.532        0.641      132.924       37.745        0.081      345.447       22.982      855.906
09/17/2014  22:36:00      -91.522     -162.956       -6.529       47.757       63.072       30.796     2280.740     3978.114      948.391        2.109        0.360      186.898       28.769        0.024      345.479       23.036      855.911
09/17/2014  22:37:00     -120.668     -121.983      -10.686       35.236       48.275       23.962     1241.589     2330.460      574.186        1.685        0.207      171.583       11.239        0.004      345.432       22.958      855.914
09/17/2014  22:38:00     -107.585     -104.028       -0.718       48.339       52.807       30.598     2336.622     2788.594      936.234        1.423        0.303      149.654       24.070        0.026      345.437       22.966      855.919
09/17/2014  22:39:00      -44.480      -90.707        1.775       42.181       50.266       24.519     1779.269     2526.712      601.163        0.756        0.245      101.026       28.294        0.078      345.370       22.852      855.926
09/17/2014  22:40:00     -118.499      -88.083      -10.222       39.661       35.001       18.611     1573.029     1225.078      346.355        1.252        0.157      147.651       15.206        0.011      345.343       22.805      855.932
09/17/2014  22:41:00     -129.620      -98.903       -1.969       43.744       33.610       29.778     1913.531     1129.652      886.724        1.526        0.196      163.043       21.640        0.018      345.321       22.767      855.937
09/17/2014  22:42:00      -99.126      -72.311        1.566       59.897       54.258       25.873     3587.682     2943.907      669.430        1.113        0.360      122.699       28.449        0.054      345.290       22.713      855.923
09/17/2014  22:43:00     -145.878      -83.454        1.303       51.556       44.751       30.850     2657.971     2002.608      951.710        1.693        0.281      168.062       29.928        0.032      345.259       22.661      855.931
09/17/2014  22:44:00     -169.038      -45.414       -1.321       45.237       42.340       25.491     2046.429     1792.691      649.769        1.756        0.224      175.032       23.384        0.018      345.290       22.714      855.938
09/17/2014  22:45:00      -89.650      -49.648        6.733       55.726       41.680       24.187     3105.349     1737.237      585.026        0.799        0.271      102.480       23.548        0.053      345.233       22.618      855.954
09/17/2014  22:46:00     -121.405      -15.021       -4.551       42.579       38.511       26.268     1812.984     1483.132      690.018        0.949        0.199      122.331       22.178        0.033      345.215       22.587      855.951
09/17/2014  22:47:00     -127.013      -65.431        3.044       73.047       66.662       38.542     5335.864     4443.778     1485.466        1.584        0.563      142.876       42.167        0.087      345.148       22.472      855.943
09/17/2014  22:48:00     -142.093      -41.927       -3.239       57.258       35.953       20.452     3278.518     1292.594      418.267        1.347        0.249      148.150       20.050        0.018      345.154       22.481      855.947
09/17/2014  22:49:00     -121.038      -38.768       -1.764       47.923       41.156       23.477     2296.574     1693.808      551.186        1.035        0.227      127.095       24.325        0.037      345.066       22.331      855.933
09/17/2014  22:50:00      -66.954      -34.593        9.734       63.301       74.279       39.003     4006.984     5517.349     1521.227        0.841        0.552       75.363       40.247        0.285      345.144       22.464      855.897
09/17/2014  22:51:00      -80.381      -41.695        0.636       25.211       35.320       13.102      635.570     1247.508      171.668        0.513        0.103       90.551        9.097        0.010      345.260       22.662      855.880
09/17/2014  22:52:00     -122.085      -76.389       -8.281       61.046       24.718       24.024     3726.628      610.978      577.137        1.286        0.246      144.014       23.476        0.027      345.414       22.928      855.873
09/17/2014  22:53:00     -145.286      -87.434       -8.909       51.955       39.784       26.134     2699.299     1582.737      682.963        1.690        0.248      169.567       23.978        0.020      345.355       22.826      855.874
09/17/2014  22:54:00      -71.456      -41.330       11.107       65.849       33.395       22.122     4336.146     1115.243      489.386        0.644        0.297       82.548       29.346        0.126      345.213       22.582      855.894
09/17/2014  22:55:00      -87.217      -48.312        2.455       46.955       35.103       22.077     2204.813     1232.223      487.389        0.693        0.196       99.704       23.854        0.057      345.322       22.769      855.890
09/17/2014  22:56:00     -113.606      -34.913        0.035       68.205       36.287       24.026     4651.965     1316.727      577.271        1.033        0.327      118.850       31.015        0.068      345.319       22.762      855.871
09/17/2014  22:57:00     -120.080      -62.848        7.103       52.554       50.276       29.751     2761.900     2527.640      885.145        1.230        0.309      135.532       26.723        0.039      345.343       22.805      855.856
09/17/2014  22:58:00     -147.183      -19.831       -2.069       59.166       33.470       28.257     3500.668     1120.215      798.484        1.374        0.271      148.513       31.819        0.046      345.336       22.793      855.837
09/17/2014  22:59:00     -134.075      -55.909        4.730       45.916       41.828       27.706     2108.237     1749.580      767.639        1.287        0.231      145.265       26.298        0.033      345.372       22.854      855.810
09/17/2014  23:00:00     -144.653      -53.964        1.348       71.114       46.860       32.970     5057.201     2195.820     1087.046        1.609        0.417      154.391       36.066        0.055      345.226       22.603      855.821
09/17/2014  23:01:00     -129.092      -16.440        5.221       75.492       43.388       29.190     5699.038     1882.537      852.071        1.270        0.422      130.135       34.157        0.069      345.135       22.449      855.823
09/17/2014  23:02:00     -173.996      -53.213        2.075       58.548       47.139       36.866     3427.838     2222.098     1359.132        2.006        0.350      181.951       32.100        0.031      345.180       22.524      855.815
09/17/2014  23:03:00     -159.016      -80.935        5.388       68.988       59.225       31.793     4759.385     3507.624     1010.778        2.057        0.464      178.428       33.059        0.034      345.126       22.430      855.802
09/17/2014  23:04:00     -205.488      -72.403       -7.815       56.635       48.690       28.369     3207.573     2370.750      804.773        2.695        0.319      217.871       27.142        0.016      345.092       22.373      855.778
09/17/2014  23:05:00     -197.436      -63.520        3.774       86.239       48.143       41.437     7437.111     2317.710     1717.063        2.725        0.574      207.402       48.090        0.054      345.083       22.357      855.773
09/17/2014  23:06:00     -106.994      -96.662       10.498       74.033       77.044       49.997     5480.856     5935.800     2499.723        1.741        0.696      144.192       51.364        0.127      345.130       22.440      855.784
09/17/2014  23:07:00     -128.369      -16.813        9.087      101.438       49.814       38.483    10289.629     2481.451     1480.922        1.555        0.713      129.466       48.139        0.138      345.021       22.254      855.785
09/17/2014  23:08:00     -138.715       19.841        2.147       81.254       58.337       32.268     6602.216     3403.242     1041.203        1.534        0.552      140.126       28.989        0.043      345.016       22.244      855.771
09/17/2014  23:09:00       28.700      -19.222       18.188       68.571       43.913       37.774     4702.046     1928.312     1426.901        0.479        0.403       34.543       33.597        0.946      345.120       22.424      855.756
09/17/2014  23:10:00      -38.388      -24.346        1.396       45.776       55.462       27.210     2095.448     3076.084      740.390        0.399        0.296       45.458       22.384        0.242      345.168       22.504      855.763
09/17/2014  23:11:00      -20.714      -20.746        1.573       38.058       55.702       29.115     1448.423     3102.719      847.660        0.313        0.270       29.317       26.906        0.842      345.717       23.447      855.773
09/17/2014  23:12:00      -48.134      -66.010       -8.838       54.431       44.747       19.986     2962.786     2002.336      399.423        0.606        0.268       81.696       14.050        0.030      345.682       23.386      855.778
09/17/2014  23:13:00     -138.455      -57.008        0.338       67.030       44.892       22.451     4492.997     2015.271      504.061        1.471        0.351      149.732       21.721        0.021      345.266       22.672      855.772
09/17/2014  23:14:00      -98.599      -38.584       11.184       69.622       66.153       31.440     4847.253     4376.205      988.504        1.077        0.511      105.880       30.636        0.084      345.309       22.747      855.782
09/17/2014  23:15:00      -63.461     -123.690        9.433       76.592       85.537       35.458     5866.312     7316.639     1257.236        1.692        0.722      139.020       42.694        0.094      345.770       23.537      855.798
09/17/2014  23:16:00        4.707      -34.891        6.712       47.384       37.238       28.817     2245.268     1386.690      830.429        0.287        0.223       35.207       21.441        0.371      345.339       22.799      855.778
09/17/2014  23:17:00       32.524      -66.236       -1.718       37.296       26.450       17.406     1390.997      699.613      302.963        0.392        0.120       73.790       18.458        0.063      345.505       23.083      855.756
09/17/2014  23:18:00      -31.328      -41.453        4.059       26.189       41.476       15.862      685.857     1720.240      251.605        0.269        0.133       51.960       14.785        0.081      345.572       23.197      855.745
09/17/2014  23:19:00      -31.527      -69.256        0.294       31.085       41.789       22.722      966.256     1746.296      516.301        0.451        0.161       76.095       17.545        0.053      345.571       23.196      855.725
09/17/2014  23:20:00       -7.986      -44.084        7.528       38.885       30.631       22.371     1512.046      938.233      500.465        0.251        0.148       44.802       20.571        0.211      345.566       23.188      855.736
09/17/2014  23:21:00       -5.263       -4.872       12.438       36.559       25.465       18.402     1336.585      648.477      338.624        0.126        0.116        7.172       19.781        7.607      345.504       23.082      855.707
09/17/2014  23:22:00       10.741       37.130       62.372       36.333       54.091       55.283     1320.082     2925.806     3056.188        0.634        0.365       38.653       53.588        1.922      345.396       22.897      855.687
09/17/2014  23:23:00        8.990       79.859      129.133       72.942      100.174       55.412     5320.565    10034.839     3070.499        2.078        0.921       80.363       65.237        0.659      345.388       22.883      855.667
09/17/2014  23:24:00       21.876       -1.106       74.007       54.975       91.982       71.339     3022.284     8460.749     5089.228        1.126        0.829       21.904       63.247        8.338      345.598       23.242      855.645
09/17/2014  23:25:00      -24.536     -104.332      -20.690       63.189       53.918       37.744     3992.799     2907.178     1424.602        1.012        0.416      107.179       20.226        0.036      345.531       23.127      855.668
09/17/2014  23:26:00      128.810      -71.490       14.744       96.256       80.884       55.376     9265.134     6542.221     3066.494        2.039        0.944      147.319       45.299        0.095      345.677       23.376      855.617
09/17/2014  23:27:00       71.530      -16.557       79.518      109.249      161.105      117.255    11935.380    25954.930    13748.705        3.167        2.582       73.421      118.949        2.625      345.629       23.294      855.561
09/17/2014  23:28:00       96.600     -237.998      -14.917      149.821      130.715       98.231    22446.238    17086.334     9649.349        5.768        2.459      256.855       91.766        0.128      345.826       23.632      855.618
09/17/2014  23:29:00      169.589     -182.514        8.485      128.638      152.124       78.676    16547.795    23141.693     6189.953        5.400        2.294      249.142       93.843        0.142      345.847       23.668      855.620
09/17/2014  23:30:00      -37.844      -62.692      -16.003       79.399       76.942       58.626     6304.266     5920.090     3437.039        1.064        0.783       73.228       44.861        0.375      345.710       23.435      855.625
09/17/2014  23:31:00      -20.608      -77.482       10.608       66.510       70.622       40.247     4423.600     4987.453     1619.810        0.878        0.552       80.175       16.992        0.045      345.691       23.402      855.629
09/17/2014  23:32:00      -49.569     -128.900       -5.631       65.523       79.734       37.307     4293.257     6357.572     1391.844        1.557        0.602      138.102       40.686        0.087      345.745       23.496      855.629
09/17/2014  23:33:00      -62.724     -112.420        1.835       73.617       66.361       34.632     5419.489     4403.822     1199.343        1.380        0.551      128.735       33.701        0.069      345.736       23.480      855.646
09/17/2014  23:34:00      -18.991     -153.846        9.441       84.706       59.389       41.310     7175.133     3527.067     1706.556        1.826        0.620      155.013       31.273        0.041      345.779       23.552      855.666
09/17/2014  23:35:00      -42.315     -125.843        4.052       84.765       83.949       35.457     7185.053     7047.392     1257.231        1.656        0.774      132.766       37.419        0.079      345.744       23.494      855.668
09/17/2014  23:36:00       16.261       31.393       58.311       41.613       37.240       26.736     1731.627     1386.807      714.814        0.424        0.192       35.355       18.425        0.272      345.439       22.970      855.660
09/17/2014  23:37:00      -29.334        7.598       24.119       62.656       38.301       37.709     3925.837     1466.978     1421.941        0.416        0.341       30.302       44.817        2.187      345.617       23.274      855.656
09/17/2014  23:38:00       37.659     -155.714      -32.790       82.377       71.696       43.256     6786.010     5140.370     1871.082        2.027        0.690      160.203       42.260        0.070      345.739       23.485      855.672
09/17/2014  23:39:00       -4.780       -6.746       49.871       21.624       55.439       38.873      467.601     3073.536     1511.080        0.380        0.253        8.268       28.592       11.959      345.588       23.226      855.668
09/17/2014  23:40:00       -0.722      -22.902       30.620       56.879       72.355       48.806     3235.172     5235.249     2382.067        0.616        0.543       22.913       52.099        5.170      345.657       23.344      855.672
09/17/2014  23:41:00      -29.785        6.206        9.674       26.281       23.852       19.848      690.673      568.918      393.939        0.134        0.083       30.425       16.818        0.306      345.708       23.430      855.669
09/17/2014  23:42:00      -77.549      -18.299      -10.822       40.170       41.918       12.032     1613.591     1757.089      144.779        0.499        0.176       79.678       13.288        0.028      345.679       23.380      855.670
09/17/2014  23:43:00      -71.574      -44.614       -1.515       43.844       27.673       26.178     1922.264      765.789      685.295        0.524        0.169       84.340       20.194        0.057      345.728       23.467      855.659
09/17/2014  23:44:00        2.302      -20.990        9.961       25.736       27.412       20.241      662.360      751.401      409.678        0.118        0.091       21.115       16.432        0.606      345.578       23.209      855.659
09/17/2014  23:45:00        5.000      -28.836       10.043       19.573       32.125       14.872      383.093     1032.030      221.187        0.130        0.082       29.266        4.035        0.019      345.527       23.120      855.668
09/17/2014  23:46:00       13.044       10.557       31.788       27.230       56.655       26.543      741.454     3209.816      704.532        0.297        0.233       16.781       33.224        3.920      345.409       22.918      855.663
09/17/2014  23:47:00       49.603     -100.151      -13.292       44.961       44.983       29.422     2021.486     2023.500      865.679        0.879        0.246      111.762       26.611        0.057      345.247       22.640      855.686
09/17/2014  23:48:00        4.961      -61.896       -7.849       49.665       52.219       33.615     2466.642     2726.825     1129.974        0.512        0.316       62.095       19.528        0.099      345.096       22.383      855.676
09/17/2014  23:49:00        5.093      -39.653       -7.173       29.728       22.768       22.894      883.783      518.397      524.132        0.179        0.096       39.978       11.421        0.082      345.069       22.336      855.662
09/17/2014  23:50:00        9.865      -23.289       13.455       23.947       34.860       25.397      573.470     1215.189      644.999        0.163        0.122       25.292       18.078        0.511      344.957       22.145      855.642
09/17/2014  23:51:00       37.735      -66.072       -4.314       33.898       33.518       22.861     1149.079     1123.453      522.606        0.430        0.140       76.088       22.011        0.084      345.027       22.266      855.640
09/17/2014  23:52:00      -46.404      -15.035        4.079       44.989       25.700       19.950     2023.982      660.491      397.987        0.274        0.154       48.779       20.413        0.175      344.886       22.025      855.644
09/17/2014  23:53:00     -151.635      -60.322      -11.978       39.926       29.216       21.672     1594.111      853.579      469.664        1.485        0.146      163.193       20.001        0.015      344.757       21.802      855.641
09/17/2014  23:54:00     -133.456      -68.508       -5.780       54.470       35.999       22.787     2967.025     1295.932      519.255        1.366        0.239      150.012       25.348        0.029      344.693       21.693      855.630
09/17/2014  23:55:00     -115.211      -62.264      -20.535       22.807       27.246       17.854      520.182      742.367      318.763        0.958        0.079      130.960       13.162        0.010      344.755       21.798      855.631
09/17/2014  23:56:00      -71.303      -18.136       -5.130       28.013       24.614       13.944      784.733      605.862      194.448        0.351        0.079       73.573       12.982        0.031      344.671       21.656      855.636
09/17/2014  23:57:00      -40.987      -28.510        2.397       19.865       16.558       12.203      394.629      274.151      148.912        0.166        0.041       49.928        6.690        0.018      344.708       21.717      855.651
09/17/2014  23:58:00        4.012      -26.033       -0.190       11.094       16.362       10.620      123.070      267.707      112.783        0.060        0.025       26.340        8.896        0.114      344.737       21.768      855.652
09/17/2014  23:59:00        2.572      -23.523        7.551        7.461       25.803        9.675       55.663      665.775       93.597        0.072        0.041       23.663        8.103        0.117      344.744       21.782      855.650
